[[{"header":{"parameterUnit":"m.s-1","parameterCategory":1,"la1":30.6,"la2":28.766,"lo1":-90.7593,"lo2":-88.6598,"dy":0.0162,"dx":0.0183,"nx":116,"ny":114,"refTime":"2024-03-18T18:00:00:Z","depth":0,"parameterNumber":2,"parameterNumberName":"U-component_of_WINDS"},"data":[0.0,0.0,0.0,0.0,0.0,0.0,0.0,0.0,0.0,0.0,0.0,0.0,0.0,0.0,0.0,0.0,0.0,0.0,0.0,0.0,0.0,0.0,0.0,0.0,0.0,0.0,0.0,0.0,0.0,0.0,0.0,0.0,0.0,0.0,0.0,0.0,0.0,0.0,0.0,0.0,0.0,0.0,0.0,0.0,0.0,0.0,0.0,0.0,0.0,0.0,0.0,0.0,0.0,0.0,0.0,0.0,0.0,0.0,0.0,0.0,0.0,0.0,0.0,0.0,0.0,0.0,0.0,0.0,0.0,0.0,0.0,0.0,0.0,0.0,0.0,0.0,0.0,0.0,0.0,0.0,0.0,0.0,0.0,0.0,0.0,0.0,0.0,0.0,0.0,0.0,0.0,0.0,0.0,0.0,0.0,0.0,0.0,0.0,0.0,0.0,0.0,0.0,0.0,0.0,0.0,0.0,0.0,0.0,0.0,0.0,0.0,0.0,0.0,0.0,0.0,0.0,0.0,0.0,0.0,0.0,0.0,0.0,0.0,0.0,0.0,0.0,0.0,0.0,0.0,0.0,0.0,0.0,0.0,0.0,0.0,0.0,0.0,0.0,0.0,0.0,0.0,0.0,0.0,0.0,0.0,0.0,0.0,0.0,0.0,0.0,0.0,0.0,0.0,0.0,0.0,0.0,0.0,0.0,0.0,0.0,0.0,0.0,0.0,0.0,0.0,0.0,0.0,0.0,0.0,0.0,0.0,0.0,0.0,0.0,0.0,0.0,0.0,0.0,0.0,0.0,0.0,0.0,0.0,0.0,0.0,0.0,0.0,0.0,0.0,0.0,0.0,0.0,0.0,0.0,0.0,0.0,0.0,0.0,0.0,0.0,0.0,0.0,0.0,0.0,0.0,0.0,0.0,0.0,0.0,0.0,0.0,0.0,0.0,0.0,0.0,0.0,0.0,0.0,0.0,0.0,0.0,0.0,0.0,0.0,0.0,0.0,0.0,0.0,0.0,0.0,0.0,0.0,0.0,0.0,0.0,0.0,0.0,0.0,0.0,0.0,0.0,0.0,0.0,0.0,0.0,0.0,0.0,0.0,0.0,0.0,0.0,0.0,0.0,0.0,0.0,0.0,0.0,0.0,0.0,0.0,0.0,0.0,0.0,0.0,0.0,0.0,0.0,0.0,0.0,0.0,0.0,0.0,0.0,0.0,0.0,0.0,0.0,0.0,0.0,0.0,0.0,0.0,0.0,0.0,0.0,0.0,0.0,0.0,0.0,0.0,0.0,0.0,0.0,0.0,0.0,0.0,0.0,0.0,0.0,0.0,0.0,0.0,0.0,0.0,0.0,0.0,0.0,0.0,0.0,0.0,0.0,0.0,0.0,0.0,0.0,0.0,0.0,0.0,0.0,0.0,0.0,0.0,0.0,0.0,0.0,0.0,0.0,0.0,0.0,0.0,0.0,0.0,0.0,0.0,0.0,0.0,0.0,0.0,0.0,0.0,0.0,0.0,0.0,0.0,0.0,0.0,0.0,0.0,0.0,0.0,0.0,0.0,0.0,0.0,0.0,0.0,0.0,0.0,0.0,0.0,0.0,0.0,0.0,0.0,0.0,0.0,0.0,0.0,0.0,0.0,0.0,0.0,0.0,0.0,0.0,0.0,0.0,0.0,0.0,0.0,0.0,0.0,0.0,0.0,0.0,0.0,0.0,0.0,0.0,0.0,0.0,0.0,0.0,0.0,0.0,0.0,0.0,0.0,0.0,0.0,0.0,0.0,0.0,0.0,0.0,0.0,0.0,0.0,0.0,0.0,0.0,0.0,0.0,0.0,0.0,0.0,0.0,0.0,0.0,0.0,0.0,0.0,0.0,0.0,0.0,0.0,0.0,0.0,0.0,0.0,0.0,0.0,0.0,0.0,0.0,0.0,0.0,0.0,0.0,0.0,0.0,0.0,0.0,0.0,0.0,0.0,0.0,0.0,0.0,0.0,0.0,0.0,0.0,0.0,0.0,0.0,0.0,0.0,0.0,0.0,0.0,0.0,0.0,0.0,0.0,0.0,0.0,0.0,0.0,0.0,0.0,0.0,0.0,0.0,0.0,0.0,0.0,0.0,0.0,0.0,0.0,0.0,0.0,0.0,0.0,0.0,0.0,0.0,0.0,0.0,0.0,0.0,0.0,0.0,0.0,0.0,0.0,0.0,0.0,0.0,0.0,0.0,0.0,0.0,0.0,0.0,0.0,0.0,0.0,0.0,0.0,0.0,0.0,0.0,0.0,0.0,0.0,0.0,0.0,0.0,0.0,0.0,0.0,0.0,0.0,0.0,0.0,0.0,0.0,0.0,0.0,0.0,0.0,0.0,0.0,0.0,0.0,0.0,0.0,0.0,0.0,0.0,0.0,0.0,0.0,0.0,0.0,0.0,0.0,0.0,0.0,0.0,0.0,0.0,0.0,0.0,0.0,0.0,0.0,0.0,0.0,0.0,0.0,0.0,0.0,0.0,0.0,0.0,0.0,0.0,0.0,0.0,0.0,0.0,0.0,0.0,0.0,0.0,0.0,0.0,0.0,0.0,0.0,0.0,0.0,0.0,0.0,0.0,0.0,0.0,0.0,0.0,0.0,0.0,0.0,0.0,0.0,0.0,0.0,0.0,0.0,0.0,0.0,0.0,0.0,0.0,0.0,0.0,0.0,0.0,0.0,0.0,0.0,0.0,0.0,0.0,0.0,0.0,0.0,0.0,0.0,0.0,0.0,0.0,0.0,0.0,0.0,0.0,0.0,0.0,0.0,0.0,0.0,0.0,0.0,0.0,0.0,0.0,0.0,0.0,0.0,0.0,0.0,0.0,0.0,0.0,0.0,0.0,0.0,0.0,0.0,0.0,0.0,0.0,0.0,0.0,0.0,0.0,0.0,0.0,0.0,0.0,0.0,0.0,0.0,0.0,0.0,0.0,0.0,0.0,0.0,0.0,0.0,0.0,0.0,0.0,0.0,0.0,0.0,0.0,0.0,0.0,0.0,0.0,0.0,0.0,0.0,0.0,0.0,0.0,0.0,0.0,0.0,0.0,0.0,0.0,0.0,0.0,0.0,0.0,0.0,0.0,0.0,0.0,0.0,0.0,0.0,0.0,0.0,0.0,0.0,0.0,0.0,0.0,0.0,0.0,0.0,0.0,0.0,0.0,0.0,0.0,0.0,0.0,0.0,0.0,0.0,0.0,0.0,0.0,0.0,0.0,0.0,0.0,0.0,0.0,0.0,0.0,0.0,0.0,0.0,0.0,0.0,0.0,0.0,0.0,0.0,0.0,0.0,0.0,0.0,0.0,0.0,0.0,0.0,0.0,0.0,0.0,0.0,0.0,0.0,0.0,0.0,0.0,0.0,0.0,0.0,0.0,0.0,0.0,0.0,0.0,0.0,0.0,0.0,0.0,0.0,0.0,0.0,0.0,0.0,0.0,0.0,0.0,0.0,0.0,0.0,0.0,0.0,0.0,0.0,0.0,0.0,0.0,0.0,0.0,0.0,0.0,0.0,0.0,0.0,0.0,0.0,0.0,0.0,0.0,0.0,0.0,0.0,0.0,0.0,0.0,0.0,0.0,0.0,0.0,0.0,0.0,0.0,0.0,0.0,0.0,0.0,0.0,0.0,0.0,0.0,0.0,0.0,0.0,0.0,0.0,0.0,0.0,0.0,0.0,0.0,0.0,0.0,0.0,0.0,0.0,0.0,0.0,0.0,0.0,0.0,0.0,0.0,0.0,0.0,0.0,0.0,0.0,0.0,0.0,0.0,0.0,0.0,0.0,0.0,0.0,0.0,0.0,0.0,0.0,0.0,0.0,0.0,0.0,0.0,0.0,0.0,0.0,0.0,0.0,0.0,0.0,0.0,0.0,0.0,0.0,0.0,0.0,0.0,0.0,0.0,0.0,0.0,0.0,0.0,0.0,0.0,0.0,0.0,0.0,0.0,0.0,0.0,0.0,0.0,0.0,0.0,0.0,0.0,0.0,0.0,0.0,0.0,0.0,0.0,0.0,0.0,0.0,0.0,0.0,0.0,0.0,0.0,0.0,0.0,0.0,0.0,0.0,0.0,0.0,0.0,0.0,0.0,0.0,0.0,0.0,0.0,0.0,0.0,0.0,0.0,0.0,0.0,0.0,0.0,0.0,0.0,0.0,0.0,0.0,0.0,0.0,0.0,0.0,0.0,0.0,0.0,0.0,0.0,0.0,0.0,0.0,0.0,0.0,0.0,0.0,0.0,0.0,0.0,0.0,0.0,0.0,0.0,0.0,0.0,0.0,0.0,0.0,0.0,0.0,0.0,0.0,0.0,0.0,0.0,0.0,0.0,0.0,0.0,0.0,0.0,0.0,0.0,0.0,0.0,0.0,0.0,0.0,0.0,0.0,0.0,0.0,0.0,0.0,0.0,0.0,0.0,0.0,0.0,0.0,0.0,0.0,0.0,0.0,0.0,0.0,0.0,0.0,0.0,0.0,0.0,0.0,0.0,0.0,0.0,0.0,0.0,0.0,0.0,0.0,0.0,0.0,0.0,0.0,0.0,0.0,0.0,0.0,0.0,0.0,0.0,0.0,0.0,0.0,0.0,0.0,0.0,0.0,0.0,0.0,0.0,0.0,0.0,0.0,0.0,0.0,0.0,0.0,0.0,0.0,0.0,0.0,0.0,0.0,0.0,0.0,0.0,0.0,0.0,0.0,0.0,0.0,0.0,0.0,0.0,0.0,0.0,0.0,0.0,0.0,0.0,0.0,0.0,0.0,0.0,0.0,0.0,0.0,0.0,0.0,0.0,0.0,0.0,0.0,0.0,0.0,0.0,0.0,0.0,0.0,0.0,0.0,0.0,0.0,0.0,0.0,0.0,0.0,0.0,0.0,0.0,0.0,0.0,0.0,0.0,0.0,0.0,0.0,0.0,0.0,0.0,0.0,0.0,0.0,0.0,0.0,0.0,0.0,0.0,0.0,0.0,0.0,0.0,0.0,0.0,0.0,0.0,0.0,0.0,0.0,0.0,0.0,0.0,0.0,0.0,0.0,0.0,0.0,0.0,0.0,0.0,0.0,0.0,0.0,0.0,0.0,0.0,0.0,0.0,0.0,0.0,0.0,0.0,0.0,0.0,0.0,0.0,0.0,0.0,0.0,0.0,0.0,0.0,0.0,0.0,0.0,0.0,0.0,0.0,0.0,0.0,0.0,0.0,0.0,0.0,0.0,0.0,0.0,0.0,0.0,0.0,0.0,0.0,0.0,0.0,0.0,0.0,0.0,0.0,0.0,0.0,0.0,0.0,0.0,0.0,0.0,0.0,0.0,0.0,0.0,0.0,0.0,0.0,0.0,0.0,0.0,0.0,0.0,0.0,0.0,0.0,0.0,0.0,0.0,0.0,0.0,0.0,0.0,0.0,0.0,0.0,0.0,0.0,0.0,0.0,0.0,0.0,0.0,0.0,0.0,0.0,0.0,0.0,0.0,0.0,0.0,0.0,0.0,0.0,0.0,0.0,0.0,0.0,0.0,0.0,0.0,0.0,0.0,0.0,0.0,0.0,0.0,0.0,0.0,0.0,0.0,0.0,0.0,0.0,0.0,0.0,0.0,0.0,0.0,0.0,0.0,0.0,0.0,0.0,0.0,0.0,0.0,0.0,0.0,0.0,0.0,0.0,0.0,0.0,0.0,0.0,0.0,0.0,0.0,0.0,0.0,0.0,0.0,0.0,0.0,0.0,0.0,0.0,0.0,0.0,0.0,0.0,0.0,0.0,0.0,0.0,0.0,0.0,0.0,0.0,0.0,0.0,0.0,0.0,0.0,0.0,0.0,0.0,0.0,0.0,0.0,0.0,0.0,0.0,0.0,0.0,0.0,0.0,0.0,0.0,0.0,0.0,0.0,0.0,0.0,0.0,0.0,0.0,0.0,0.0,0.0,0.0,0.0,0.0,0.0,0.0,0.0,0.0,0.0,0.0,0.0,0.0,0.0,0.0,0.0,0.0,0.0,0.0,0.0,0.0,0.0,0.0,0.0,0.0,0.0,0.0,0.0,0.0,0.0,0.0,0.0,0.0,0.0,0.0,0.0,0.0,0.0,0.0,0.0,-2.0546,-2.0049,0.0,0.0,0.0,0.0,0.0,0.0,0.0,0.0,0.0,0.0,0.0,0.0,0.0,0.0,0.0,0.0,0.0,0.0,0.0,0.0,0.0,0.0,0.0,0.0,0.0,0.0,-1.9046,-1.9199,-1.9389,-1.9633,0.0,0.0,0.0,0.0,-1.9591,-1.9151,-1.9227,-1.9773,-1.9773,-2.0039,-2.0459,-2.0553,-2.0048,-1.9081,0.0,0.0,0.0,0.0,0.0,0.0,0.0,0.0,0.0,0.0,0.0,0.0,0.0,0.0,0.0,0.0,0.0,0.0,0.0,0.0,0.0,0.0,0.0,0.0,0.0,0.0,0.0,0.0,0.0,0.0,0.0,0.0,0.0,0.0,0.0,0.0,0.0,0.0,0.0,0.0,0.0,0.0,0.0,0.0,0.0,0.0,0.0,0.0,0.0,0.0,0.0,0.0,0.0,0.0,0.0,0.0,0.0,0.0,0.0,0.0,0.0,0.0,0.0,0.0,0.0,0.0,0.0,0.0,0.0,0.0,-2.1797,-2.1104,0.0,0.0,0.0,0.0,0.0,0.0,0.0,0.0,0.0,0.0,0.0,0.0,0.0,0.0,0.0,0.0,0.0,0.0,0.0,0.0,0.0,0.0,0.0,-1.9172,-1.9145,-1.9522,-1.9455,-1.9415,-1.9468,-1.9618,-1.9722,-1.9722,-1.9722,-1.9722,-1.9722,-1.9558,-1.9883,-2.0712,-2.0681,-2.1096,-2.1903,-2.2198,-2.1511,-2.0067,-1.9521,0.0,0.0,0.0,0.0,0.0,0.0,0.0,0.0,0.0,0.0,0.0,0.0,0.0,0.0,0.0,0.0,0.0,0.0,0.0,0.0,0.0,0.0,0.0,0.0,0.0,0.0,0.0,0.0,0.0,0.0,0.0,0.0,0.0,0.0,0.0,0.0,0.0,0.0,0.0,0.0,0.0,0.0,0.0,0.0,0.0,0.0,0.0,0.0,0.0,0.0,0.0,0.0,0.0,0.0,0.0,0.0,0.0,0.0,0.0,0.0,0.0,0.0,0.0,-2.5171,-2.5519,-2.5804,-2.5252,-2.4978,-2.4927,-2.3642,-2.2829,-2.2357,-2.1831,0.0,0.0,0.0,0.0,0.0,0.0,0.0,0.0,0.0,0.0,0.0,0.0,0.0,0.0,0.0,0.0,0.0,0.0,0.0,0.0,0.0,-1.9508,-1.9533,-2.0037,-1.9653,-1.9508,-1.9733,-1.9564,-1.9446,-1.9446,-1.9446,-1.9446,-1.9446,-1.9642,-2.0054,-2.0712,-2.1943,-2.2712,-2.3065,-2.3394,-2.3437,-2.3144,-2.1521,-2.0824,-2.0726,0.0,0.0,0.0,0.0,0.0,0.0,0.0,0.0,0.0,0.0,0.0,0.0,0.0,0.0,0.0,0.0,0.0,0.0,0.0,0.0,0.0,0.0,0.0,0.0,0.0,0.0,0.0,0.0,0.0,0.0,0.0,0.0,0.0,0.0,0.0,0.0,0.0,0.0,0.0,0.0,0.0,-2.2251,-2.2012,0.0,0.0,0.0,0.0,0.0,0.0,0.0,0.0,0.0,0.0,0.0,0.0,0.0,-2.399,-2.4025,-2.5171,-2.5859,-2.6069,-2.6885,-2.7177,-2.7067,-2.7258,-2.7335,-2.7359,-2.7158,0.0,-2.3667,-2.3684,0.0,0.0,0.0,0.0,0.0,0.0,0.0,0.0,0.0,0.0,0.0,0.0,0.0,0.0,0.0,0.0,0.0,0.0,0.0,0.0,0.0,-2.0498,-2.086,-2.1384,-2.1537,-2.1363,-2.086,-2.0699,-2.0324,-1.9639,-1.9481,-1.9468,-1.9599,-2.0054,-2.102,-2.2452,-2.3924,-2.4713,-2.481,-2.5104,-2.5195,-2.5007,-2.4218,-2.3228,-2.2091,-2.1376,0.0,0.0,0.0,0.0,0.0,0.0,0.0,0.0,0.0,0.0,0.0,0.0,0.0,0.0,0.0,0.0,0.0,0.0,0.0,0.0,0.0,0.0,0.0,0.0,0.0,0.0,0.0,0.0,0.0,0.0,0.0,0.0,0.0,0.0,0.0,0.0,0.0,0.0,0.0,-2.1321,-2.1696,-2.1569,-2.1939,-2.1943,0.0,0.0,0.0,0.0,0.0,0.0,0.0,0.0,0.0,-2.458,-2.5478,-2.5927,-2.5952,-2.6984,-2.7756,-2.8242,-2.8745,-2.9119,-2.9268,-2.9267,-2.9195,-2.9052,-2.9139,-2.8279,-2.6783,-2.5797,-2.4646,-2.3496,0.0,0.0,0.0,0.0,-2.1872,-2.1654,0.0,0.0,0.0,0.0,0.0,0.0,0.0,0.0,0.0,0.0,0.0,0.0,-2.0967,-2.1502,-2.2104,-2.2806,-2.3118,-2.2979,-2.2211,-2.1729,-2.1074,-2.0174,-1.9669,-1.9562,-1.9907,-2.1002,-2.2519,-2.4365,-2.5837,-2.66,-2.668,-2.6934,-2.6947,-2.6787,-2.6787,-2.5677,-2.375,-2.3046,-2.2138,0.0,0.0,0.0,0.0,0.0,0.0,0.0,0.0,0.0,0.0,0.0,0.0,0.0,0.0,0.0,0.0,0.0,0.0,0.0,0.0,0.0,0.0,0.0,0.0,0.0,0.0,0.0,0.0,0.0,0.0,0.0,0.0,0.0,0.0,0.0,0.0,0.0,0.0,-2.1289,-2.1601,-2.1434,-2.2359,-2.2646,0.0,0.0,0.0,0.0,0.0,0.0,-2.4977,-2.5874,-2.6397,-2.6417,-2.7514,-2.8079,-2.8098,-2.8791,-2.9491,-3.0178,-3.0151,-3.0397,-3.084,-3.0564,-3.043,-3.0322,-3.0453,-3.0264,-2.9727,-2.7812,-2.6308,-2.5181,-2.4732,-2.3984,-2.3162,-2.3668,-2.3476,-2.3109,0.0,0.0,0.0,0.0,0.0,0.0,0.0,0.0,0.0,0.0,0.0,-2.061,-2.179,-2.2191,-2.2846,-2.4008,-2.3599,-2.342,-2.3683,-2.2071,-2.1109,-2.1042,-1.996,-1.9626,-2.017,-2.2712,-2.4623,-2.5891,-2.7362,-2.8232,-2.8484,-2.8735,-2.8855,-2.8841,-2.8841,-2.7883,-2.6106,-2.4459,-2.3696,-2.3429,0.0,0.0,0.0,0.0,0.0,0.0,0.0,0.0,0.0,0.0,0.0,0.0,0.0,0.0,0.0,0.0,0.0,0.0,0.0,0.0,0.0,0.0,0.0,0.0,0.0,0.0,0.0,0.0,0.0,0.0,0.0,0.0,0.0,0.0,0.0,0.0,0.0,0.0,0.0,-2.2405,-2.4377,0.0,0.0,0.0,0.0,-2.5041,-2.5566,-2.625,-2.709,-2.803,-2.8637,-2.8818,-2.9757,-3.0239,-3.0253,-3.0528,-3.0918,-3.1423,-3.0708,-3.0573,-3.0967,-3.0711,-3.0828,-3.1231,-3.1376,-3.1541,-3.1506,-2.9548,-2.8037,-2.6786,-2.6179,-2.533,-2.451,-2.4559,-2.4324,-2.4028,0.0,0.0,0.0,0.0,0.0,0.0,0.0,0.0,-1.9185,-1.9508,-2.0458,-2.1489,-2.2479,-2.3995,-2.5291,-2.6106,-2.6507,-2.636,-2.5518,-2.3808,-2.2739,-2.2552,-2.1042,-2.1109,-2.2985,-2.4743,-2.6279,-2.7669,-2.8607,-2.9165,-2.9446,-2.9508,-2.9562,-2.9548,-2.9406,-2.9072,-2.8551,-2.6974,-2.5424,-2.3955,-2.2926,-2.1643,0.0,0.0,0.0,0.0,0.0,0.0,0.0,0.0,0.0,0.0,0.0,0.0,0.0,0.0,0.0,0.0,0.0,0.0,0.0,0.0,0.0,0.0,0.0,0.0,0.0,0.0,0.0,0.0,0.0,0.0,0.0,0.0,0.0,0.0,0.0,0.0,0.0,-2.4649,-2.5955,0.0,-2.5278,-2.6042,-2.6769,-2.712,-2.8015,-2.8742,-2.9276,-2.9931,-3.0325,-3.0389,-3.1116,-3.1476,-3.1476,-3.1818,-3.2061,-3.2204,-3.1953,-3.1758,-3.1699,-3.1729,-3.19,-3.2169,-3.193,-3.2046,-3.2324,-3.0993,-2.9807,-2.8807,-2.8125,-2.7408,-2.6728,-2.6736,-2.6409,-2.6002,0.0,0.0,0.0,0.0,0.0,0.0,0.0,0.0,-1.9292,-1.988,-2.1007,-2.2265,-2.3643,-2.5424,-2.6854,-2.7655,-2.8163,-2.7989,-2.6907,-2.4997,-2.3781,-2.3487,-2.2258,-2.2619,-2.4839,-2.6279,-2.775,-2.9205,-2.9686,-3.0127,-3.0501,-3.0408,-3.0408,-3.0501,-3.0301,-3.0221,-3.014,-2.9165,-2.7388,-2.5197,-2.474,-2.3135,-2.1009,0.0,0.0,0.0,0.0,0.0,0.0,0.0,0.0,0.0,0.0,0.0,0.0,0.0,0.0,0.0,0.0,0.0,0.0,0.0,0.0,0.0,0.0,0.0,0.0,0.0,0.0,0.0,0.0,0.0,0.0,0.0,0.0,0.0,0.0,-2.4306,-2.5705,-2.6225,-2.7603,-2.815,-2.7362,-2.8163,-2.8831,-2.9062,-2.9953,-3.0635,-3.0975,-3.1503,-3.1824,-3.1824,-3.2291,-3.2545,-3.2545,-3.2732,-3.2888,-3.2888,-3.2781,-3.2634,-3.2385,-3.2427,-3.2606,-3.2747,-3.2496,-3.2513,-3.2644,-3.1916,-3.104,-3.0086,-2.9592,-2.8988,-2.8379,-2.8277,-2.7897,-2.7466,0.0,0.0,0.0,0.0,0.0,0.0,0.0,-1.9388,-1.9803,-2.0949,-2.1643,-2.2913,-2.5264,-2.6333,-2.7321,-2.8537,-2.8406,-2.8085,-2.7736,-2.5531,-2.4102,-2.383,-2.3567,-2.4092,-2.5598,-2.7362,-2.8981,-3.0467,-3.0702,-3.1129,-3.1738,-3.1396,-3.1423,-3.1738,-3.1738,-3.137,-3.0849,-3.0835,-2.9499,-2.7349,-2.6426,-2.438,-2.1843,0.0,0.0,0.0,0.0,0.0,0.0,0.0,0.0,0.0,0.0,0.0,0.0,0.0,0.0,0.0,0.0,0.0,0.0,0.0,0.0,0.0,0.0,0.0,0.0,0.0,0.0,0.0,0.0,0.0,0.0,0.0,0.0,0.0,-2.3439,-2.5678,-2.7228,-2.6987,-2.9259,-3.0408,-2.9228,-3.0207,-3.0889,-3.0889,-3.147,-3.1877,-3.2158,-3.2706,-3.3026,-3.3026,-3.328,-3.3427,-3.3427,-3.3414,-3.3414,-3.3414,-3.3133,-3.2986,-3.2986,-3.2728,-3.2724,-3.2907,-3.3033,-3.2845,-3.2498,-3.2339,-3.1613,-3.0651,-3.0488,-3.0009,-2.9369,-2.9047,-2.8686,-2.8238,0.0,0.0,0.0,0.0,0.0,0.0,0.0,-1.9185,-1.9466,-2.0641,-2.2058,-2.3607,-2.5331,-2.7214,-2.8644,-2.9192,-2.9209,-2.8848,-2.8112,-2.6065,-2.4609,-2.4102,-2.5438,-2.6774,-2.8001,-2.9179,-3.0413,-3.1623,-3.1704,-3.1931,-3.2353,-3.2273,-3.2273,-3.234,-3.2078,-3.2011,-3.2099,-3.1837,-3.1116,-2.998,-2.8286,-2.6466,-2.4763,0.0,0.0,0.0,0.0,0.0,0.0,0.0,0.0,0.0,0.0,0.0,0.0,0.0,0.0,0.0,0.0,0.0,0.0,0.0,0.0,0.0,0.0,0.0,0.0,0.0,0.0,0.0,0.0,0.0,0.0,0.0,-2.4325,-2.5718,-2.58,-2.7374,-2.8911,-2.9855,-3.1223,-3.2072,-3.1904,-3.2585,-3.304,-3.304,-3.3374,-3.3627,-3.3708,-3.3868,-3.3948,-3.3948,-3.3828,-3.3761,-3.3761,-3.3534,-3.3414,-3.3414,-3.3334,-3.3293,-3.328,-3.2822,-3.2832,-3.3147,-3.2502,-3.2482,-3.2813,-3.2028,-3.1743,-3.1728,-3.0788,-3.0083,-2.9554,-2.9238,-2.8565,-2.7692,0.0,0.0,0.0,0.0,0.0,0.0,0.0,-1.9225,-1.9613,-2.1074,-2.2458,-2.3986,-2.5826,-2.7615,-2.8831,-2.9259,-2.9072,-2.858,-2.7684,-2.6132,-2.5277,-2.5304,-2.6921,-2.8377,-2.9566,-3.0507,-3.1476,-3.2652,-3.2412,-3.2639,-3.328,-3.2955,-3.2915,-3.3143,-3.2786,-3.2679,-3.2768,-3.2545,-3.2198,-3.1664,-3.0386,-2.8478,-2.6395,-2.603,-2.4355,-2.2328,-2.3216,-2.2943,-2.222,-2.2648,0.0,0.0,0.0,0.0,0.0,0.0,0.0,0.0,0.0,0.0,0.0,0.0,0.0,0.0,0.0,0.0,0.0,0.0,0.0,0.0,0.0,0.0,0.0,0.0,-2.6092,-2.7629,-2.8537,-2.9362,-3.0322,-3.1463,-3.2385,-3.304,-3.3334,-3.3895,-3.4202,-3.4082,-3.4336,-3.4456,-3.4322,-3.4442,-3.4456,-3.4322,-3.4269,-3.4135,-3.3895,-3.3708,-3.3547,-3.3414,-3.3414,-3.3414,-3.34,-3.3066,-3.3036,-3.3168,-3.2661,-3.2498,-3.2485,-3.1864,-3.1679,-3.1642,0.0,0.0,0.0,0.0,-2.8584,-2.7914,0.0,0.0,0.0,0.0,0.0,0.0,0.0,-1.9401,-2.003,-2.175,-2.2766,-2.4172,-2.648,-2.7603,-2.8379,-2.8895,-2.847,-2.7831,-2.6974,-2.6226,-2.6186,-2.7,-2.8243,-2.9419,-3.0574,-3.143,-3.2358,-3.3467,-3.2995,-3.3253,-3.4295,-3.3507,-3.3414,-3.3921,-3.3641,-3.3374,-3.3133,-3.3133,-3.2995,-3.2674,-3.2358,-3.0307,-2.7521,-2.783,-2.6514,-2.4613,-2.5205,-2.4964,-2.4338,-2.395,0.0,0.0,0.0,0.0,0.0,0.0,0.0,0.0,0.0,0.0,0.0,0.0,0.0,0.0,0.0,0.0,0.0,0.0,0.0,0.0,0.0,0.0,0.0,0.0,-2.7963,-2.9379,-3.1036,-3.1396,-3.1664,-3.2185,-3.299,-3.3708,-3.4002,-3.4484,-3.4711,-3.4536,-3.4763,-3.479,-3.4536,-3.4763,0.0,0.0,0.0,-3.4484,-3.3988,-3.3921,-3.3748,-3.3467,-3.3427,-3.3414,-3.3414,-3.3347,-3.3173,-3.2955,-3.3073,-3.2613,-3.1861,-3.1756,-3.1341,-3.0685,-3.034,-3.0352,-3.0452,-2.9073,-2.8607,-2.8537,0.0,0.0,0.0,0.0,0.0,0.0,0.0,-1.9401,-2.003,-2.175,-2.2766,-2.4092,-2.6239,-2.7255,-2.803,-2.8644,-2.8393,-2.8005,-2.7562,-2.7643,-2.7965,-2.8534,-2.9922,-3.1049,-3.1744,-3.2398,-3.308,-3.3801,-3.3681,-3.3868,-3.4322,-3.4148,-3.4122,-3.4229,-3.4175,-3.4108,-3.4055,-3.4055,-3.3748,-3.324,-3.3187,-3.2036,-3.0339,-2.9726,-2.8031,-2.6105,-2.6915,-2.655,-2.5787,-2.6595,-2.6453,-2.5788,-2.4908,0.0,0.0,0.0,0.0,0.0,0.0,0.0,0.0,0.0,0.0,0.0,0.0,0.0,0.0,0.0,0.0,0.0,0.0,0.0,0.0,-2.7028,-2.8821,-3.044,-3.1483,-3.2398,-3.3026,-3.3146,-3.3961,-3.4629,-3.491,-3.5257,-3.5538,-3.5725,-3.5792,-3.5792,-3.5738,-3.5792,-3.5685,-3.5391,-3.5204,-3.495,-3.4655,-3.4122,-3.3855,-3.3788,-3.3534,0.0,-3.34,-3.2933,-3.2728,-3.2648,-3.2208,-3.184,-3.1573,-3.1249,-3.0557,-2.964,-2.9943,-3.0283,-3.0424,-2.8994,-2.8455,-2.8359,0.0,0.0,0.0,0.0,0.0,0.0,0.0,-1.9522,-2.0054,-2.1376,-2.2445,-2.3661,-2.513,-2.5945,-2.6453,-2.6613,-2.648,-2.664,-2.7215,-2.7963,-2.8898,-3.0042,-3.1263,-3.2158,-3.2746,-3.32,-3.3721,-3.4322,-3.4175,-3.4322,-3.475,-3.4456,-3.4402,-3.4536,-3.4389,-3.4322,-3.4309,-3.4162,-3.3935,-3.3641,-3.348,-3.2799,-3.181,-3.1076,-2.9827,-2.845,-2.8872,-2.8496,-2.7795,-2.8053,-2.7655,-2.6786,-2.5387,-2.4602,-2.3798,0.0,0.0,0.0,0.0,0.0,0.0,0.0,0.0,0.0,0.0,0.0,0.0,0.0,0.0,-2.4436,-2.5157,0.0,-2.7576,-2.9005,-3.0247,-3.1363,-3.2246,-3.3213,-3.3814,-3.3668,-3.4309,-3.4936,-3.5164,-3.5591,-3.5912,-3.6113,-3.6206,-3.6219,-3.614,-3.6206,-3.6086,-3.5591,-3.5631,-3.5351,-3.4829,-3.4322,-3.4028,-3.3881,-3.3561,-3.3414,-3.34,-3.2959,-3.2808,-3.2781,-3.2144,-3.1685,-3.1313,-3.0795,-3.026,-2.9742,-2.9684,-2.9562,-2.9284,-2.837,-2.8165,-2.8221,0.0,0.0,0.0,0.0,0.0,0.0,0.0,-1.9642,-2.012,-2.0989,-2.2064,-2.3041,-2.3848,-2.4422,-2.4663,-2.4452,-2.4693,-2.5518,-2.6987,-2.831,-2.9766,-3.141,-3.2326,-3.3009,-3.3494,-3.3814,-3.4229,-3.4698,-3.4576,-3.4736,-3.5191,-3.471,-3.4616,-3.4882,-3.4603,-3.4496,-3.4469,-3.4175,-3.4028,-3.3948,-3.3627,-3.312,-3.2541,-3.2072,-3.131,-3.048,-3.0426,-2.9998,-2.9339,-2.8911,-2.8257,-2.7304,-2.5397,-2.5217,-2.5141,-2.2317,-2.2753,0.0,0.0,0.0,0.0,0.0,0.0,0.0,0.0,-2.2806,-2.3287,-2.4285,-2.5157,-2.6119,-2.7349,-2.8192,-2.9262,-3.0942,-3.157,-3.2179,-3.2946,-3.3788,-3.4255,-3.4082,-3.4523,-3.4963,-3.5257,-3.5765,-3.6099,-3.6153,-3.6433,-3.65,-3.6259,-3.6393,-3.6259,-3.5725,-3.5899,-3.5618,-3.4909,-3.4549,-3.4255,-3.3961,-3.3654,-3.3467,-3.34,-3.3106,-3.2946,-3.2902,-3.2144,-3.1583,-3.1049,-3.0276,-2.9964,-2.9896,-2.934,-2.8746,-2.8152,-2.7911,-2.8039,-2.8248,0.0,0.0,0.0,0.0,0.0,0.0,0.0,0.0,-2.012,-2.0989,-2.1683,-2.2358,-2.2974,-2.3313,-2.3621,-2.3884,-2.5101,-2.6466,-2.7938,-2.9637,-3.1102,-3.2393,-3.2986,-3.348,-3.3828,-3.4122,-3.4429,-3.4815,-3.499,-3.5124,-3.5191,-3.5124,-3.511,-3.5151,-3.511,-3.5097,-3.5084,-3.479,-3.4509,-3.4242,-3.3948,-3.332,-3.2581,-3.2527,-3.1791,-3.0715,-3.0493,-2.982,-2.9081,-2.9312,-2.9138,-2.8735,-2.8247,-2.7985,-2.755,-2.5843,0.0,-2.3701,-2.318,-2.2692,-2.2579,-2.3295,-2.3108,-2.3375,0.0,-2.5678,-2.5491,-2.668,-2.7589,-2.8257,-2.843,-2.9579,-3.0662,-3.1096,-3.1917,-3.2714,-3.328,-3.3921,-3.4402,-3.4695,-3.495,-3.5257,-3.5551,-3.5872,-3.6179,-3.6433,-3.6727,-3.6861,-3.6834,-3.662,-3.6353,-3.6032,-3.5805,-3.5511,-3.5151,-3.4857,-3.4563,-3.4269,-3.3975,-3.3681,-3.34,-3.3106,-3.2888,-3.2581,-3.1423,-3.0902,-3.0755,-2.9624,-2.9129,-2.9075,-2.8558,-2.8261,-2.8179,-2.8152,-2.8391,-2.8644,0.0,0.0,0.0,0.0,0.0,0.0,0.0,0.0,0.0,-2.0504,-2.1109,-2.163,-2.2091,-2.1943,-2.183,-2.1997,-2.3669,-2.5409,-2.7055,-2.9419,-3.1316,-3.2541,-3.3106,-3.3561,-3.3881,-3.4175,-3.4469,-3.4815,-3.5057,-3.5191,-3.5191,-3.5191,-3.5191,-3.5191,-3.5191,-3.5097,-3.4923,-3.4629,-3.4336,-3.4028,-3.3547,-3.2933,-3.2251,-3.1904,-3.1049,-3.002,-2.9931,-2.9165,0.0,0.0,-2.8003,-2.7721,-2.7816,-2.7429,-2.676,-2.5971,-2.5264,0.0,-2.4422,-2.3915,-2.3554,-2.3928,-2.4379,-2.4994,-2.6105,-2.6426,-2.6814,-2.7643,-2.8631,-2.9419,-2.9593,-3.0541,-3.1517,-3.2144,-3.2706,-3.328,-3.3855,-3.4309,-3.4563,-3.4509,-3.491,-3.5311,-3.5551,-3.5738,-3.6006,-3.6473,-3.662,-3.6754,-3.6885,-3.6779,-3.654,-3.6086,-3.5952,-3.5672,-3.5204,-3.4736,-3.4442,-3.4309,-3.3841,-3.3534,-3.34,-3.2982,-3.2527,-3.2032,-3.1156,-3.0795,-3.0715,-2.9713,-2.9192,-2.8948,-2.8577,-2.8353,-2.8179,-2.8179,-2.8305,-2.8391,0.0,0.0,0.0,0.0,0.0,0.0,0.0,0.0,0.0,0.0,-2.0398,-2.1069,-2.1315,-2.082,-2.0468,-2.0548,-2.2412,-2.4298,-2.6026,-2.8831,-3.1022,-3.242,-3.2986,-3.348,-3.3881,-3.4095,-3.4349,-3.4643,-3.4937,-3.5084,-3.5084,-3.5084,-3.5084,-3.507,-3.499,-3.483,-3.4629,-3.4322,-3.4028,-3.3708,-3.3156,-3.2452,-3.1797,-3.1209,-3.0114,-2.8885,-2.8965,-2.823,0.0,0.0,-2.64,-2.62,-2.6373,-2.6131,-2.5703,-2.5451,-2.5331,-2.5184,-2.4823,-2.4583,-2.4502,-2.4743,-2.5625,-2.6546,-2.6747,-2.7403,-2.8085,-2.8674,-2.9499,-3.0247,-3.0541,-3.1363,-3.2166,-3.2808,-3.3253,-3.3748,-3.4242,-3.4509,-3.4563,-3.4349,-3.4629,-3.495,-3.5244,-3.5431,-3.5805,-3.6233,-3.634,-3.6513,-3.6794,-3.6647,-3.6433,-3.6086,-3.5912,-3.5631,-3.5204,-3.4696,-3.4402,-3.4309,-3.3788,-3.3494,-3.3387,-3.2862,-3.2367,-3.1925,-3.1116,-3.0795,-3.0728,-2.9847,-2.9312,-2.8961,-2.8724,-2.846,-2.8179,-2.8179,-2.8179,-2.8138,0.0,0.0,0.0,0.0,0.0,0.0,0.0,0.0,0.0,0.0,0.0,0.0,0.0,-2.0174,-1.9947,-2.0197,-2.1871,-2.3683,-2.5424,-2.8043,-3.0301,-3.2038,-3.2679,-3.3267,-3.3868,-3.3895,-3.4042,-3.4336,-3.4629,-3.4829,-3.4829,-3.4829,-3.4829,-3.4815,-3.4469,-3.4336,-3.4309,-3.4028,-3.3721,-3.3374,-3.2848,-3.2038,-3.1196,-3.0608,-2.9155,-2.7416,-2.7655,0.0,0.0,0.0,-2.4679,-2.4613,-2.4382,-2.4676,0.0,-2.5128,-2.489,-2.4506,-2.3968,-2.4459,-2.5302,-2.6106,-2.6987,-2.7869,-2.8708,-2.9192,-2.9579,-3.0212,-3.0587,-3.0849,-3.1142,-3.1917,-3.2581,-3.2607,-3.3343,-3.3975,-3.4282,-3.4322,-3.4336,-3.4322,-3.4082,-3.4042,-3.4336,-3.5071,-3.5631,-3.5658,-3.5925,-3.6219,-3.65,-3.5979,-3.5792,-3.6059,-3.5525,-3.5217,-3.5191,-3.4897,-3.4603,-3.4322,-3.4015,-3.3708,-3.3387,-3.2862,-3.2581,-3.25,-3.1303,-3.0795,-3.0728,-2.9847,-2.9312,-2.8961,-2.8724,-2.846,-2.8179,-2.8179,-2.8179,-2.8138,0.0,0.0,0.0,0.0,0.0,0.0,0.0,0.0,0.0,0.0,0.0,0.0,0.0,0.0,0.0,0.0,-2.1234,-2.2786,-2.4529,-2.6934,-2.9005,-3.0581,-3.2005,-3.2835,-3.3036,-3.3587,-3.3935,-3.4028,-3.4322,-3.4469,-3.4469,-3.4469,-3.4469,-3.4469,-3.4362,-3.4215,-3.4015,-3.3708,-3.3173,-3.2492,-3.1904,-3.1142,-3.0274,-2.9486,-2.815,-2.6613,0.0,0.0,0.0,0.0,-2.3006,-2.3145,-2.3322,-2.3313,-2.3313,-2.3313,-2.3808,-2.4436,-2.4823,-2.5571,-2.6493,-2.7589,-2.8377,-2.9018,-2.9513,-2.9847,-3.0172,-3.036,-3.048,-3.0587,-3.0635,-3.1209,-3.1797,-3.2185,-3.3173,-3.3988,-3.4282,-3.4656,-3.4616,-3.3777,-3.4175,-3.4269,-3.3761,-3.4349,-3.5004,-3.5591,-3.5725,-3.5899,-3.6206,-3.6032,-3.5885,-3.5778,-3.5591,-3.5297,-3.4962,-3.4616,-3.4322,-3.4028,-3.3721,-3.3307,-3.2875,-3.2688,-3.238,-3.1965,-3.1129,-3.0795,-3.0728,-2.9847,-2.9312,-2.8961,-2.8724,-2.846,-2.8179,-2.8179,-2.8179,-2.8165,0.0,0.0,0.0,0.0,0.0,0.0,0.0,0.0,0.0,0.0,0.0,0.0,0.0,0.0,0.0,0.0,0.0,-2.185,-2.3166,-2.5264,-2.7108,-2.8591,-2.9847,-3.0694,-3.1015,-3.1376,-3.173,-3.2158,-3.2545,-3.2906,-3.3227,-3.3427,-3.3467,-3.3374,-3.3374,-3.2868,-3.206,-3.2464,-3.1618,-3.0109,-3.024,-2.9566,-2.8417,-2.7642,-2.6426,0.0,0.0,0.0,0.0,-2.1676,-2.171,-2.1964,-2.2091,-2.2231,-2.2425,-2.2652,-2.3581,-2.4756,-2.5838,-2.6707,-2.7575,-2.8778,-2.9446,-2.99,-3.0301,-3.0528,-3.0635,-3.0587,-3.056,-3.0493,-3.0247,-3.0595,-3.1102,-3.169,-3.2706,-3.3587,-3.4095,-3.4496,-3.4456,-3.3694,-3.4002,-3.4095,-3.3627,-3.3935,-3.4442,-3.511,-3.5257,-3.5444,-3.5738,-3.5765,-3.5725,-3.5578,-3.5525,-3.5244,-3.4815,-3.4469,-3.4122,-3.3721,-3.3507,-3.3213,-3.2902,-3.2688,-3.2393,-3.1992,-3.1249,-3.0889,-3.0742,-3.0074,-2.9499,-2.8975,-2.8788,-2.8511,-2.8179,-2.8179,-2.8179,-2.8179,0.0,0.0,0.0,0.0,0.0,0.0,0.0,0.0,0.0,0.0,0.0,0.0,0.0,0.0,0.0,0.0,0.0,0.0,-2.1438,-2.3092,-2.473,-2.6172,-2.6587,-2.7175,-2.8058,-2.7576,-2.7816,-2.8908,-2.9513,-3.0207,-3.0989,-3.161,-3.173,-3.151,-3.1537,-3.0471,-2.8772,-3.0361,-2.9247,-2.6608,-2.7952,-2.7428,-2.5864,-2.5288,0.0,0.0,0.0,0.0,0.0,-2.0668,-2.0869,-2.1096,-2.0886,-2.1577,-2.2571,-2.3198,-2.4262,-2.5504,-2.6961,-2.7831,-2.8593,-2.9713,-3.0221,-3.0614,-3.1142,-3.1189,-3.1116,-3.0822,-3.0715,-3.0474,0.0,-3.0047,-3.0461,-3.1036,-3.1944,-3.2929,-3.3761,-3.3921,-3.3935,-3.3895,-3.3641,-3.3587,-3.3855,-3.3895,-3.4028,-3.4295,-3.4603,-3.4949,-3.5177,-3.5191,-3.5324,-3.5591,-3.5338,-3.5057,-3.4815,-3.4456,-3.4002,-3.3414,-3.3414,-3.34,-3.3347,-3.2848,-3.2581,-3.25,-3.1583,-3.1049,-3.0768,-3.048,-2.9793,-2.8988,-2.8961,-2.8644,-2.8179,-2.8179,-2.8179,-2.8179,0.0,0.0,0.0,0.0,0.0,0.0,0.0,0.0,0.0,0.0,0.0,0.0,0.0,0.0,0.0,0.0,0.0,0.0,-1.9456,-2.143,-2.302,0.0,0.0,0.0,0.0,0.0,0.0,-2.7722,-2.7911,-2.8098,-2.8283,-2.8644,-2.8778,-2.8724,-2.8981,-2.8814,-2.8352,-2.8509,-2.7749,-2.6429,0.0,-2.5972,-2.493,0.0,0.0,0.0,0.0,0.0,0.0,-2.0494,-2.0828,-2.1569,-2.2158,-2.2853,-2.3581,-2.4396,-2.5663,-2.6921,-2.7737,-2.9035,-3.0301,-3.1036,-3.1323,-3.1483,-3.1797,-3.137,-3.0822,-3.0574,-2.9637,-2.8687,-2.8056,-2.8551,-2.9245,-2.9833,-3.1583,-3.3106,-3.3788,-3.4456,-3.4616,-3.3961,-3.4202,-3.4282,-3.3921,-3.4082,-3.4242,-3.4309,-3.4603,-3.4949,-3.5177,-3.5191,-3.5231,-3.5311,-3.5231,-3.5057,-3.4815,-3.4255,-3.3801,-3.3414,-3.3414,-3.3187,-3.2808,-3.2661,-3.2353,-3.1898,-3.1196,-3.0862,-3.0715,-2.9766,-2.9202,-2.8948,-2.8551,-2.8326,-2.8179,-2.8179,-2.8179,-2.8179,0.0,0.0,0.0,0.0,0.0,0.0,0.0,0.0,0.0,0.0,0.0,0.0,0.0,0.0,0.0,0.0,0.0,0.0,0.0,-1.915,-2.0535,0.0,0.0,0.0,0.0,0.0,0.0,0.0,0.0,0.0,0.0,-2.6213,-2.6293,-2.6172,-2.6466,-2.6148,-2.5402,0.0,0.0,0.0,0.0,0.0,0.0,0.0,0.0,0.0,0.0,0.0,0.0,0.0,-2.171,-2.2318,-2.3201,-2.3991,-2.473,-2.5784,-2.6894,-2.8043,-2.8928,-3.0172,-3.1263,-3.1631,-3.177,-3.1797,-3.1583,-3.1142,-3.0448,-2.9289,-2.8486,-2.7697,-2.668,-2.7335,-2.8297,-2.9152,-3.1036,-3.2746,-3.3748,-3.4416,-3.4683,-3.4309,-3.4614,-3.4695,-3.436,-3.4416,-3.4563,-3.4696,-3.4736,-3.4882,-3.5004,-3.5124,-3.5191,-3.5191,-3.507,-3.4803,-3.4441,-3.3908,-3.3587,-3.3414,-3.3414,-3.324,-3.2919,-3.2714,-3.242,-3.2072,-3.1483,-3.1036,-3.0742,-3.0087,-2.9455,-2.8961,-2.8671,-2.8419,-2.8179,-2.8179,-2.8179,-2.8179,0.0,0.0,0.0,0.0,0.0,0.0,0.0,0.0,0.0,0.0,0.0,0.0,0.0,0.0,0.0,0.0,0.0,0.0,0.0,0.0,0.0,0.0,0.0,0.0,0.0,0.0,0.0,0.0,0.0,0.0,0.0,0.0,0.0,0.0,0.0,0.0,0.0,0.0,0.0,0.0,0.0,0.0,0.0,0.0,0.0,0.0,0.0,0.0,0.0,0.0,-2.3081,-2.3255,-2.4235,-2.513,-2.6039,-2.7255,-2.8163,-2.9072,-3.0226,-3.1162,-3.1845,-3.1885,-3.1971,-3.1891,-3.1089,-3.0662,-2.9833,-2.775,-2.7281,-2.6894,-2.5585,-2.6333,-2.7549,-2.8735,-3.0488,-3.2246,-3.3734,-3.4189,-3.4496,-3.479,-3.4869,-3.4869,-3.4869,-3.4869,-3.4923,-3.5177,-3.4963,-3.4869,-3.4869,-3.5057,-3.5191,-3.5191,-3.495,-3.4536,-3.3948,-3.3668,-3.3494,-3.3414,-3.3414,-3.3374,-3.328,-3.2822,-3.2554,-3.2447,-3.1898,-3.1303,-3.0782,-3.0715,-3.0034,-2.8988,-2.8948,-2.8644,-2.8179,-2.8179,-2.8179,-2.8179,0.0,0.0,0.0,0.0,0.0,0.0,0.0,0.0,0.0,0.0,-1.2108,-1.1897,0.0,0.0,0.0,0.0,0.0,0.0,0.0,0.0,0.0,0.0,0.0,0.0,0.0,0.0,0.0,0.0,0.0,0.0,0.0,0.0,0.0,0.0,0.0,0.0,0.0,0.0,0.0,0.0,0.0,0.0,0.0,0.0,0.0,0.0,0.0,0.0,0.0,0.0,-2.3968,-2.4249,-2.5865,-2.68,-2.7549,-2.8751,-2.9597,-3.0253,-3.0889,-3.1717,-3.25,-3.2741,-3.2425,-3.1998,-3.161,-3.0052,0.0,0.0,-2.6146,-2.4973,-2.4529,-2.5585,-2.7014,-2.8444,-3.0368,-3.2278,-3.4002,-3.4496,-3.479,0.0,-3.5124,-3.5124,-3.5124,-3.5124,-3.5137,-3.5191,-3.5151,-3.5124,-3.5124,-3.5164,-3.5191,-3.5191,-3.5151,-3.4843,-3.4255,-3.4189,-3.3908,-3.3414,-3.3414,-3.316,-3.2741,-3.2648,-3.2326,-3.1845,-3.145,-3.1102,-3.0755,-3.0261,-2.9659,-2.8975,-2.8778,-2.8457,-2.8179,-2.8179,-2.8179,-2.8179,0.0,0.0,0.0,0.0,0.0,0.0,0.0,-1.2052,-1.2182,-1.254,-1.2515,-1.2353,-1.2085,-1.189,0.0,0.0,0.0,0.0,0.0,0.0,0.0,0.0,0.0,0.0,0.0,-1.744,-1.8214,-1.8983,0.0,0.0,0.0,-2.0,0.0,0.0,0.0,0.0,0.0,0.0,0.0,0.0,0.0,0.0,0.0,0.0,0.0,0.0,0.0,0.0,0.0,0.0,-2.4022,-2.4997,-2.6907,-2.7923,-2.8604,-2.9677,-3.0354,-3.0942,-3.1517,-3.2211,-3.2848,-3.2995,-3.2425,-3.1677,-3.0929,0.0,0.0,-2.6172,-2.5104,-2.4275,-2.3799,-2.4943,-2.6373,-2.7696,-2.9513,-3.137,-3.3146,-3.3774,-3.4282,-3.4897,-3.511,-3.5191,-3.5191,-3.5191,-3.5191,-3.5191,-3.5191,-3.5191,-3.5191,-3.5191,-3.5124,-3.4977,-3.4817,-3.4536,-3.4095,-3.3935,-3.3708,-3.3414,-3.3414,-3.3187,-3.2808,-3.2661,-3.2353,-3.1864,-3.1423,-3.1062,-3.0755,-3.0327,-2.9713,-2.8988,-2.8841,-2.8551,-2.8179,-2.8179,-2.8179,-2.8179,0.0,0.0,0.0,0.0,0.0,0.0,0.0,-1.2337,-1.2515,-1.2921,-1.3092,-1.2978,-1.2523,-1.2158,-1.1929,0.0,0.0,0.0,0.0,0.0,0.0,0.0,0.0,0.0,0.0,0.0,0.0,-1.7398,-1.7197,0.0,0.0,0.0,0.0,0.0,-1.9217,0.0,0.0,0.0,0.0,0.0,0.0,0.0,0.0,0.0,0.0,0.0,0.0,0.0,0.0,0.0,-2.3723,-2.5037,-2.7015,-2.8203,-2.9081,-3.0007,-3.0675,-3.1289,-3.2011,-3.2585,-3.2986,-3.3053,-3.2318,-3.1289,-3.0167,-2.8577,0.0,-2.4973,-2.4249,-2.3821,-2.3487,-2.4409,-2.5705,0.0,-2.8591,-3.0234,-3.2313,-3.2986,-3.3681,0.0,-3.5017,0.0,-3.5191,-3.5191,-3.5191,-3.5191,-3.5191,-3.5191,-3.5191,-3.5137,-3.503,-3.4909,-3.4509,-3.4215,-3.3975,-3.3668,-3.348,-3.3414,-3.3414,-3.3227,-3.2929,-3.2701,-3.2393,-3.1984,-3.1517,-3.1116,-3.0768,-3.052,-2.9833,-2.8988,-2.8921,-2.8617,-2.8179,-2.8179,-2.8179,-2.8179,0.0,0.0,0.0,0.0,0.0,0.0,0.0,-1.2474,-1.2791,-1.3447,-1.3441,-1.3296,-1.3043,-1.2735,-1.2328,0.0,0.0,0.0,0.0,0.0,0.0,0.0,0.0,0.0,0.0,0.0,0.0,-1.5809,-1.5787,0.0,0.0,0.0,0.0,0.0,0.0,-1.7771,-1.7985,0.0,0.0,0.0,0.0,0.0,0.0,0.0,0.0,0.0,0.0,0.0,0.0,0.0,0.0,-2.3719,-2.5277,-2.7081,-2.8818,-2.97,0.0,0.0,-3.2246,-3.2781,-3.304,-3.3307,-3.2318,-3.1036,-3.0127,0.0,-2.5877,-2.4799,-2.3754,-2.3174,-2.3669,-2.4062,-2.505,-2.7295,0.0,-2.9343,-3.2193,-3.2875,-3.3504,-3.4681,0.0,0.0,-3.5191,-3.5191,-3.5191,-3.5191,-3.5191,-3.5191,-3.5191,-3.495,-3.4962,-3.5151,-3.4616,-3.4309,-3.4282,-3.3988,-3.3694,-3.3414,-3.3414,-3.312,-3.2634,-3.2607,-3.2286,-3.1751,-3.1698,-3.1316,-3.0768,-3.052,-2.9833,-2.8975,-2.8751,-2.8444,-2.8179,-2.8179,-2.8179,-2.8179,0.0,0.0,0.0,0.0,0.0,0.0,-1.2337,-1.2466,-1.2743,-1.3677,-1.3734,-1.366,-1.3587,-1.3296,-1.2735,0.0,0.0,0.0,0.0,0.0,0.0,0.0,0.0,0.0,0.0,0.0,-1.3704,-1.447,-1.447,0.0,0.0,0.0,0.0,0.0,0.0,-1.6639,-1.6722,0.0,0.0,0.0,0.0,0.0,0.0,0.0,0.0,0.0,0.0,0.0,-2.1176,-2.1643,0.0,0.0,-2.3527,-2.4957,0.0,0.0,-2.9766,-3.0969,-3.1845,-3.2661,-3.3267,-3.3387,-3.2051,-3.0515,-2.982,0.0,-2.5262,-2.4529,-2.3567,-2.3081,-2.3696,-2.3897,-2.4579,-2.6399,0.0,0.0,-2.986,-3.0581,-3.155,-3.3276,-3.3841,-3.4402,-3.5124,-3.5191,-3.5191,-3.5191,-3.5191,-3.5191,-3.5191,-3.4976,-3.4869,-3.4989,-3.4362,-3.4055,-3.4055,-3.3748,-3.3534,-3.3414,-3.3414,-3.3106,-3.2594,-3.2594,-3.2273,-3.1698,-3.1303,-3.1009,-3.0755,-3.0287,-2.9673,-2.8988,-2.8868,-2.8564,-2.8179,-2.8179,-2.8179,-2.8179,0.0,0.0,0.0,0.0,0.0,-1.1549,-1.2328,-1.2442,-1.2775,-1.3628,-1.379,-1.3823,-1.3823,-1.3409,-1.2865,-1.2108,0.0,0.0,0.0,0.0,0.0,0.0,0.0,0.0,0.0,0.0,-1.2251,-1.3135,-1.319,-1.3641,0.0,0.0,-1.471,-1.5046,0.0,0.0,0.0,0.0,0.0,0.0,0.0,0.0,0.0,0.0,0.0,0.0,0.0,0.0,0.0,0.0,0.0,0.0,0.0,0.0,0.0,0.0,-2.8861,-3.0327,-3.1183,-3.2265,-3.3173,-3.3267,-3.181,-3.0253,0.0,0.0,-2.4943,-2.4436,-2.3621,-2.318,-2.383,-2.387,-2.4258,0.0,0.0,-2.6519,-2.835,-2.9112,-3.0186,-3.1992,-3.2666,-3.3454,-3.4563,-3.499,-3.5191,-3.5191,-3.5191,-3.5164,-3.507,-3.479,-3.4721,-3.4815,-3.4108,-3.3788,-3.3881,-3.3574,-3.3414,-3.3414,-3.3414,-3.3106,-3.2594,-3.2594,-3.2219,-3.1517,-3.1102,-3.0822,-3.0621,-3.0127,-2.9619,-2.9121,-2.9028,-2.8778,-2.8446,-2.8446,-2.8393,-2.8326,0.0,0.0,0.0,0.0,0.0,0.0,-1.1949,-1.2459,-1.2929,-1.3362,-1.3539,-1.3609,-1.3609,-1.3003,-1.2596,-1.2588,0.0,0.0,0.0,0.0,0.0,0.0,0.0,0.0,0.0,0.0,-1.1806,-1.1806,-1.1947,-1.1969,-1.1845,-1.1977,-1.2625,-1.3725,0.0,0.0,0.0,0.0,0.0,0.0,0.0,0.0,0.0,0.0,0.0,0.0,0.0,0.0,0.0,0.0,0.0,0.0,0.0,-2.2439,-2.3388,0.0,-2.7468,-2.8951,-3.0408,-3.1711,-3.2674,-3.2955,-3.1711,-3.0253,0.0,0.0,-2.4997,-2.4653,-2.3892,-2.3465,-2.4088,-2.3968,-2.4155,-2.5331,-2.5518,0.0,-2.831,-2.9112,-2.9913,-3.1102,-3.1757,-3.2465,-3.3347,-3.4496,-3.5191,-3.5191,-3.5191,-3.507,-3.4829,-3.4482,-3.4456,-3.4802,-3.3881,-3.3574,-3.3881,-3.3574,-3.3414,-3.3414,-3.3414,-3.3106,-3.2594,-3.2594,-3.2112,-3.1176,-3.1223,-3.0889,-3.0386,-3.0047,-2.974,-2.9446,-2.9108,-2.8988,-2.8988,-2.8988,-2.8801,-2.8604,0.0,0.0,0.0,0.0,0.0,0.0,0.0,-1.2077,-1.2328,-1.2896,-1.2946,-1.3051,-1.3417,-1.2955,-1.2596,-1.2596,0.0,0.0,0.0,0.0,0.0,0.0,0.0,0.0,0.0,0.0,-1.1833,-1.1947,-1.1973,-1.2038,-1.2134,-1.203,-1.218,-1.2542,-1.2453,-1.2436,0.0,0.0,0.0,0.0,0.0,0.0,0.0,0.0,0.0,0.0,0.0,0.0,0.0,0.0,0.0,0.0,0.0,0.0,0.0,-2.3394,-2.5438,-2.7535,-2.8203,-2.9436,-3.0421,-3.0314,-2.9566,-2.8741,-2.8138,-2.6627,-2.5184,-2.4489,-2.3955,-2.3741,-2.4128,-2.3794,-2.4048,-2.5825,-2.5611,0.0,-2.7722,-2.8671,-2.9619,-3.0795,-3.2706,-3.4028,-3.4309,-3.4857,-3.5191,-3.5191,-3.5191,-3.507,-3.4829,-3.4482,-3.4269,-3.4175,-3.3668,-3.3454,-3.3561,-3.3467,-3.3414,-3.3414,-3.3213,-3.2919,-3.2581,-3.238,-3.1984,-3.1517,-3.1316,-3.1116,-3.0915,-3.0421,-3.0047,-2.9753,-2.9459,-2.9098,-2.8751,-2.8751,-2.8551,-2.8326,0.0,0.0,0.0,0.0,0.0,0.0,0.0,-1.1857,-1.2028,-1.2443,-1.2434,-1.2572,-1.3108,-1.2661,-1.2376,-1.258,0.0,0.0,0.0,0.0,0.0,0.0,0.0,0.0,0.0,-1.1806,-1.1922,-1.2231,-1.2264,-1.2394,-1.2605,-1.2556,-1.2393,-1.2102,-1.2028,-1.1929,0.0,0.0,0.0,0.0,0.0,0.0,-1.2898,0.0,0.0,0.0,0.0,0.0,0.0,0.0,0.0,0.0,0.0,0.0,0.0,0.0,-2.3634,-2.5398,-2.6519,-2.7898,-2.8991,-2.8988,-2.8497,-2.7924,-2.755,0.0,-2.5064,-2.4623,-2.4209,-2.3995,-2.4168,-2.3901,-2.4075,-2.5358,-2.5291,-2.5571,-2.7001,-2.8177,-2.9432,-3.0942,-3.2973,-3.4295,-3.4467,-3.4803,-3.5084,-3.5191,-3.499,-3.479,-3.4603,-3.4322,-3.4015,-3.3721,-3.3414,-3.3253,-3.3253,-3.3253,-3.3187,-3.308,-3.3013,-3.2772,-3.242,-3.2185,-3.1877,-3.149,-3.1303,-3.1122,0.0,-3.06,-3.0293,-3.006,-2.9766,-2.9419,-2.9085,-2.8978,-2.8738,-2.8513,0.0,0.0,0.0,0.0,0.0,0.0,0.0,0.0,-1.1981,-1.1981,-1.1981,-1.2175,-1.2678,-1.2174,-1.2002,-1.2499,0.0,0.0,0.0,0.0,0.0,0.0,0.0,0.0,0.0,-1.1823,-1.2075,-1.258,-1.2743,-1.2896,-1.3116,-1.3321,-1.3036,-1.2345,-1.2328,-1.2125,0.0,0.0,0.0,0.0,-1.2767,-1.2807,0.0,0.0,0.0,0.0,0.0,0.0,0.0,0.0,0.0,0.0,0.0,0.0,0.0,0.0,0.0,0.0,0.0,-2.6787,-2.8005,-2.8524,-2.807,-2.7482,-2.7455,0.0,0.0,-2.4943,-2.4556,-2.4195,-2.4249,-2.4209,-2.4222,-2.4369,-2.481,-2.5489,-2.636,-2.7802,-2.9513,-3.1604,-3.2786,-3.3587,-3.3855,-3.4442,-3.4883,-3.511,-3.4643,-3.4336,-3.4295,-3.4042,-3.3748,-3.3427,-3.3106,-3.2959,-3.2973,-3.3,-3.2902,-3.2594,-3.2875,-3.2652,-3.2104,-3.2078,-3.1757,-3.1176,-3.1176,-3.1062,-3.0768,-3.052,-3.04,-3.0373,-3.0034,-2.99,-2.9847,-2.9579,-2.9299,-2.8961,0.0,0.0,0.0,0.0,0.0,0.0,0.0,0.0,0.0,0.0,-1.1833,-1.1912,-1.2012,-1.1874,-1.1855,0.0,0.0,0.0,0.0,0.0,0.0,0.0,0.0,0.0,0.0,-1.1906,-1.2101,-1.2369,-1.2653,-1.2961,-1.3337,-1.3386,-1.3133,-1.2669,-1.2564,-1.2304,0.0,0.0,0.0,0.0,-1.2767,-1.2807,0.0,0.0,0.0,0.0,-1.488,-1.5707,0.0,0.0,0.0,0.0,0.0,0.0,0.0,0.0,-2.1683,-2.2258,-2.3033,0.0,-2.4874,-2.497,-2.5184,-2.5253,0.0,-2.4786,0.0,0.0,0.0,0.0,-2.4756,-2.4329,-2.4382,-2.5959,-2.5945,-2.6172,-2.7241,-2.9058,-3.0955,-3.2786,-3.3654,-3.4042,-3.3895,-3.4616,-3.4937,-3.4549,-3.4603,-3.4469,-3.4015,-3.3921,-3.3748,-3.3427,-3.2969,-3.2808,-3.2973,-3.32,-3.3053,-3.2594,-3.2661,-3.25,-3.2091,-3.1877,-3.157,-3.1176,-3.1176,-3.1062,-3.0768,-3.052,-3.04,-3.0373,-3.0034,-2.978,-2.9579,-2.9513,-2.9299,-2.8988,0.0,0.0,0.0,0.0,0.0,0.0,0.0,0.0,0.0,0.0,0.0,0.0,0.0,0.0,0.0,0.0,0.0,0.0,0.0,0.0,0.0,0.0,0.0,0.0,-1.1806,-1.1866,-1.2125,-1.2516,-1.271,-1.3066,-1.3612,-1.353,-1.3228,-1.2791,-1.2475,-1.2255,0.0,0.0,0.0,0.0,-1.2767,0.0,0.0,0.0,0.0,0.0,-1.439,-1.4723,0.0,-1.7968,-1.929,-1.9865,0.0,0.0,0.0,0.0,-2.143,-2.189,-2.2138,-2.318,-2.4195,-2.4379,-2.4609,-2.4796,-2.4636,0.0,0.0,0.0,0.0,0.0,-2.4569,-2.4396,-2.4623,-2.5999,-2.6186,-2.6841,-2.87,-3.0354,-3.1944,-3.3454,-3.4042,-3.4255,-3.4095,-3.4402,-3.4523,-3.4336,-3.4215,-3.4068,-3.3895,-3.3627,-3.3387,-3.3213,-3.2835,-3.2741,-3.2973,-3.2866,-3.2652,-3.2393,-3.2393,-3.2185,-3.1891,-3.1791,-3.1503,-3.1176,-3.1176,-3.1129,-3.0969,-3.0675,-3.0555,-3.0528,-3.0234,-2.994,-2.9673,-2.9539,-2.9379,-2.9219,0.0,0.0,0.0,0.0,0.0,0.0,0.0,0.0,0.0,0.0,0.0,0.0,0.0,0.0,0.0,0.0,0.0,0.0,0.0,0.0,0.0,0.0,0.0,-1.1823,-1.1847,-1.1847,-1.2125,-1.2726,-1.2856,-1.3253,-1.3904,-1.3828,-1.3496,-1.2904,-1.2394,-1.2216,0.0,0.0,0.0,0.0,-1.2807,0.0,0.0,0.0,0.0,0.0,0.0,0.0,0.0,-1.6498,-1.7972,-1.8676,-1.9618,0.0,0.0,0.0,0.0,0.0,-2.2064,-2.338,-2.4679,-2.473,-2.4836,-2.4917,-2.4836,0.0,0.0,0.0,0.0,0.0,-2.4436,-2.4663,-2.4986,-2.5785,-2.6453,-2.7764,-3.0253,-3.145,-3.2545,-3.3748,-3.4108,-3.4255,-3.4255,-3.4068,-3.4015,-3.4175,-3.3748,-3.3561,-3.3734,-3.3253,-3.2959,-3.2969,-3.2674,-3.2661,-3.2955,-3.2465,-3.2171,-3.2038,-3.2131,-3.1998,-3.1711,-3.1711,-3.1476,-3.1156,-3.1156,-3.1116,-3.0962,-3.0755,-3.0662,-3.0635,-3.0381,-3.014,-2.9887,-2.9633,-2.9553,-2.9513,0.0,0.0,0.0,0.0,0.0,0.0,0.0,0.0,0.0,0.0,0.0,0.0,0.0,0.0,0.0,0.0,0.0,0.0,0.0,0.0,0.0,0.0,-1.1806,-1.1841,-1.1957,-1.1965,-1.2086,-1.2385,-1.3115,-1.3617,-1.3912,-1.4489,-1.4318,-1.3471,-1.3075,-1.2783,-1.2564,0.0,0.0,-1.2807,-1.2807,0.0,0.0,0.0,0.0,0.0,0.0,0.0,0.0,-1.5123,-1.6787,-1.8321,-1.9281,0.0,0.0,0.0,0.0,0.0,-2.2612,-2.3884,-2.4753,-2.3536,-2.3781,-2.4209,-2.3679,0.0,0.0,0.0,0.0,0.0,-2.5772,-2.5678,-2.5892,-2.7523,-2.85,-2.9579,-3.1283,-3.1837,-3.2545,-3.3748,-3.3921,-3.3948,-3.3948,-3.4135,-3.4055,-3.3587,-3.3721,-3.3614,-3.3146,-3.3026,-3.2915,-3.2674,-3.2367,-3.2318,-3.2661,-3.2808,-3.2478,-3.1791,-3.2286,-3.2246,-3.1711,-3.1711,-3.137,-3.0862,-3.0862,-3.0581,-3.0114,-3.0074,-3.0047,-3.0047,-3.0007,-2.9953,-2.9913,-2.986,-2.9847,-2.9847,0.0,0.0,0.0,0.0,0.0,0.0,0.0,0.0,0.0,0.0,0.0,0.0,0.0,0.0,0.0,0.0,0.0,0.0,0.0,0.0,0.0,-1.2222,-1.202,-1.1947,-1.1997,-1.2223,-1.2548,-1.2994,-1.3636,-1.4123,-1.4473,-1.4318,-1.3928,-1.3327,-1.297,-1.2751,-1.2613,-1.2726,-1.2807,-1.2807,0.0,0.0,0.0,0.0,0.0,0.0,0.0,0.0,0.0,0.0,-1.6026,-1.8209,-1.8362,0.0,0.0,0.0,0.0,0.0,-2.2345,-2.3474,-2.4436,-2.3754,-2.4489,-2.5317,-2.505,0.0,0.0,0.0,0.0,0.0,-2.6186,-2.656,-2.7268,-2.9102,-3.0132,-3.1002,-3.1784,-3.2291,-3.2839,-3.3547,-3.3627,-3.3627,-3.3627,-3.3748,-3.3708,-3.3427,-3.3547,-3.344,-3.3,-3.2875,-3.2661,-3.2318,-3.2024,-3.1979,-3.2112,-3.2567,-3.2514,-3.1904,-3.2072,-3.1979,-3.1711,-3.1711,-3.1343,-3.0795,-3.0795,-3.0555,-3.0154,-3.0154,-3.0154,-3.0154,-3.0154,-3.006,-2.9913,-2.9913,-2.9913,-2.9913,0.0,0.0,0.0,0.0,0.0,0.0,0.0,0.0,0.0,0.0,0.0,0.0,0.0,0.0,0.0,0.0,0.0,0.0,0.0,0.0,-1.202,-1.245,-1.2264,-1.2248,-1.237,-1.2588,-1.3019,-1.3666,-1.4188,-1.4676,-1.5177,-1.4326,-1.3717,-1.3271,-1.2946,-1.2735,-1.2637,-1.2742,-1.2807,-1.2807,0.0,0.0,0.0,0.0,0.0,0.0,0.0,0.0,0.0,0.0,0.0,0.0,0.0,0.0,0.0,-2.1163,-2.1536,-2.2251,-2.2365,-2.334,-2.4342,-2.4476,-2.5304,-2.6159,-2.6426,-2.6092,-2.5798,0.0,0.0,-2.6106,-2.6694,-2.7629,-2.8791,-3.0279,-3.1363,-3.2099,-3.2278,-3.2759,-3.3187,-3.3494,-3.3454,-3.344,-3.3507,-3.3454,-3.3414,-3.3414,-3.3347,-3.3187,-3.2942,-3.2648,-3.2353,-3.2011,-3.1831,-3.1711,-3.1711,-3.2166,-3.2273,-3.1998,-3.1965,-3.1845,-3.1711,-3.1711,-3.143,-3.0889,-3.0889,-3.0688,-3.04,-3.04,-3.036,-3.0306,-3.0306,-3.0114,-2.9913,-2.9913,-2.9913,-2.99,0.0,0.0,0.0,0.0,0.0,0.0,0.0,0.0,0.0,0.0,0.0,0.0,0.0,0.0,0.0,0.0,0.0,0.0,0.0,0.0,-1.1997,-1.2038,-1.2491,-1.2977,-1.348,-1.3222,-1.3327,-1.388,-1.4703,-1.535,-1.5739,-1.5177,-1.4505,-1.3831,-1.3508,-1.3124,-1.2783,-1.2799,-1.2807,-1.2807,-1.2807,0.0,0.0,0.0,0.0,0.0,0.0,0.0,0.0,0.0,0.0,0.0,0.0,0.0,-2.0539,-2.0551,-2.1611,-2.296,-2.3522,-2.4115,-2.4693,-2.5277,-2.5291,-2.5451,-2.6547,-2.6547,-2.664,-2.7777,0.0,-2.7362,-2.7951,-2.9236,-3.0346,-3.0702,-3.1957,-3.2893,-3.2906,-3.3187,-3.3494,-3.3814,-3.3587,-3.3534,-3.3828,-3.3587,-3.3414,-3.3414,-3.316,-3.2929,-3.2648,-3.234,-3.1998,-3.1751,-3.1724,-3.1711,-3.1711,-3.1751,-3.1764,-3.1751,-3.2286,-3.2246,-3.1711,-3.1711,-3.149,-3.1196,-3.1196,-3.0875,-3.04,-3.04,-3.0194,-2.9953,-2.9953,-2.994,-2.9913,-2.9913,-2.9913,-2.9873,0.0,0.0,0.0,0.0,0.0,0.0,0.0,0.0,0.0,0.0,0.0,0.0,0.0,0.0,0.0,0.0,0.0,0.0,0.0,0.0,-1.2069,-1.2483,-1.2621,-1.3027,-1.3755,-1.388,-1.4322,-1.5197,-1.5796,-1.5918,-1.5601,-1.483,-1.4213,-1.3682,-1.3212,-1.3019,-1.2986,-1.2848,-1.2864,-1.2986,-1.2848,-1.2807,0.0,0.0,0.0,0.0,0.0,0.0,0.0,0.0,-1.4212,-1.5642,-1.5389,-1.7812,-2.0641,-2.0243,-2.1433,-2.2947,-2.3174,-2.3901,-2.4693,-2.5144,-2.5571,-2.6253,-2.7615,-2.7989,-2.8323,-2.9356,-2.9383,-2.9249,-2.9245,-2.9905,-3.0614,-3.1283,-3.2265,-3.304,-3.3227,-3.3347,-3.3454,-3.3574,-3.348,-3.3454,-3.3574,-3.348,-3.3414,-3.3414,-3.3307,-3.312,-3.2875,-3.2581,-3.238,-3.226,-3.1912,-3.1805,-3.1931,-3.1944,-3.1851,-3.1724,-3.1938,-3.1938,-3.1711,-3.1711,-3.1503,-3.1176,-3.1176,-3.0902,-3.04,-3.04,-3.0181,-2.9913,-2.9913,-2.9913,-2.9913,-2.9913,-2.9913,-2.99,0.0,0.0,0.0,0.0,0.0,0.0,0.0,0.0,0.0,0.0,0.0,0.0,0.0,0.0,0.0,0.0,0.0,0.0,-1.1806,-1.1825,-1.2077,-1.2532,-1.2678,-1.3109,-1.3807,-1.4335,-1.496,-1.5667,-1.6178,-1.6105,-1.5496,-1.4716,-1.418,-1.3836,-1.3301,-1.3156,-1.3336,-1.31,-1.3043,-1.3076,-1.2872,-1.2807,0.0,0.0,0.0,0.0,0.0,0.0,0.0,0.0,-1.384,-1.4898,-1.476,-1.7261,-2.0052,-1.9253,-2.1123,-2.3323,-2.2776,-2.3582,-2.4693,-2.5117,-2.5732,-2.6734,-2.8591,-2.9098,-2.9486,-3.06,-3.052,-3.0181,-3.0074,-3.0266,-3.0694,-3.1577,-3.2412,-3.308,-3.3374,-3.3414,-3.3414,-3.3414,-3.3414,-3.3374,-3.328,-3.336,-3.3374,-3.328,-3.328,-3.3187,-3.2986,-3.2755,-3.2554,-3.246,-3.2059,-3.1851,-3.1971,-3.1971,-3.1864,-3.1711,-3.1711,-3.1711,-3.1711,-3.1711,-3.1557,-3.137,-3.137,-3.1036,-3.0547,-3.0547,-3.0274,-2.9913,-2.9913,-2.9913,-2.9913,-2.9913,-2.9913,-2.99,0.0,0.0,0.0,0.0,0.0,0.0,0.0,0.0,0.0,0.0,0.0,0.0,0.0,0.0,0.0,0.0,0.0,0.0,-1.1806,-1.1931,-1.1997,-1.1997,-1.271,-1.3262,-1.3593,-1.4497,-1.4998,-1.5006,-1.5691,-1.5813,-1.5496,-1.4952,-1.4603,-1.4363,-1.3844,-1.3706,-1.388,-1.3557,-1.3305,-1.3084,-1.288,-1.2807,-1.2807,0.0,0.0,0.0,0.0,0.0,0.0,0.0,-1.3133,-1.2994,-1.4055,0.0,0.0,-1.7404,-2.066,-2.4188,-2.2472,-2.3283,-2.4746,-2.5371,-2.5745,-2.6707,-2.9312,-2.97,-2.9913,-3.143,-3.0755,-3.002,-3.036,-3.0413,-3.0694,-3.1577,-3.2447,-3.308,-3.3374,-3.3414,-3.3414,-3.3414,-3.3414,-3.3293,-3.3013,-3.324,-3.3293,-3.3,-3.2986,-3.2986,-3.2986,-3.2755,-3.246,-3.2118,-3.2104,-3.1971,-3.1724,-3.1711,-3.1711,-3.1711,-3.1711,-3.1711,-3.1711,-3.1711,-3.1711,-3.1711,-3.1711,-3.133,-3.0795,-3.0782,-3.0448,-2.9913,-2.9913,-2.9913,-2.9913,-2.9913,-2.9913,-2.986,0.0,0.0,0.0,0.0,0.0,0.0,0.0,0.0,0.0,0.0,0.0,0.0,0.0,0.0,0.0,0.0,0.0,0.0,-1.1806,-1.1855,-1.1963,-1.2215,-1.2572,-1.2832,-1.3034,-1.3674,-1.4464,-1.535,-1.5569,-1.5318,-1.4711,-1.4464,-1.4237,-1.4058,-1.4034,-1.3977,-1.388,-1.3557,-1.3409,-1.3431,-1.3287,-1.3214,-1.323,0.0,0.0,0.0,0.0,0.0,0.0,0.0,0.0,0.0,-1.3587,0.0,0.0,-1.6743,-1.9355,-2.2275,-2.1397,-2.3013,-2.5037,-2.5424,-2.668,-2.8243,-2.986,-3.0212,0.0,0.0,-3.1824,-3.1116,-3.0996,-3.0969,-3.1129,-3.1644,-3.2286,-3.2888,-3.3347,-3.324,-3.3106,-3.3106,-3.3106,-3.3066,-3.2986,-3.324,-3.3374,-3.3293,-3.328,-3.328,-3.328,-3.3013,-3.2862,-3.2719,-3.2318,-3.2064,-3.1971,-3.177,-3.1711,-3.1711,-3.1711,-3.1711,-3.1711,-3.1711,-3.1711,-3.1711,-3.145,-3.1142,-3.0755,-3.0341,-3.0074,-2.99,-2.9686,-2.9619,-2.9619,-2.9619,-2.9486,-2.9268,0.0,0.0,0.0,0.0,0.0,0.0,0.0,0.0,0.0,0.0,-1.1806,-1.1806,0.0,0.0,0.0,0.0,0.0,0.0,0.0,0.0,-1.1898,-1.2182,-1.2369,-1.2678,-1.3115,-1.365,-1.4225,-1.4871,-1.5017,-1.483,-1.4335,-1.444,-1.4513,-1.4554,-1.4806,-1.4781,-1.4521,-1.4192,-1.3945,-1.3804,-1.3652,-1.3669,-1.3798,0.0,0.0,0.0,0.0,0.0,0.0,0.0,0.0,0.0,-1.3457,0.0,-1.6585,-1.5886,-1.8665,-2.1858,-2.1222,-2.3267,-2.5785,-2.6547,-2.7682,-2.9032,-3.0675,-3.1283,-3.1778,-3.2906,-3.2452,-3.1851,-3.1917,-3.1637,-3.153,-3.2005,-3.2367,-3.2714,-3.3013,-3.3013,-3.2973,-3.2973,-3.308,-3.3106,-3.2986,-3.324,-3.336,-3.3253,-3.324,-3.3293,-3.34,-3.3133,-3.2969,-3.2862,-3.2514,-3.2171,-3.1931,-3.1805,-3.161,-3.149,-3.149,-3.1436,-3.133,-3.1617,-3.161,-3.1476,-3.1062,-3.0782,-3.0581,-3.0114,-2.9913,-2.99,-2.9726,-2.9579,-2.9486,-2.9486,-2.9299,-2.9028,0.0,0.0,-1.1806,-1.1806,0.0,0.0,0.0,0.0,0.0,0.0,-1.1806,-1.1776,0.0,0.0,0.0,0.0,0.0,0.0,0.0,0.0,-1.1906,-1.2062,-1.2281,-1.2783,-1.3617,-1.4071,-1.418,-1.3855,-1.416,-1.4241,-1.414,-1.4705,-1.5122,-1.5504,-1.5804,-1.5772,-1.5463,-1.5065,-1.4656,-1.42,-1.401,-1.4156,-1.4403,-1.4286,0.0,0.0,0.0,0.0,0.0,0.0,0.0,0.0,-1.3569,-1.4666,-1.5712,-1.4884,-1.8305,-2.2202,-2.1456,-2.3823,-2.6814,-2.8243,-2.8764,-2.9486,-3.165,-3.2599,-3.3093,-3.336,-3.2772,-3.2372,-3.2879,-3.2332,-3.2005,-3.2514,-3.2594,-3.2607,-3.2634,-3.2835,-3.2946,-3.2973,-3.3213,-3.3267,-3.3,-3.324,-3.3293,-3.3,-3.3,-3.312,-3.336,-3.312,-3.2888,-3.2607,-3.2567,-3.2286,-3.1724,-3.1684,-3.1503,-3.1263,-3.1189,-3.1089,-3.0849,-3.1356,-3.1423,-3.1116,-3.0595,-3.0386,-3.0346,-3.0034,-2.99,-2.9873,-2.9873,-2.97,-2.9446,-2.9472,-2.9299,-2.9001,0.0,0.0,-1.1806,-1.1806,0.0,0.0,0.0,0.0,0.0,0.0,0.0,0.0,0.0,0.0,0.0,0.0,0.0,0.0,0.0,0.0,-1.2337,-1.2621,-1.3075,-1.348,-1.3839,-1.3685,-1.3598,-1.3516,-1.3701,-1.3763,-1.3739,-1.4265,-1.4776,-1.527,0.0,-1.5464,-1.5213,-1.4619,-1.4322,-1.4225,-1.4278,-1.4411,-1.4643,-1.4611,-1.4424,0.0,0.0,0.0,0.0,0.0,0.0,0.0,-1.375,-1.4088,-1.4334,-1.4134,-1.7135,-2.0526,-2.0274,-2.3583,-2.7362,-2.835,-2.9993,-3.1543,-3.2326,-3.2906,-3.3334,-3.34,-3.3267,-3.3093,-3.3,-3.2826,-3.2714,-3.2607,-3.2594,-3.2674,-3.2902,-3.2795,-3.2768,-3.2946,-3.3026,-3.3053,-3.2986,-3.324,-3.3293,-3.3,-3.3187,-3.324,-3.308,-3.3013,-3.2888,-3.2607,-3.2318,-3.2024,-3.1724,-3.1436,-3.141,-3.157,-3.1343,-3.1196,-3.1129,-3.1022,-3.0822,-3.0587,-3.0467,-3.0266,-3.0007,-2.994,-2.978,-2.9579,-2.9579,-2.9392,-2.9121,-2.9392,-2.9299,-2.9028,0.0,0.0,0.0,0.0,0.0,0.0,0.0,0.0,0.0,0.0,0.0,0.0,0.0,0.0,0.0,0.0,-0.9881,0.0,0.0,0.0,0.0,-1.2758,-1.3399,-1.3734,-1.3652,-1.3671,0.0,-1.3272,-1.322,-1.3358,-1.3625,-1.4241,-1.4905,-1.5594,0.0,-1.578,-1.5302,-1.4879,-1.4586,-1.4448,-1.4619,-1.4903,-1.5204,-1.5025,-1.4797,-1.4542,-1.4111,0.0,0.0,0.0,0.0,0.0,0.0,0.0,-1.3937,-1.4107,-1.6305,-1.8844,-1.9378,-2.293,-2.7087,-2.9495,-3.1303,-3.2599,-3.2893,-3.32,-3.3414,-3.3414,-3.3414,-3.336,-3.3213,-3.3066,-3.2929,-3.2648,-3.2474,-3.2433,-3.2532,-3.2594,-3.2701,-3.2995,-3.3106,-3.3187,-3.3187,-3.32,-3.3146,-3.2986,-3.2986,-3.2982,-3.2835,-3.2822,-3.2621,-3.2193,-3.2019,-3.169,-3.1249,-3.1102,-3.1022,-3.1082,-3.0889,-3.0742,-3.0595,-3.0595,-3.0547,-3.04,-3.0207,-3.006,-2.99,-2.9766,-2.9619,-2.9486,-2.9486,-2.9299,-2.9028,-2.9379,-2.9299,-2.9015,0.0,0.0,0.0,0.0,0.0,0.0,0.0,0.0,0.0,0.0,0.0,0.0,0.0,0.0,-0.8899,0.0,0.0,0.0,0.0,0.0,0.0,0.0,-1.3571,-1.3782,-1.3549,0.0,0.0,0.0,-1.2945,-1.3172,-1.3804,-1.4363,-1.5116,-1.6015,0.0,-1.6024,-1.5447,-1.51,-1.4838,-1.4586,-1.4795,-1.5177,0.0,0.0,0.0,-1.4868,-1.4464,-1.4253,-1.4164,-1.433,0.0,0.0,0.0,0.0,-1.4002,-1.4225,-1.5733,-1.751,-1.8564,-2.2279,-2.6829,-3.0729,-3.238,-3.304,-3.328,-3.3374,-3.3414,-3.3414,-3.3374,-3.3334,-3.3334,-3.3106,-3.2862,-3.2567,-3.2353,-3.2185,-3.2185,-3.2487,-3.2781,-3.3013,-3.3267,-3.3414,-3.3414,-3.3146,-3.2959,-3.2906,-3.2728,-3.2554,-3.2447,-3.2447,-3.2193,-3.161,-3.1591,-3.1289,-3.0795,-3.0742,-3.0621,-3.048,-3.0426,-3.0234,-3.0007,-3.0194,-3.0333,-3.0319,-3.002,-2.9913,-2.99,-2.9606,-2.9459,-2.9406,-2.9406,-2.9259,-2.9028,-2.9379,-2.9366,-2.9135,0.0,0.0,0.0,0.0,0.0,0.0,0.0,0.0,0.0,0.0,-1.0635,-0.9987,0.0,0.0,-0.8242,-0.9348,-0.9437,0.0,0.0,0.0,0.0,0.0,-1.3739,-1.3953,0.0,0.0,0.0,0.0,-1.323,-1.3579,-1.4562,-1.446,-1.4994,-1.5983,0.0,0.0,-1.5189,-1.4416,-1.405,-1.4026,-1.4249,-1.4513,0.0,0.0,0.0,0.0,-1.4099,-1.3953,-1.3985,-1.4282,-1.4379,0.0,0.0,0.0,-1.4115,-1.4002,-1.5496,-1.732,-1.7707,-2.2296,-2.776,-3.0888,-3.238,-3.2986,-3.3026,-3.3227,-3.3414,-3.3414,-3.3213,-3.304,-3.304,-3.2848,-3.2554,-3.2211,-3.2393,-3.2541,-3.2541,-3.2781,-3.3026,-3.332,-3.3387,-3.3414,-3.3414,-3.3146,-3.2929,-3.2674,-3.2621,-3.2367,-3.1858,-3.1831,-3.1637,-3.1289,-3.1036,-3.0875,-3.0795,-3.0587,-3.0574,-3.0728,-3.052,-3.0386,-3.0333,-3.0074,-2.998,-2.9967,-2.994,-2.9913,-2.99,-2.9606,-2.9325,-2.9055,-2.9055,-2.9028,-2.9028,-2.9379,-2.9619,-2.9766,0.0,0.0,0.0,0.0,0.0,0.0,0.0,0.0,0.0,0.0,0.0,-0.8663,0.0,0.0,-0.7052,-0.7644,-0.8274,-0.9535,0.0,0.0,0.0,0.0,0.0,0.0,0.0,0.0,0.0,-1.349,-1.3124,-1.3674,-1.5155,-1.493,-1.5367,-1.6324,0.0,0.0,0.0,0.0,0.0,0.0,0.0,0.0,0.0,0.0,0.0,0.0,0.0,0.0,-1.3953,-1.4273,-1.4395,-1.4427,-1.4651,0.0,0.0,0.0,-1.4773,-1.6027,-1.8333,-2.2172,-2.6332,-2.9615,-3.1715,-3.3026,-3.3187,-3.332,-3.3414,-3.3414,-3.3187,-3.2973,-3.2973,-3.2795,-3.2554,-3.242,-3.2367,-3.246,-3.2795,-3.2955,-3.3093,-3.3374,-3.3414,-3.3414,-3.3414,-3.3,-3.2795,-3.2835,-3.238,-3.1992,-3.1724,-3.1517,-3.1209,-3.0755,-3.0667,-3.0474,-3.0301,-3.0181,-3.0181,-3.0301,-3.0181,-3.0114,-3.0114,-2.998,-2.9913,-2.9913,-2.9913,-2.9913,-2.99,-2.9606,-2.9406,-2.9272,-2.9068,-2.9095,-2.9312,-2.9432,-2.9673,-2.9873,0.0,0.0,0.0,0.0,0.0,0.0,0.0,0.0,0.0,0.0,0.0,0.0,0.0,0.0,0.0,0.0,-0.7858,-0.9276,-1.1457,0.0,0.0,0.0,0.0,0.0,0.0,0.0,-1.3482,-1.3337,-1.3173,-1.3953,-1.5577,-1.5577,-1.6105,-1.7075,-1.6535,-1.595,0.0,0.0,0.0,0.0,0.0,0.0,0.0,0.0,0.0,0.0,0.0,0.0,-1.414,-1.4322,-1.4395,-1.4427,-1.4651,-1.4541,0.0,0.0,0.0,-1.4871,-1.8557,-2.1294,-2.4051,-2.795,-3.0531,-3.2297,-3.3114,-3.336,-3.3414,-3.3414,-3.324,-3.3066,-3.2986,-3.2795,-3.2594,-3.2594,-3.2474,-3.2478,-3.2919,-3.304,-3.3146,-3.328,-3.3374,-3.332,-3.3093,-3.2808,-3.2621,-3.2688,-3.1971,-3.153,-3.145,-3.1169,-3.0768,-3.0306,-3.0247,-3.014,-2.9913,-2.9913,-2.9913,-2.9913,-2.9913,-2.9913,-2.9913,-2.9913,-2.9873,-2.9806,-2.9887,-2.9873,-2.9793,-2.9579,-2.9486,-2.9459,-2.9108,-2.9219,-2.9472,-2.9392,-2.9553,-2.9753,0.0,0.0,0.0,0.0,0.0,0.0,0.0,0.0,0.0,0.0,0.0,0.0,0.0,-0.651,-0.7274,-0.9266,-0.9471,-1.0432,-1.2568,-1.2766,0.0,0.0,0.0,0.0,0.0,-1.3321,-1.3295,-1.3108,-1.3604,-1.4505,-1.5812,-1.6276,-1.7213,-1.8361,-1.7445,-1.6623,-1.5918,0.0,0.0,0.0,0.0,0.0,0.0,0.0,0.0,0.0,0.0,-1.4667,-1.4643,-1.4444,-1.4395,-1.4427,-1.4651,-1.4541,-1.433,0.0,0.0,0.0,-1.7454,-1.9052,-2.1073,-2.6283,-2.8583,-3.0177,-3.2521,-3.3213,-3.3414,-3.3414,-3.34,-3.3307,-3.3026,-3.2795,-3.2594,-3.2594,-3.2808,-3.2946,-3.2973,-3.3213,-3.3293,-3.3026,-3.324,-3.308,-3.2251,-3.2447,-3.2367,-3.1831,-3.1436,-3.1129,-3.0849,-3.0614,-3.0261,-2.9953,-2.994,-2.9927,-2.9913,-2.9913,-2.9913,-2.9913,-2.9913,-2.9913,-2.9913,-2.9913,-2.9766,-2.9526,-2.9793,-2.9766,-2.9499,-2.9486,-2.9486,-2.9459,-2.9108,-2.9219,-2.9446,-2.9121,-2.9245,-2.9419,0.0,0.0,0.0,0.0,0.0,0.0,0.0,0.0,0.0,0.0,0.0,0.0,0.0,-0.8484,-0.8778,-0.9543,-1.024,-1.1233,-1.27,-1.2807,0.0,0.0,0.0,0.0,0.0,-1.3449,-1.3457,-1.3305,-1.3465,-1.4261,-1.5618,-1.604,-1.6844,-1.7908,-1.7356,-1.6966,-1.6657,-1.5593,0.0,0.0,0.0,0.0,0.0,0.0,0.0,-1.6113,-1.5463,-1.5,-1.4716,-1.4757,-1.4554,0.0,0.0,0.0,0.0,0.0,-1.3893,-1.4424,-1.5764,-1.7618,-1.98,-2.2462,-2.5718,-2.8619,-2.9876,-3.1568,-3.2955,-3.3093,-3.2986,-3.2929,-3.3009,-3.2795,-3.2661,-3.2848,-3.2599,-3.2545,-3.2969,-3.2906,-3.2862,-3.2755,-3.2625,-3.2452,-3.2131,-3.1864,-3.169,-3.1711,-3.1049,-3.0702,-3.0795,-3.0341,-3.002,-2.9913,-2.9913,-2.9913,-2.9913,-2.9913,-2.9913,-2.9913,-2.9913,-2.9913,-2.9913,-2.9913,-2.9659,-2.9219,-2.9713,-2.9753,-2.9486,-2.9486,-2.9593,-2.9726,-2.9432,-2.9392,-2.9446,-2.9108,-2.9068,-2.9138,0.0,0.0,0.0,0.0,0.0,-0.6489,0.0,0.0,0.0,0.0,0.0,0.0,0.0,0.0,-0.9742,-1.0107,-1.1134,-1.2033,-1.2741,-1.2856,-1.297,-1.3092,0.0,0.0,0.0,-1.3723,-1.3731,-1.3465,-1.3736,-1.4367,-1.5391,-1.5869,-1.6663,-1.7668,-1.7169,-1.7128,0.0,0.0,-1.5796,-1.5504,-1.5382,-1.5577,-1.5967,-1.6097,-1.6365,-1.6609,-1.6096,-1.5578,-1.5155,-1.5155,-1.4879,0.0,0.0,0.0,0.0,0.0,0.0,0.0,-1.4673,0.0,0.0,-1.9947,-2.2715,-2.5635,-2.8038,-2.9896,-3.1408,-3.2643,-3.2808,-3.2835,-3.3066,-3.2848,-3.2661,-3.2848,-3.2505,-3.2385,-3.2835,-3.2714,-3.2554,-3.246,-3.2225,-3.1984,-3.169,-3.1396,-3.1223,-3.1269,-3.0734,-3.0493,-3.0635,-3.0181,-2.9913,-2.9913,-2.982,-2.982,-2.9913,-2.982,-2.982,-2.9913,-2.9913,-2.986,-2.9766,-2.9766,-2.9446,-2.8868,-2.9312,-2.9419,-2.9352,-2.9553,-2.974,-2.99,-2.97,-2.9566,-2.9459,-2.9259,-2.9015,-2.8828,0.0,-0.6489,-0.6489,-0.6489,-0.6489,-0.6522,-0.6552,0.0,0.0,0.0,0.0,0.0,0.0,0.0,0.0,-1.1195,-1.2229,-1.2823,-1.2815,-1.3003,-1.3092,-1.31,0.0,0.0,0.0,-1.4128,-1.4136,-1.3617,-1.4314,-1.4832,-1.5189,-1.5943,-1.6852,-1.7843,-1.699,-1.7185,-1.8119,-1.7729,-1.7335,-1.7039,-1.6282,-1.6104,-1.6405,-1.7104,-1.7161,-1.6825,-1.6817,-1.6477,-1.5966,-1.5658,-1.5375,0.0,0.0,0.0,0.0,0.0,0.0,0.0,0.0,0.0,0.0,-1.8936,-1.9655,-2.1059,-2.697,-2.8116,-2.8791,-3.182,-3.2643,-3.2937,-3.332,-3.2969,-3.2594,-3.2581,-3.2567,-3.2567,-3.2581,-3.2567,-3.246,-3.2104,-3.2078,-3.173,-3.0862,-3.1036,-3.0969,-3.044,-3.0386,-3.0386,-3.0386,-3.006,-2.99,-2.9887,-2.9619,-2.9606,-2.9887,-2.9619,-2.9619,-2.99,-2.99,-2.9753,-2.9486,-2.9486,-2.9165,-2.8617,-2.8631,-2.8791,-2.9041,-2.9615,-2.99,-2.99,-2.9913,-2.974,-2.9486,-2.9486,-2.9112,-2.8617,-0.5815,-0.6116,-0.6489,-0.6489,-0.6489,-0.6753,-0.7483,0.0,0.0,0.0,0.0,0.0,0.0,0.0,-1.267,-1.3099,-1.3282,-1.3269,-1.3043,-1.3068,-1.3157,-1.3321,-1.3685,-1.3945,-1.4026,-1.4257,-1.4201,-1.3831,-1.4164,-1.444,-1.463,0.0,0.0,-1.6966,-1.7226,-1.7372,-1.7331,-1.6186,-1.6178,-1.6809,-1.5966,-1.6154,-1.6893,-1.693,-1.7104,-1.7226,-1.7088,-1.6779,-1.6397,-1.6162,-1.5878,-1.552,0.0,0.0,0.0,0.0,0.0,0.0,-1.414,0.0,0.0,0.0,0.0,0.0,-2.0883,-2.2663,-2.4864,-2.846,-2.9187,-2.9926,-3.2386,-3.2701,-3.2527,-3.2265,-3.2099,-3.2032,-3.2198,-3.2086,-3.1797,-3.1503,-3.1463,-3.1209,-3.0587,-3.06,-3.0448,-3.0074,-3.0034,-3.0034,-3.0034,-2.9766,-2.9513,-2.9242,-2.9161,-2.9161,-2.9242,-2.9419,-2.9526,-2.9606,-2.9606,-2.9566,-2.9486,-2.9486,-2.9272,-2.8895,-2.9152,-2.9165,-2.9001,-2.9175,-2.9406,-2.9619,-2.9833,-2.974,-2.9486,-2.9486,-2.9245,-2.8881,-0.5934,-0.627,-0.6736,-0.7242,-0.7452,-0.7868,0.0,0.0,0.0,0.0,0.0,0.0,0.0,0.0,0.0,-1.4018,-1.3855,-1.3595,-1.3264,-1.3279,-1.3336,-1.3402,-1.3928,-1.4286,-1.4399,-1.4789,-1.4781,-1.4343,-1.4529,-1.4594,-1.4525,0.0,0.0,0.0,-1.6519,-1.6647,-1.6682,-1.5244,-1.5496,-1.6785,-1.6485,-1.6736,-1.7311,-1.7514,-1.7578,-1.7607,-1.7567,-1.7323,-1.7006,-1.6901,-1.6576,0.0,0.0,0.0,0.0,0.0,0.0,0.0,0.0,0.0,0.0,0.0,0.0,0.0,-1.8449,-1.9773,-2.1672,-2.5497,-2.7087,-2.841,-3.0645,-3.1583,-3.2064,-3.23,-3.1992,-3.173,-3.1891,-3.1677,-3.1423,-3.1203,-3.1009,-3.0728,-3.044,-3.0247,-3.01,-2.9927,-2.9806,-2.9686,-2.9508,-2.9513,-2.9352,-2.9001,-2.8881,-2.8868,-2.9001,-2.9085,-2.9179,-2.9299,-2.9419,-2.9419,-2.9299,-2.9432,-2.9259,-2.8828,-2.9045,-2.9018,-2.8828,-2.8948,-2.9219,-2.9499,-2.9673,-2.9633,-2.9499,-2.9619,-2.9392,-2.9015,0.0,-0.6711,-0.7187,-0.8473,-0.8988,-0.9526,0.0,0.0,0.0,0.0,0.0,0.0,0.0,0.0,0.0,0.0,0.0,-1.3839,-1.3516,-1.3555,-1.3512,-1.3443,-1.4221,-1.4684,-1.4708,-1.539,-1.5528,-1.5006,-1.513,-1.5019,-1.4773,0.0,0.0,0.0,-1.5439,-1.5618,-1.6073,-1.4887,-1.5317,-1.6785,-1.7214,-1.7506,-1.7749,-1.8356,-1.8347,-1.7965,-1.8095,-1.7894,-1.7582,-1.7561,-1.7198,-1.6473,0.0,0.0,0.0,0.0,-1.3697,0.0,0.0,0.0,0.0,0.0,-1.409,0.0,-1.7871,-1.8206,-1.8843,-2.2626,-2.5194,-2.7039,-2.8043,-2.9413,-3.0684,-3.1448,-3.1495,-3.1487,-3.1717,-3.1463,-3.1249,-3.1136,-3.0715,-3.0426,-3.036,-3.01,-2.994,-2.9873,-2.9633,-2.9339,-2.8961,-2.9272,-2.9285,-2.8908,-2.8684,-2.8684,-2.8895,-2.8724,-2.8738,-2.8948,-2.9259,-2.9245,-2.8961,-2.9272,-2.9112,-2.8657,-2.8657,-2.8671,-2.8724,-2.8908,-2.9192,-2.9446,-2.9499,-2.9513,-2.9526,-2.9806,-2.9535,-2.9135,-0.6747,-0.7065,-0.7802,-0.9685,-1.0233,-1.0874,0.0,0.0,0.0,0.0,0.0,0.0,0.0,0.0,0.0,0.0,0.0,0.0,0.0,-1.3644,-1.3474,-1.3552,-1.4128,-1.4516,-1.4708,-1.5268,-1.5366,-1.5006,-1.5039,-1.5057,-1.51,0.0,0.0,0.0,-1.5699,-1.5504,-1.5283,-1.5553,-1.5926,-1.6397,-1.6211,-1.7006,-1.8273,-1.8127,-1.8095,-1.8111,-1.8005,-1.7686,-1.7279,-1.7382,-1.7028,-1.6451,0.0,0.0,0.0,-1.4305,0.0,0.0,0.0,0.0,0.0,0.0,-1.4027,0.0,-1.4168,-1.4398,-1.5422,-1.8361,-1.9567,-2.0931,-2.3515,-2.4907,-2.5545,-2.5218,-2.7589,-3.0048,-3.1792,-3.177,-3.141,-3.0929,-3.0782,-3.0528,-3.0047,-3.0167,-3.0074,-2.9606,-2.9513,-2.9259,-2.8724,-2.8921,-2.8871,-2.8379,-2.8312,-2.8299,-2.8366,-2.8511,-2.8631,-2.8698,-2.8751,-2.8751,-2.8698,-2.8751,-2.8845,-2.8908,-2.8908,-2.9085,-2.9299,-2.9068,-2.9028,-2.9135,-2.9646,-2.9686,-2.9526,-2.9806,-2.9847,-2.9753,-0.8191,-0.878,-0.9641,-1.1265,0.0,0.0,0.0,0.0,0.0,0.0,0.0,0.0,0.0,0.0,0.0,0.0,0.0,0.0,0.0,0.0,-1.3734,-1.3617,-1.4201,-1.4692,-1.493,-1.5415,-1.5553,-1.5405,-1.5285,-1.5195,-1.5106,0.0,0.0,0.0,0.0,0.0,-1.5405,-1.5277,-1.5553,-1.6097,-1.6765,-1.7624,-1.859,-1.859,-1.8582,-1.8541,-1.8282,-1.7904,-1.7336,-1.6811,-1.6613,-1.6499,-1.553,-1.5152,-1.4937,0.0,-1.4019,-1.3985,0.0,0.0,0.0,-1.4027,-1.3908,0.0,0.0,-1.3663,-1.4128,-1.6128,-1.7278,-1.8505,-2.0482,-2.1828,-2.2745,-2.3057,-2.5661,-2.7703,-2.7747,-2.9904,-3.1289,-3.0849,-3.0528,-3.0247,-2.994,-3.0047,-2.9953,-2.9513,-2.9352,-2.9072,-2.8631,-2.8751,-2.8617,-2.8205,-2.8179,-2.8179,-2.8179,-2.8339,-2.8419,-2.8419,-2.8537,-2.8604,-2.8617,-2.8911,-2.8965,-2.8831,-2.8935,-2.9081,-2.9245,-2.9055,-2.9081,-2.9285,-2.9593,-2.9619,-2.9526,-2.9806,-2.9913,-2.9913,-0.9953,-1.059,-1.1424,-1.2641,-1.3571,0.0,0.0,0.0,0.0,0.0,0.0,0.0,0.0,0.0,0.0,0.0,0.0,0.0,0.0,0.0,-1.4115,-1.382,-1.4335,-1.4806,-1.5189,-1.552,-1.5666,-1.5666,-1.5528,-1.5309,-1.5025,-1.5204,-1.5447,-1.5707,0.0,0.0,0.0,-1.4952,-1.5204,-1.6202,-1.7534,-1.8192,-1.8364,-1.8874,-1.8988,-1.8744,-1.843,-1.8097,-1.7584,-1.6461,-1.6384,-1.6469,-1.4882,-1.4897,0.0,0.0,0.0,0.0,0.0,0.0,-1.4011,-1.4387,-1.4055,-1.3766,0.0,0.0,0.0,-1.4667,-1.5833,-1.6874,-1.757,-1.8755,-1.9915,-2.0826,-2.3216,-2.442,-2.2667,-2.656,-2.9659,-2.9854,-2.9843,-2.9833,-2.9833,-2.9673,-2.9526,-2.9406,-2.9018,-2.8655,-2.8524,-2.8577,-2.847,-2.8192,-2.8179,-2.8179,-2.8179,-2.8179,-2.8179,-2.8192,-2.8433,-2.8524,-2.8537,-2.9005,-2.9005,-2.8617,-2.8868,-2.9028,-2.9081,-2.9148,-2.9312,-2.9486,-2.9539,-2.9539,-2.9526,-2.9806,-2.9913,-2.9913,-1.1282,-1.1188,-1.1734,-1.3145,0.0,0.0,0.0,0.0,0.0,-1.6513,0.0,0.0,0.0,0.0,0.0,0.0,0.0,0.0,-1.6056,-1.4978,0.0,0.0,-1.4359,-1.4554,-1.5189,-1.5237,-1.5262,-1.5262,-1.5237,-1.5213,0.0,0.0,-1.5504,-1.5545,-1.548,-1.5488,-1.5536,-1.5439,-1.6097,-1.7234,-1.7567,-1.74,-1.7109,-1.7981,-1.8192,-1.7986,-1.7876,-1.7827,-1.7802,-1.7359,-1.6729,-1.6155,0.0,-1.5665,-1.4756,-1.4608,0.0,0.0,0.0,0.0,-1.5065,-1.4475,-1.4848,-1.4957,-1.352,0.0,-1.3808,-1.3006,0.0,-1.3639,-1.3455,0.0,0.0,-1.4418,-1.7516,-1.9715,-1.9063,-2.1727,-2.4461,-2.6342,-2.8328,-2.9539,-2.9539,-2.8861,-2.8593,-2.9001,-2.8323,-2.7949,-2.8219,-2.8457,-2.847,-2.8192,-2.8179,-2.8179,-2.8179,-2.8179,-2.8179,-2.8179,-2.8219,-2.8232,-2.8232,-2.8312,-2.8446,-2.8617,-2.8868,-2.9192,-2.9459,-2.9713,-2.9686,-2.9513,-2.9766,-2.9713,-2.9526,-2.9806,-2.9913,-2.9913,-1.2323,-1.267,-1.3281,-1.3917,0.0,0.0,0.0,0.0,0.0,-1.6893,0.0,0.0,-1.7112,-1.6914,-1.6939,0.0,-1.659,-1.6145,-1.6112,-1.5327,0.0,0.0,-1.4773,-1.4919,-1.5536,-1.5302,-1.5254,-1.5359,-1.5187,0.0,0.0,0.0,-1.5366,-1.5666,-1.5772,-1.6015,-1.643,-1.6219,-1.6373,-1.6763,-1.6836,-1.6631,-1.6509,-1.807,-1.8468,-1.8249,-1.8159,-1.778,-1.7234,-1.675,-1.6311,-1.5935,-1.5734,0.0,0.0,-1.4962,0.0,0.0,0.0,0.0,-1.4897,-1.4586,-1.4774,-1.474,-1.386,-1.3622,-1.354,-1.3315,0.0,0.0,0.0,0.0,0.0,0.0,-1.5908,-1.7485,-1.5831,-1.9234,-2.2717,-2.5094,-2.6102,-2.7157,-2.8598,-2.8245,-2.8136,-2.8695,-2.7789,-2.7468,-2.8152,-2.8312,-2.8245,-2.7938,-2.8098,-2.8098,-2.7924,-2.8098,-2.8179,-2.8179,-2.8179,-2.8179,-2.8192,-2.8366,-2.8433,-2.8406,-2.8831,-2.9068,-2.9245,-2.9539,-2.9686,-2.9753,-2.9873,-2.974,-2.9526,-2.9806,-2.9913,-2.9913,-1.2926,0.0,0.0,-1.4136,-1.4806,0.0,-1.6137,-1.6779,-1.7153,-1.7112,-1.7185,-1.7266,-1.7323,-1.7173,-1.7271,-1.7729,-1.7274,-1.6893,-1.6714,-1.6023,-1.5618,0.0,0.0,0.0,-1.5837,-1.5398,-1.5228,-1.5366,-1.5049,0.0,0.0,0.0,0.0,-1.5821,-1.6016,-1.6444,-1.7096,-1.6893,-1.6868,-1.6958,-1.6852,-1.6803,-1.6874,-1.8144,-1.8494,-1.831,-1.8319,-1.7661,-1.6729,-1.6344,-1.6041,-1.5685,-1.5303,-1.5389,-1.5524,0.0,0.0,0.0,-1.4557,-1.476,-1.4964,-1.4638,-1.4536,-1.438,-1.3921,-1.3629,-1.3485,-1.3687,-1.3538,0.0,0.0,0.0,0.0,0.0,0.0,-1.5766,-1.3887,-1.676,-2.014,-2.314,-2.445,-2.588,-2.7722,-2.7526,-2.7583,-2.826,-2.7226,-2.6974,-2.7898,-2.8018,-2.7965,-2.7709,-2.8031,-2.8085,-2.7816,-2.8072,-2.8179,-2.8179,-2.8179,-2.8179,-2.8192,-2.8419,-2.8393,-2.8219,-2.8778,-2.9001,-2.9028,-2.9446,-2.9726,-2.9913,-2.9833,-2.9713,-2.9633,-2.9699,-2.9734,-2.9734,-1.2932,-1.3751,0.0,-1.3446,-1.4704,-1.5999,-1.6671,-1.6706,-1.673,-1.7063,-1.693,-1.7084,-1.7819,-1.7892,-1.8306,-1.9345,-1.8956,-1.8574,-1.8434,-1.7388,-1.6679,-1.6544,0.0,-1.544,0.0,-1.5342,-1.5015,-1.5023,-1.4806,-1.4797,0.0,0.0,0.0,0.0,-1.6137,-1.66,-1.712,-1.7291,-1.7859,-1.8567,-1.8257,-1.8322,-1.8518,-1.7878,-1.7674,-1.7749,-1.7873,-1.7262,-1.6462,-1.6766,-1.62,-1.5445,-1.561,-1.5535,-1.5309,-1.4829,0.0,0.0,-1.5153,-1.5425,-1.5588,-1.4425,-1.4306,-1.4245,-1.3268,-1.3581,-1.3966,-1.3653,-1.4421,-1.493,0.0,0.0,0.0,0.0,0.0,0.0,0.0,-1.363,-1.5202,-1.9362,-2.3909,-2.6842,-2.7208,-2.6626,-2.6628,-2.7477,-2.6613,-2.6412,-2.7282,-2.7562,-2.7709,-2.7696,-2.8031,-2.8179,-2.8165,-2.8179,-2.8179,-2.8179,-2.8179,-2.8179,-2.8179,-2.8192,-2.8192,-2.8219,-2.8778,-2.9001,-2.9041,-2.9615,-2.9913,-2.9887,-2.9606,-2.9659,-2.981,-2.9407,-2.9227,-2.9227,-1.2925,-1.3809,-1.4435,-1.4087,-1.4726,-1.552,-1.6365,-1.6844,-1.7242,-1.7599,-1.7697,-1.7957,-1.8558,-1.8623,-1.8858,-1.9459,-1.9134,-1.8866,-1.8809,-1.7802,-1.7388,-1.7848,-1.673,-1.6381,0.0,0.0,0.0,0.0,0.0,0.0,0.0,0.0,0.0,0.0,0.0,-1.7315,-1.7827,-1.806,-1.8239,-1.833,-1.7604,-1.784,-1.8533,-1.8403,-1.8065,-1.7733,-1.8013,-1.7367,-1.6442,-1.6529,-1.6259,-1.584,-1.5697,-1.5676,-1.5659,-1.5172,-1.5282,-1.552,-1.5316,-1.5696,-1.5893,-1.4787,-1.4665,-1.4516,-1.3404,-1.3649,-1.3987,-1.3688,-1.438,0.0,0.0,0.0,0.0,0.0,0.0,0.0,0.0,-1.4022,-1.5146,-1.6834,-2.1205,-2.4535,-2.5719,-2.6029,-2.6235,-2.6367,-2.6149,-2.6292,-2.6934,-2.7255,-2.7456,-2.7456,-2.7737,-2.7856,-2.7856,-2.8085,-2.8179,-2.8179,-2.8179,-2.8179,-2.8179,-2.8179,-2.8179,-2.8219,-2.8778,-2.9001,-2.9041,-2.9628,-2.9913,-2.99,-2.9806,-2.943,-2.8944,-2.8929,-2.9249,-2.9644,-1.3353,-1.4034,-1.4579,-1.4453,-1.5065,-1.5772,-1.6316,-1.7071,-1.7681,-1.7973,-1.8273,-1.8736,-1.9346,-1.9411,-1.9508,-1.9865,-1.9687,-1.9394,-1.9004,-1.8403,-1.8166,-1.8304,-1.7653,-1.7348,0.0,0.0,0.0,0.0,0.0,-1.6048,0.0,0.0,0.0,0.0,0.0,-1.7551,-1.8014,-1.8499,-1.8695,-1.8575,-1.7703,-1.7695,-1.8231,-1.8176,-1.785,-1.7447,-1.753,-1.693,-1.6132,-1.6244,-1.6174,-1.5973,-1.578,-1.5822,-1.584,-1.5459,-1.5527,-1.5696,-1.5533,-1.5893,-1.6083,-1.5133,-1.5011,-1.4841,-1.3785,-1.4044,-1.438,-1.4045,-1.4699,0.0,0.0,0.0,0.0,0.0,0.0,0.0,0.0,-1.3839,-1.4751,-1.5582,-1.9614,-2.2807,-2.4035,-2.4523,-2.5016,-2.5642,-2.5087,-2.5205,-2.6453,-2.68,-2.7095,-2.7296,-2.7483,-2.7642,-2.7898,-2.7978,-2.8085,-2.8179,-2.8299,-2.8353,-2.8353,-2.8353,-2.8406,-2.8484,-2.8871,-2.9055,-2.9232,-2.9713,-2.9913,-2.9855,-2.9614,-2.9193,-2.8719,-2.8718,-2.8994,-2.9375,-1.4119,-1.4449,-1.4615,-1.4581,-1.5693,-1.6568,-1.6619,-1.7339,-1.7989,-1.8192,-1.8744,-1.9354,-2.0063,-2.0152,-2.0291,-2.058,-2.0612,-2.0174,-1.9142,-1.9257,-1.8915,-1.807,-1.8322,-1.8369,-1.7989,0.0,0.0,0.0,0.0,0.0,0.0,0.0,0.0,0.0,-1.6968,-1.7287,-1.7676,-1.8598,-1.9167,-1.9343,-1.8488,-1.7965,-1.7614,-1.7265,-1.7043,-1.6931,-1.6565,-1.6091,-1.5654,-1.5988,-1.6037,-1.5915,-1.5901,-1.5908,-1.5888,-1.5683,-1.5905,-1.6212,-1.5729,-1.5938,-1.6151,-1.5404,-1.5323,-1.5201,-1.435,-1.4679,-1.5126,-1.4769,-1.5357,0.0,0.0,0.0,0.0,0.0,0.0,0.0,0.0,0.0,-1.3779,-1.5393,-1.8973,-2.1551,-2.2148,0.0,-2.3039,-2.5138,-2.352,0.0,0.0,-2.6199,-2.6627,-2.7269,-2.7282,-2.7576,-2.8179,-2.7884,-2.7884,-2.8192,-2.8457,-2.8604,-2.8604,-2.8617,-2.8778,-2.9001,-2.9015,-2.9219,-2.9499,-2.9793,-2.9913,-2.9842,-2.9118,-2.8947,-2.9047,-2.8655,-2.8474,-2.8474,-1.3349,-1.4266,-1.5139,-1.5467,-1.5995,-1.6422,-1.656,-1.7339,-1.8127,-1.8696,-1.9403,-2.0047,-2.0633,-2.0706,-2.0739,-2.0836,-2.0844,-2.0722,-2.0445,-1.9973,-1.967,-1.9703,-1.9151,-1.8866,-1.8964,-1.8573,0.0,-1.8038,0.0,0.0,-1.7081,0.0,0.0,0.0,0.0,-1.7167,-1.7568,-1.8439,-1.8649,-1.8356,-1.7988,-1.7607,-1.7217,-1.6346,-1.6313,-1.669,-1.6742,-1.6405,-1.5981,-1.6056,-1.6056,-1.6051,-1.5935,-1.5983,-1.5974,-1.5668,-1.5905,-1.6259,-1.6029,-1.6293,-1.6483,-1.5888,-1.5758,-1.5581,-1.4746,-1.5147,-1.5581,-1.5018,-1.5676,-1.6171,-1.5581,-1.5567,0.0,0.0,0.0,0.0,0.0,0.0,-1.2977,-1.3765,-1.5843,-1.7805,-1.9289,-2.1033,-2.2065,-2.2136,-2.3456,-2.4585,-2.5426,-2.5657,-2.6106,-2.6907,-2.6934,-2.7321,-2.8179,-2.7884,-2.7884,-2.8192,-2.8457,-2.8604,-2.8617,-2.8831,-2.8921,-2.9001,-2.9272,-2.9419,-2.9499,-2.9793,-2.9913,-2.9869,-2.9328,-2.8668,-2.8101,-2.8384,-2.8249,-2.7965,-1.3721,-1.4899,-1.6038,-1.636,-1.6872,-1.7226,-1.7169,-1.7656,-1.829,-1.9013,-1.9778,-2.0364,-2.0755,-2.1092,-2.1254,-2.1154,-2.1138,-2.0975,-2.0584,-2.0405,-2.0206,-2.0093,-1.9752,-1.9481,-1.9253,-1.8958,0.0,-1.8456,0.0,0.0,-1.732,0.0,0.0,0.0,0.0,-1.6559,-1.6766,-1.7834,-1.8179,-1.8035,-1.756,-1.7128,0.0,-1.6001,-1.598,-1.6314,-1.6468,-1.6333,-1.6044,-1.6056,-1.6083,-1.6069,-1.603,-1.6064,-1.6049,-1.5879,-1.6062,-1.6293,-1.6205,-1.6408,-1.652,-1.6232,-1.6144,-1.6001,-1.5452,-1.5649,-1.5908,-1.5575,-1.5818,-1.6042,-1.573,-1.5438,-1.4877,0.0,0.0,0.0,0.0,0.0,0.0,-1.3091,-1.4044,-1.5336,-1.6915,-1.8482,-1.9892,-2.1095,-2.1728,-2.2822,-2.4585,-2.5151,-2.5713,-2.6334,-2.664,-2.7241,-2.8179,-2.7884,-2.7884,-2.8192,-2.8591,-2.8748,-2.8761,-2.9098,-2.9255,-2.9375,-2.9472,-2.9553,-2.9686,-2.9847,-2.9913,-2.9824,-2.915,-2.8281,-2.7423,-2.7752,-2.7785,-2.7694,-1.4529,-1.5771,-1.679,-1.6904,-1.7668,-1.819,-1.802,-1.822,-1.8648,-1.9428,-2.0033,-2.0482,-2.0751,-2.1355,-2.1694,-2.149,-2.13,-2.0953,-2.0224,-2.0526,-2.0401,-1.9718,-1.9959,-1.9763,-1.9125,-1.9027,-1.8815,0.0,0.0,0.0,0.0,0.0,0.0,0.0,0.0,0.0,0.0,-1.7139,-1.7769,-1.79,-1.7217,-1.6714,-1.6306,-1.6021,-1.5935,-1.5949,-1.6085,-1.6044,-1.5956,-1.6035,-1.6083,-1.6083,-1.6083,-1.6083,-1.6083,-1.6083,-1.6178,-1.6279,-1.6279,-1.6381,-1.649,-1.6469,-1.649,-1.6442,-1.6151,-1.611,-1.6123,-1.6062,-1.5879,-1.5763,-1.6083,-1.5323,-1.4349,0.0,0.0,0.0,0.0,0.0,0.0,0.0,-1.3322,0.0,-1.5329,-1.5915,-1.7597,-2.0908,-1.9723,-2.0315,-2.3631,-2.4598,-2.5309,-2.5831,-2.644,-2.7267,-2.8232,-2.7951,-2.7965,-2.8312,-2.8791,-2.9015,-2.9068,-2.9406,-2.9673,-2.99,-2.9646,-2.9686,-2.9913,-2.9913,-2.9824,-2.9644,-2.8835,-2.7887,-2.6981,-2.6945,-2.7217,-2.7558,-1.4664,-1.5454,-1.6107,-1.5962,-1.6567,-1.7426,-1.8314,-1.8881,-1.9533,-2.0462,-2.0762,-2.1096,-2.1589,-2.1382,-2.1326,-2.1791,-2.0877,-2.0426,-2.0678,-2.0122,-1.9583,-1.9106,-1.8948,-1.8775,-1.8565,-1.8294,-1.8129,0.0,0.0,0.0,0.0,0.0,0.0,0.0,0.0,0.0,-1.6406,-1.7082,-1.7143,-1.6722,-1.6949,-1.663,-1.5979,-1.603,-1.6042,-1.6092,-1.6076,-1.6062,-1.6049,-1.6076,-1.6083,-1.6083,-1.6083,-1.6083,-1.6083,-1.6083,-1.6103,-1.6123,-1.6123,-1.6232,-1.632,-1.6191,-1.6341,-1.6442,-1.6151,-1.6273,-1.6341,-1.6017,-1.6056,-1.5988,-1.533,-1.4645,-1.418,-1.398,-1.3641,-1.3492,-1.3756,0.0,0.0,0.0,0.0,-1.445,-1.561,-1.6783,-1.8164,-1.9794,-2.0835,-2.1945,-2.3253,-2.358,-2.4482,-2.6093,-2.646,-2.7243,-2.8524,-2.8259,-2.8379,-2.8841,-2.8948,-2.9121,-2.9419,-2.9713,-2.9873,-2.9913,-2.986,-2.9873,-2.9913,-2.9913,-2.942,-2.8745,-2.8565,-2.7887,-2.6957,-2.674,-2.6846,-2.7118,-1.5393,-1.5946,-1.6383,-1.6515,-1.7347,-1.8182,-1.8721,-1.9111,-1.9493,-1.9877,-2.0022,-2.0227,-2.0511,-2.0689,-2.0865,-2.0978,-2.0448,-2.0117,-2.0155,-1.9843,-1.9498,-1.9163,-1.8991,-1.8669,-1.8252,-1.7959,-1.7748,-1.7496,0.0,0.0,-1.5191,0.0,0.0,0.0,0.0,-1.467,0.0,-1.6151,-1.6328,-1.6316,-1.6503,-1.6352,-1.603,-1.6105,-1.6083,-1.6083,-1.6083,-1.6083,-1.6083,-1.6083,-1.6029,-1.6024,-1.6056,-1.6029,-1.603,-1.6056,-1.6083,-1.6083,-1.6083,-1.6137,-1.6171,-1.6096,-1.6191,-1.6252,-1.611,-1.6252,-1.6347,-1.6137,-1.6205,-1.6083,-1.5337,-1.4706,-1.4278,-1.4204,-1.3878,-1.3702,-1.3919,0.0,-1.3612,0.0,0.0,0.0,0.0,-1.6911,-1.8329,-1.9693,-2.0394,-2.1321,-2.2641,-2.3129,-2.4061,-2.563,-2.5952,-2.6791,-2.8205,-2.8102,-2.8248,-2.864,-2.9061,-2.9352,-2.9499,-2.978,-2.9913,-2.9913,-2.9913,-2.9913,-2.9869,-2.9644,-2.915,-2.8474,-2.8204,-2.7661,-2.6957,-2.6692,-2.6765,-2.6969,-1.6119,-1.6594,-1.6976,-1.7196,-1.809,-1.8753,-1.8857,-1.9111,-1.9277,-1.9324,-1.9346,-1.9405,-1.9533,-2.0078,-2.031,-2.0139,-1.9921,-1.969,-1.9478,-1.9331,-1.9159,-1.8954,-1.8801,-1.8441,-1.7893,-1.7738,-1.7416,0.0,0.0,-1.5241,-1.4887,0.0,0.0,0.0,-1.3471,-1.4139,-1.4963,-1.5226,-1.5656,-1.611,-1.6124,-1.6083,-1.6083,-1.6083,-1.6083,-1.6083,-1.6083,-1.6083,-1.6083,-1.6083,-1.6051,-1.5976,-1.6092,-1.6051,-1.5976,-1.6049,-1.6083,-1.6083,-1.6083,-1.6083,-1.6083,-1.6083,-1.6083,-1.6083,-1.6083,-1.6178,-1.6252,-1.6218,-1.6191,-1.6001,-1.5459,-1.4997,-1.4611,-1.4346,-1.4122,-1.395,-1.3984,0.0,-1.3862,0.0,0.0,0.0,-1.5425,-1.6951,-1.8514,-2.0016,-1.9675,-2.028,-2.2197,-2.2429,-2.327,-2.4999,-2.5316,-2.6182,-2.7628,-2.7693,-2.8013,-2.8504,-2.904,-2.9424,-2.9579,-2.9806,-2.9913,-2.9913,-2.9913,-2.9913,-2.9869,-2.9407,-2.8912,-2.8429,-2.792,-2.7423,-2.6945,-2.662,-2.6444,-2.6249,-1.6373,-1.6991,-1.7486,-1.7078,-1.7332,-1.7735,-1.8295,-1.8655,-1.9228,-2.031,-1.9972,-1.9813,-2.0231,-2.0008,-1.9907,-2.0154,-1.9234,-1.878,-1.9034,-1.8427,-1.7909,-1.7615,-1.7457,-1.7368,-1.7302,-1.7158,-1.7058,0.0,0.0,-1.525,-1.4956,0.0,0.0,-1.3356,-1.3824,-1.4323,-1.4765,-1.5059,-1.5486,-1.5923,-1.6058,-1.6083,-1.6083,-1.6083,-1.6083,-1.6083,-1.6083,-1.6083,-1.6083,-1.6083,-1.6076,-1.6062,-1.6076,-1.6069,-1.6062,-1.6076,-1.6083,-1.6083,-1.6083,-1.6083,-1.6083,-1.6083,-1.6083,-1.6083,-1.6083,-1.609,-1.6062,-1.5976,-1.5791,-1.5553,-1.5262,-1.5269,-1.5099,-1.4414,-1.438,-1.4496,-1.4593,0.0,-1.4299,-1.4414,0.0,0.0,-1.581,-1.7502,-1.9083,-2.0422,-1.9519,-1.9885,-2.2185,-2.0794,-2.1353,-2.4482,-2.4886,-2.564,-2.6906,-2.7118,-2.7903,-2.9104,-2.8869,-2.9162,-2.9873,-2.99,-2.9913,-2.9913,-2.9913,-2.9913,-2.9869,-2.9407,-2.8912,-2.8429,-2.792,-2.7423,-2.6921,-2.6447,-2.5333,-2.4026,-1.6858,-1.7161,-1.7406,-1.7505,-1.7713,-1.7976,-1.8377,-1.8544,-1.8833,-1.9444,-1.9284,-1.9171,-1.924,-1.9103,-1.8948,-1.8938,-1.8522,-1.8298,-1.835,-1.8067,-1.7772,-1.7514,-1.7446,-1.7378,-1.7195,-1.7229,-1.6994,0.0,0.0,0.0,-1.4456,-1.3821,-1.3545,-1.3682,-1.4048,-1.4407,-1.4728,-1.5255,-1.556,-1.5744,-1.5988,-1.6083,-1.6083,-1.6083,-1.6083,-1.6083,-1.6083,-1.6083,-1.6083,-1.6083,-1.6071,-1.601,-1.6056,-1.6015,-1.5996,-1.5996,-1.6058,-1.6062,-1.6017,-1.6058,-1.6083,-1.6083,-1.6083,-1.6056,-1.6017,-1.6064,-1.6035,-1.5935,-1.5737,-1.558,-1.5643,-1.5269,-1.4997,-1.497,-1.4787,-1.4699,-1.4855,0.0,0.0,-1.4285,0.0,-1.3839,-1.4004,-1.6523,-1.8299,-1.878,-2.0527,-2.1916,-2.2756,-2.1004,-2.1268,-2.4167,-2.2156,-2.2206,-2.4617,-2.5004,-2.583,-2.7012,-2.8335,-2.9301,-2.9913,-2.9913,-2.9913,-2.9913,-2.9913,-2.9734,-2.9451,-2.897,-2.8462,-2.7965,-2.7468,-2.7066,-2.657,-2.5053,-2.4119,-2.3351,-1.7208,-1.7339,-1.7605,-1.7902,-1.804,-1.8205,-1.8443,-1.8498,-1.8531,-1.8674,-1.8654,-1.8586,-1.8477,-1.8454,-1.8389,-1.8057,-1.8077,-1.8023,-1.7936,-1.7826,-1.7758,-1.7595,-1.7548,-1.7426,-1.7263,-1.7317,-1.7026,-1.6347,-1.5961,-1.5364,-1.4629,-1.4204,-1.4075,-1.414,-1.4441,-1.4726,-1.4985,-1.5506,-1.5703,-1.5723,-1.5927,-1.5988,-1.5954,-1.6001,-1.6064,-1.6071,-1.6069,-1.6083,-1.6083,-1.6083,-1.6058,-1.599,-1.6049,-1.6058,-1.5969,-1.5969,-1.6044,-1.6056,-1.5996,-1.6051,-1.6083,-1.6083,-1.6083,-1.6105,-1.5996,-1.6017,-1.603,-1.5928,-1.5805,-1.5771,-1.5784,-1.5357,-1.4992,-1.5133,-1.4957,-1.4801,-1.4774,-1.4778,0.0,-1.4166,-1.3654,-1.3159,-1.2733,-1.5417,-1.7164,-1.713,-2.0277,-2.2282,-2.2358,-2.0593,-2.0425,-2.2255,-1.9773,-1.9584,-2.2096,-2.3141,-2.392,-2.4443,-2.6785,-2.7945,-2.8065,-2.8201,-2.8247,-2.8234,-2.8056,-2.7747,-2.7476,-2.741,-2.7184,-2.6809,-2.6322,-2.6035,-2.5611,-2.3372,-2.2227,-2.1557,-1.724,-1.7732,-1.8199,-1.8121,-1.8091,-1.8179,-1.8477,-1.8409,-1.8375,-1.8511,-1.8409,-1.8321,-1.8321,-1.8443,-1.8355,-1.7956,-1.8002,-1.8023,-1.7936,-1.7683,-1.7595,-1.7595,-1.7453,-1.7419,-1.7419,-1.727,-1.7121,-1.6971,0.0,-1.6044,-1.5867,-1.5275,-1.5003,-1.501,-1.5106,-1.5343,-1.5587,-1.5784,-1.5901,-1.5901,-1.5901,-1.5771,-1.5614,-1.5854,-1.5908,-1.5928,-1.6029,-1.6083,-1.6083,-1.6083,-1.6083,-1.6083,-1.6083,-1.6083,-1.6076,-1.6076,-1.6083,-1.6083,-1.6083,-1.6083,-1.6083,-1.6083,-1.6083,-1.6083,-1.6083,-1.601,-1.5901,-1.5901,-1.6024,-1.5988,-1.5648,-1.5587,-1.5337,-1.4645,-1.4774,-1.486,-1.4373,-1.4177,0.0,-1.4119,-1.3281,-1.2699,-1.2693,-1.4513,-1.5832,-1.5997,-1.8169,-1.9779,-2.0587,-1.9113,-1.8169,-1.8081,-1.8278,-1.8753,-1.9519,-2.1851,-2.2632,-2.1876,-2.3906,-2.4448,-2.3691,-2.4155,-2.4387,-2.433,-2.367,-2.3391,-2.3437,-2.4419,-2.4841,-2.4796,-2.4339,-2.4156,-2.3863,-2.1415,-1.9445,-1.7894,-1.7813,-1.7923,-1.8053,-1.8235,-1.8158,-1.8158,-1.8355,-1.8267,-1.8213,-1.8375,-1.8247,-1.8158,-1.8158,-1.8199,-1.8124,-1.7936,-1.7914,-1.797,-1.7915,-1.7826,-1.7758,-1.7595,-1.7446,-1.7372,-1.727,-1.7216,-1.7073,-1.6822,-1.6429,-1.5947,-1.5438,-1.5248,-1.5228,-1.5425,-1.5472,-1.5662,-1.5934,-1.5928,-1.5962,-1.6051,-1.5942,-1.5935,-1.5934,-1.5922,-1.5969,-1.6051,-1.5996,-1.6044,-1.6083,-1.6083,-1.6083,-1.6083,-1.6083,-1.6083,-1.6062,-1.6003,-1.6051,-1.6056,-1.6003,-1.6051,-1.6083,-1.6083,-1.6083,-1.6083,-1.6083,-1.6092,-1.603,-1.5922,-1.5811,-1.5716,-1.552,-1.5398,-1.5248,-1.5004,-1.497,-1.4882,-1.4586,0.0,-1.4116,-1.3804,-1.3336,-1.2956,-1.2713,-1.4473,-1.5663,-1.58,-1.8784,-2.0211,-1.9293,-1.7701,-1.7194,-1.806,-1.6172,-1.601,-1.7785,-1.884,-1.9545,-1.9844,-2.193,-2.3049,-2.3206,-2.3347,-2.3359,-2.3251,-2.304,-2.2697,-2.229,-2.2612,-2.2576,-2.2264,-2.2126,-2.1945,-2.154,-1.9373,-1.8116,-1.7269,-1.7806,-1.7806,-1.786,-1.8111,-1.8077,-1.8057,-1.8213,-1.8111,-1.8057,-1.8213,-1.8111,-1.8002,-1.8002,-1.8002,-1.7968,-1.7915,-1.7915,-1.7915,-1.7915,-1.7915,-1.7826,-1.7738,-1.7534,-1.7378,-1.7283,-1.7168,-1.6992,-1.6696,-1.6459,-1.6117,-1.5608,-1.5608,-1.5676,-1.5805,-1.5805,-1.5879,-1.6044,-1.6003,-1.5927,-1.5913,-1.5922,-1.5879,-1.5913,-1.5915,-1.5962,-1.6037,-1.6003,-1.6051,-1.6083,-1.6083,-1.6083,-1.6083,-1.6083,-1.6083,-1.6062,-1.6017,-1.6008,-1.6062,-1.6017,-1.6058,-1.6083,-1.6083,-1.6083,-1.6069,-1.6058,-1.6042,-1.6035,-1.5935,-1.5825,-1.5757,-1.5608,-1.5452,-1.5296,-1.5126,-1.4977,-1.4794,-1.4523,-1.4183,-1.3858,0.0,-1.3227,-1.2935,-1.2706,-1.3956,-1.4781,-1.4752,-1.7031,-1.7913,-1.6714,-1.7047,-1.7039,-1.6441,-1.4797,-1.4645,-1.6107,-1.7224,-1.7708,-1.7593,-1.9251,-2.0241,-2.0586,-2.0778,-2.0849,-2.0769,-2.0427,-2.0067,-1.9718,-2.0205,-2.0224,-1.9955,-1.9955,-1.983,-1.9405,-1.7325,-1.6476,-1.6137,-1.7419,-1.7568,-1.7704,-1.7846,-1.7915,-1.7914,-1.8057,-1.8004,-1.7914,-1.8057,-1.8004,-1.7915,-1.7915,-1.7915,-1.7915,-1.7915,-1.7915,-1.7915,-1.7915,-1.7915,-1.786,-1.7902,-1.7582,-1.7426,-1.7405,-1.7134,-1.6917,-1.6696,-1.6554,-1.6463,-1.6307,-1.6307,-1.6225,-1.6083,-1.6083,-1.6051,-1.5928,-1.6058,-1.5913,-1.5634,-1.5854,-1.5778,-1.5634,-1.5805,-1.5908,-1.5935,-1.6015,-1.6076,-1.6083,-1.6083,-1.6083,-1.6083,-1.6083,-1.6083,-1.6083,-1.6083,-1.6083,-1.6083,-1.6083,-1.6083,-1.6083,-1.6083,-1.6083,-1.6092,-1.5949,-1.603,-1.6035,-1.5935,-1.6017,-1.6015,-1.5901,-1.571,-1.5479,-1.5038,-1.4841,-1.4539,-1.415,-1.3715,-1.3437,-1.3417,-1.3057,-1.2767,-1.2753,-1.3173,-1.3356,-1.3254,-1.3664,-1.378,-1.3431,-1.6927,-1.7298,-1.3746,-1.4224,-1.4559,-1.4721,-1.6735,-1.694,-1.5445,-1.6209,-1.6552,-1.6559,-1.7091,-1.7279,-1.725,-1.6508,-1.6173,-1.6247,-1.739,-1.7919,-1.7919,-1.7919,-1.7806,-1.7447,-1.5427,-1.4687,-1.464,-1.7779,-1.7792,-1.7826,-1.786,-1.7915,-1.7936,-1.7914,-1.7936,-1.7936,-1.7914,-1.7936,-1.7915,-1.7915,-1.7915,-1.7915,-1.7915,-1.7915,-1.7915,-1.7915,-1.7915,-1.7812,-1.7704,-1.7575,-1.7487,-1.7249,-1.7175,-1.7012,-1.6696,-1.6662,-1.6513,-1.6307,-1.6307,-1.6225,-1.6083,-1.6083,-1.6062,-1.6071,-1.599,-1.5983,-1.5967,-1.5935,-1.5949,-1.5967,-1.5935,-1.5976,-1.6015,-1.5983,-1.603,-1.6083,-1.6083,-1.6083,-1.6083,-1.6083,-1.6083,-1.6083,-1.6083,-1.6083,-1.6083,-1.6083,-1.6083,-1.6083,-1.6083,-1.6083,-1.6076,-1.6035,-1.6056,-1.6035,-1.5935,-1.5928,-1.5874,-1.5567,-1.5486,-1.5357,-1.5071,-1.4841,-1.4579,-1.4292,-1.4055,-1.3831,-1.3558,-1.3531,-1.349,-1.3382,-1.347,-1.3559,-1.3526,-1.4624,-1.4806,-1.3615,-1.5926,-1.6278,-1.406,-1.4434,-1.4814,-1.5072,-1.5692,-1.5923,-1.5799,-1.5965,-1.611,-1.6227,-1.6375,-1.6355,-1.623,-1.5904,-1.5664,-1.5588,-1.5807,-1.5877,-1.5877,-1.5877,-1.5785,-1.559,-1.4931,-1.462,-1.4557,-1.7629,-1.7717,-1.7792,-1.7902,-1.7915,-1.7915,-1.7915,-1.7915,-1.7915,-1.7915,-1.7915,-1.7915,-1.7915,-1.7915,-1.7915,-1.7915,-1.7915,-1.7881,-1.7772,-1.7772,-1.7704,-1.7494,-1.7473,-1.7365,-1.7195,-1.7127,-1.7019,-1.6856,-1.6856,-1.6734,-1.6459,-1.6442,-1.6327,-1.6185,-1.611,-1.6092,-1.6024,-1.601,-1.6017,-1.6024,-1.601,-1.6058,-1.6076,-1.6037,-1.6058,-1.6069,-1.6037,-1.6058,-1.6083,-1.6083,-1.6083,-1.6083,-1.6083,-1.6083,-1.6083,-1.6083,-1.6083,-1.6083,-1.6083,-1.6083,-1.6083,-1.6083,-1.6083,-1.6083,-1.6083,-1.6083,-1.6056,-1.6024,-1.6003,-1.5935,-1.5655,-1.5499,-1.5316,-1.5018,-1.4726,-1.439,-1.4086,-1.3966,-1.381,-1.3605,-1.3714,-1.3795,-1.3831,-1.3892,-1.3905,-1.3838,-1.4621,-1.4742,-1.3874,-1.5153,-1.5436,-1.4323,-1.4706,-1.5052,-1.5282,-1.5506,-1.5745,-1.5901,-1.5976,-1.6051,-1.6083,-1.6083,-1.6035,-1.5996,-1.573,-1.5546,-1.5499,-1.5276,-1.5181,-1.5181,-1.5181,-1.5052,-1.4855,-1.4721,-1.4559,-1.4414,-1.7419,-1.7507,-1.7649,-1.7846,-1.7846,-1.7846,-1.7915,-1.7846,-1.7846,-1.7915,-1.7915,-1.7915,-1.7915,-1.7915,-1.7915,-1.7915,-1.7915,-1.7806,-1.7609,-1.7595,-1.7527,-1.7426,-1.7297,-1.7216,-1.7195,-1.7053,-1.6978,-1.6978,-1.6978,-1.6904,-1.6696,-1.6567,-1.6469,-1.6307,-1.6178,-1.6078,-1.5942,-1.6029,-1.6008,-1.5949,-1.6029,-1.6083,-1.6083,-1.6083,-1.6083,-1.6083,-1.6083,-1.6083,-1.6083,-1.6083,-1.6083,-1.6083,-1.6083,-1.6083,-1.6083,-1.6083,-1.6083,-1.6083,-1.6083,-1.6083,-1.6083,-1.6083,-1.6083,-1.6083,-1.6083,-1.6083,-1.6083,-1.6083,-1.6083,-1.6085,-1.5928,-1.5628,-1.5337,-1.4991,-1.4597,-1.4211,-1.3815,-1.37,-1.3695,-1.3695,-1.3795,-1.3957,-1.4156,-1.4272,-1.4285,-1.4183,-1.4272,-1.4285,-1.4177,-1.4724,-1.4862,-1.4618,-1.5031,-1.5323,-1.5479,-1.5779,-1.5915,-1.5942,-1.6071,-1.6083,-1.6083,-1.6083,-1.6083,-1.6062,-1.5791,-1.5607,-1.5566,-1.5337,-1.5201,-1.5181,-1.5181,-1.5018,-1.4728,-1.4701,-1.4525,-1.4326,-1.75,-1.7575,-1.7649,-1.7846,-1.7758,-1.7717,-1.7846,-1.7758,-1.7717,-1.7902,-1.7915,-1.7915,-1.7915,-1.7915,-1.7915,-1.7915,-1.7915,-1.7806,-1.7609,-1.7595,-1.7527,-1.7426,-1.7399,-1.7324,-1.7195,-1.7053,-1.6978,-1.6978,-1.6978,-1.6904,-1.6696,-1.6675,-1.652,-1.6307,-1.6286,-1.6191,-1.6049,-1.6069,-1.6069,-1.6049,-1.6076,-1.6083,-1.6083,-1.6083,-1.6083,-1.6083,-1.6083,-1.6083,-1.6083,-1.6083,-1.6083,-1.6083,-1.6083,-1.6083,-1.6083,-1.6083,-1.6083,-1.6083,-1.6083,-1.6083,-1.6083,-1.6083,-1.6083,-1.6083,-1.6083,-1.6083,-1.6083,-1.6083,-1.6083,-1.6085,-1.5928,-1.5716,-1.5377,-1.4823,-1.4611,-1.4285,-1.3693,-1.3858,-1.4,-1.4,-1.4245,-1.4468,-1.4579,-1.4543,-1.4523,-1.4586,-1.4536,-1.4523,-1.4586,-1.4848,-1.5051,-1.5079,-1.5398,-1.5635,-1.5833,-1.5881,-1.5969,-1.6049,-1.6069,-1.6083,-1.6083,-1.6083,-1.6083,-1.6069,-1.5949,-1.575,-1.558,-1.5445,-1.5296,-1.5181,-1.5181,-1.5079,-1.4916,-1.4741,-1.4586,-1.4462,-1.7426,-1.7541,-1.7649,-1.7846,-1.7812,-1.7792,-1.7902,-1.7812,-1.7758,-1.7758,-1.7758,-1.7758,-1.7758,-1.7758,-1.7772,-1.786,-1.7915,-1.7772,-1.7487,-1.7473,-1.7426,-1.7195,-1.7182,-1.7154,-1.708,-1.7012,-1.6978,-1.6978,-1.6978,-1.6944,-1.687,-1.6736,-1.6628,-1.6493,-1.6463,-1.6341,-1.6205,-1.6205,-1.6157,-1.6083,-1.6083,-1.6083,-1.6083,-1.6083,-1.6083,-1.6083,-1.6083,-1.6083,-1.6083,-1.6083,-1.6083,-1.6083,-1.6083,-1.6083,-1.6083,-1.6083,-1.6083,-1.6083,-1.6083,-1.6083,-1.6083,-1.6083,-1.6083,-1.6083,-1.6083,-1.6083,-1.6083,-1.6083,-1.6083,-1.6085,-1.5928,-1.5669,-1.5377,-1.51,-1.4706,-1.4326,-1.4086,-1.4156,-1.4197,-1.4197,-1.4597,-1.4869,-1.4862,-1.4943,-1.4991,-1.4977,-1.4841,-1.4821,-1.497,-1.5126,-1.5235,-1.5303,-1.5601,-1.5833,-1.5901,-1.5983,-1.6058,-1.6083,-1.6083,-1.6083,-1.6083,-1.6083,-1.6083,-1.6076,-1.5969,-1.5771,-1.558,-1.5472,-1.5323,-1.5181,-1.5181,-1.5146,-1.4996,-1.4748,-1.4781,-1.4854,-1.7338,-1.744,-1.7595,-1.7792,-1.7812,-1.7826,-1.786,-1.7881,-1.7772,-1.7609,-1.7629,-1.7629,-1.7595,-1.7595,-1.7684,-1.7812,-1.7772,-1.767,-1.7433,-1.7385,-1.7249,-1.6992,-1.6978,-1.6978,-1.6978,-1.6978,-1.6978,-1.6978,-1.6978,-1.6978,-1.6978,-1.677,-1.6696,-1.6689,-1.6558,-1.6415,-1.6307,-1.6273,-1.6191,-1.6083,-1.6083,-1.6083,-1.6083,-1.6083,-1.6083,-1.6083,-1.6083,-1.6083,-1.6083,-1.6083,-1.6083,-1.6083,-1.6083,-1.6083,-1.6083,-1.6083,-1.6083,-1.6083,-1.6083,-1.6083,-1.6083,-1.6083,-1.6083,-1.6083,-1.6083,-1.6083,-1.6083,-1.6083,-1.6083,-1.6049,-1.5976,-1.5689,-1.5472,-1.533,-1.4828,-1.4448,-1.4414,-1.4407,-1.4414,-1.4455,-1.4916,-1.5208,-1.5133,-1.533,-1.5411,-1.5296,-1.5187,-1.5174,-1.5282,-1.5398,-1.5479,-1.5513,-1.5786,-1.5922,-1.5956,-1.6071,-1.6083,-1.6083,-1.6083,-1.6083,-1.6083,-1.6083,-1.6083,-1.6076,-1.6003,-1.5825,-1.5676,-1.5527,-1.5371,-1.5228,-1.5194,-1.5206,-1.519,-1.4894,-1.5063,-1.5397,-1.7182,-1.7331,-1.7487,-1.7575,-1.7609,-1.7704,-1.7846,-1.7758,-1.7609,-1.7595,-1.7758,-1.7792,-1.7609,-1.7595,-1.7595,-1.7609,-1.7534,-1.7446,-1.7419,-1.729,-1.7141,-1.6985,-1.6978,-1.6978,-1.6978,-1.6978,-1.6978,-1.6978,-1.6978,-1.6978,-1.6978,-1.677,-1.6696,-1.6682,-1.6449,-1.632,-1.63,-1.6157,-1.609,-1.6083,-1.6083,-1.6083,-1.6083,-1.6083,-1.6083,-1.6083,-1.6083,-1.6083,-1.6083,-1.6083,-1.6083,-1.6083,-1.6083,-1.6083,-1.6083,-1.6083,-1.6083,-1.6083,-1.6083,-1.6083,-1.6083,-1.6083,-1.6083,-1.6083,-1.6083,-1.6083,-1.6083,-1.6083,-1.6083,-1.6076,-1.6069,-1.5983,-1.569,-1.5139,-1.5003,-1.4772,-1.4227,-1.4455,-1.476,-1.4949,-1.5201,-1.5445,-1.5526,-1.556,-1.5566,-1.556,-1.5546,-1.5546,-1.556,-1.5566,-1.5683,-1.5867,-1.5894,-1.5969,-1.6062,-1.6076,-1.6083,-1.6083,-1.6083,-1.6083,-1.6083,-1.6083,-1.6083,-1.6083,-1.6069,-1.603,-1.5874,-1.5683,-1.5533,-1.5377,-1.5242,-1.5462,-1.5762,-1.519,-1.5452,-1.6061,-1.7161,-1.7243,-1.7324,-1.7426,-1.7534,-1.7615,-1.7717,-1.7758,-1.7717,-1.748,-1.7555,-1.7534,-1.7385,-1.7365,-1.7405,-1.7446,-1.7487,-1.7426,-1.729,-1.7311,-1.7229,-1.6992,-1.6978,-1.6978,-1.6978,-1.6978,-1.6978,-1.6978,-1.6978,-1.6978,-1.6978,-1.6917,-1.6842,-1.6696,-1.6581,-1.6483,-1.6307,-1.6246,-1.6171,-1.6083,-1.6083,-1.6083,-1.6083,-1.6083,-1.6083,-1.6083,-1.6083,-1.6083,-1.6083,-1.6083,-1.6083,-1.6083,-1.6083,-1.6083,-1.6083,-1.6083,-1.6083,-1.6083,-1.6083,-1.6083,-1.6083,-1.6083,-1.6083,-1.6083,-1.6083,-1.6083,-1.6083,-1.6083,-1.6083,-1.6083,-1.6083,-1.6003,-1.586,-1.5731,-1.5425,-1.5201,-1.5065,-1.5106,-1.5181,-1.5235,-1.5506,-1.5669,-1.5593,-1.5805,-1.5872,-1.5778,-1.5771,-1.5771,-1.5771,-1.5771,-1.5839,-1.6037,-1.5995,-1.6071,-1.6083,-1.6083,-1.6083,-1.6083,-1.6083,-1.6083,-1.6083,-1.6083,-1.6083,-1.6083,-1.6083,-1.5995,-1.5894,-1.5696,-1.5499,-1.5398,-1.5242,-1.5516,-1.587,-1.5529,-1.6029,-1.6758,-1.7107,-1.7161,-1.7222,-1.7331,-1.7473,-1.7521,-1.7521,-1.767,-1.7636,-1.7385,-1.7392,-1.7365,-1.7209,-1.7195,-1.7236,-1.7338,-1.7405,-1.7372,-1.7202,-1.729,-1.7243,-1.6992,-1.6978,-1.6978,-1.6978,-1.6978,-1.6978,-1.6978,-1.6978,-1.6978,-1.6978,-1.6931,-1.6849,-1.6696,-1.6601,-1.6446,-1.6307,-1.6259,-1.6178,-1.6083,-1.6083,-1.6083,-1.6083,-1.6083,-1.6083,-1.6083,-1.6083,-1.6083,-1.6083,-1.6083,-1.6083,-1.6083,-1.6083,-1.6083,-1.6083,-1.6083,-1.6083,-1.6083,-1.6083,-1.6083,-1.6083,-1.6083,-1.6083,-1.6083,-1.6083,-1.6083,-1.6083,-1.6083,-1.6083,-1.6083,-1.6083,-1.5995,-1.5976,-1.594,-1.5723,-1.5554,-1.5519,-1.5554,-1.5554,-1.5554,-1.582,-1.5886,-1.5791,-1.5961,-1.6035,-1.5983,-1.5976,-1.5976,-1.5976,-1.5976,-1.6024,-1.6076,-1.6083,-1.6083,-1.6083,-1.6083,-1.6083,-1.6083,-1.6083,-1.6083,-1.6083,-1.6083,-1.6083,-1.6083,-1.6083,-1.6071,-1.5956,-1.5716,-1.5533,-1.5459,-1.5262,-1.5516,-1.5877,-1.5624,-1.6248,-1.7141,-1.6978,-1.7093,-1.7188,-1.7188,-1.7317,-1.7419,-1.7419,-1.7419,-1.7365,-1.7209,-1.7324,-1.7358,-1.7209,-1.7188,-1.7188,-1.7188,-1.7066,-1.7039,-1.7182,-1.7195,-1.7127,-1.6985,-1.6978,-1.6978,-1.6978,-1.6978,-1.6978,-1.6978,-1.6978,-1.6978,-1.6978,-1.6822,-1.6702,-1.6682,-1.6442,-1.6313,-1.63,-1.6151,-1.6083,-1.6083,-1.6083,-1.6083,-1.6083,-1.6083,-1.6083,-1.6083,-1.6083,-1.6083,-1.6083,-1.6083,-1.6083,-1.6083,-1.6083,-1.6083,-1.6083,-1.6083,-1.6083,-1.6083,-1.6083,-1.6083,-1.6083,-1.6083,-1.6083,-1.6083,-1.6083,-1.6083,-1.6083,-1.6083,-1.6083,-1.6083,-1.6083,-1.6083,-1.5988,-1.5641,-1.5764,-1.5799,-1.5459,-1.5669,-1.5901,-1.5901,-1.6037,-1.6083,-1.6083,-1.6083,-1.6083,-1.6083,-1.6083,-1.6083,-1.6083,-1.6083,-1.6083,-1.6083,-1.6083,-1.6083,-1.6083,-1.6083,-1.6083,-1.6083,-1.6083,-1.6083,-1.6083,-1.6083,-1.6083,-1.6083,-1.6083,-1.6083,-1.6056,-1.5764,-1.5593,-1.556,-1.5303,-1.5516,-1.5845,-1.5368,-1.6065,-1.7126,-1.6978,-1.7012,-1.7046,-1.7046,-1.7161,-1.7263,-1.7263,-1.7351,-1.7365,-1.7209,-1.7229,-1.7202,-1.706,-1.7046,-1.7046,-1.7046,-1.7093,-1.7148,-1.7188,-1.7195,-1.7127,-1.6985,-1.6978,-1.6978,-1.6978,-1.6978,-1.6978,-1.6978,-1.6978,-1.6978,-1.6978,-1.6931,-1.6856,-1.6696,-1.6608,-1.6503,-1.6307,-1.6259,-1.6178,-1.6083,-1.6083,-1.6083,-1.6083,-1.6083,-1.6151,-1.6239,-1.6239,-1.6307,-1.6374,-1.6273,-1.6239,-1.6225,-1.6117,-1.6157,-1.6239,-1.6239,-1.6239,-1.6266,-1.6361,-1.632,-1.6218,-1.611,-1.6083,-1.6083,-1.6083,-1.6083,-1.6083,-1.6083,-1.6083,-1.6083,-1.6083,-1.6083,-1.6056,-1.5967,-1.5988,-1.603,-1.5893,-1.5961,-1.6064,-1.6064,-1.6105,-1.6083,-1.6083,-1.6083,-1.6083,-1.6083,-1.6083,-1.6083,-1.6083,-1.6083,-1.6083,-1.6083,-1.6083,-1.6083,-1.6083,-1.6083,-1.6083,-1.6083,-1.6083,-1.6083,-1.6083,-1.6083,-1.6083,-1.6083,-1.6083,-1.6071,-1.5956,-1.5716,-1.5526,-1.5459,-1.5262,-1.5516,-1.5892,-1.5751,-1.6184,-1.6824,-1.6978,-1.6978,-1.6978,-1.6978,-1.7053,-1.7107,-1.7107,-1.7188,-1.7216,-1.7121,-1.7107,-1.7073,-1.6992,-1.6978,-1.6978,-1.6978,-1.706,-1.7107,-1.7107,-1.7107,-1.7073,-1.6985,-1.6978,-1.6978,-1.6978,-1.6978,-1.6978,-1.6978,-1.6978,-1.6978,-1.6978,-1.6978,-1.6897,-1.6696,-1.6696,-1.6533,-1.6313,-1.6368,-1.6307,-1.6178,-1.6232,-1.6225,-1.6178,-1.6232,-1.6279,-1.632,-1.6374,-1.6449,-1.651,-1.6422,-1.6354,-1.63,-1.6266,-1.6279,-1.632,-1.6374,-1.6395,-1.6415,-1.6497,-1.6456,-1.6374,-1.6279,-1.6252,-1.6239,-1.6185,-1.6218,-1.6239,-1.6185,-1.6218,-1.6252,-1.6252,-1.6252,-1.6252,-1.6252,-1.6205,-1.6171,-1.6171,-1.6123,-1.6083,-1.6083,-1.6083,-1.6083,-1.6083,-1.6083,-1.6083,-1.6083,-1.6083,-1.6083,-1.6083,-1.6083,-1.6083,-1.6083,-1.6083,-1.6083,-1.6083,-1.6083,-1.6083,-1.6083,-1.6083,-1.6083,-1.6083,-1.6083,-1.6049,-1.6044,-1.6044,-1.5906,-1.5757,-1.5608,-1.5445,-1.5398,-1.5242,-1.5375,-1.5603,-1.554,-1.5882,-1.6378,-1.6978,-1.6978,-1.6978,-1.6978,-1.6978,-1.6978,-1.6978,-1.6978,-1.6978,-1.6978,-1.6978,-1.6978,-1.6978,-1.6978,-1.6978,-1.6978,-1.6978,-1.6978,-1.6978,-1.6992,-1.6992,-1.6978,-1.6992,-1.6992,-1.6978,-1.6978,-1.6978,-1.6978,-1.6978,-1.6978,-1.6978,-1.6978,-1.6904,-1.6716,-1.6716,-1.656,-1.6354,-1.649,-1.6463,-1.6341,-1.6469,-1.6442,-1.6341,-1.6469,-1.6449,-1.6368,-1.6497,-1.6551,-1.6558,-1.6493,-1.6449,-1.6354,-1.6483,-1.6442,-1.6374,-1.6503,-1.6544,-1.6544,-1.6558,-1.6551,-1.6544,-1.6558,-1.6564,-1.6524,-1.6368,-1.6429,-1.6483,-1.6354,-1.6429,-1.6524,-1.6524,-1.6524,-1.6524,-1.6524,-1.6402,-1.6307,-1.6307,-1.6178,-1.6083,-1.6083,-1.6083,-1.6083,-1.6083,-1.6083,-1.6083,-1.6083,-1.6083,-1.6083,-1.6083,-1.6083,-1.6083,-1.6083,-1.6083,-1.6083,-1.6083,-1.6083,-1.6083,-1.6083,-1.6083,-1.6083,-1.6083,-1.6083,-1.6008,-1.5922,-1.5908,-1.5771,-1.558,-1.5472,-1.5404,-1.5377,-1.5235,-1.5181,-1.5167,-1.5038,-1.5352,-1.5823,-1.6978,-1.6978,-1.6978,-1.6978,-1.6978,-1.6978,-1.6978,-1.6978,-1.6978,-1.6978,-1.6978,-1.6978,-1.6978,-1.6978,-1.6978,-1.6978,-1.6978,-1.6978,-1.6978,-1.7087,-1.71,-1.6985,-1.7087,-1.7093,-1.6985,-1.6978,-1.6978,-1.6978,-1.6978,-1.6978,-1.6978,-1.6978,-1.6965,-1.6931,-1.6931,-1.6829,-1.6608,-1.6635,-1.656,-1.6476,-1.651,-1.6503,-1.6476,-1.651,-1.6527,-1.6608,-1.6635,-1.6781,-1.6863,-1.6689,-1.6547,-1.6483,-1.651,-1.6533,-1.6608,-1.6642,-1.6648,-1.6675,-1.6849,-1.6795,-1.6675,-1.6849,-1.6883,-1.6809,-1.6537,-1.6497,-1.651,-1.6483,-1.6503,-1.6524,-1.6524,-1.6524,-1.6524,-1.6524,-1.6402,-1.6307,-1.6307,-1.6178,-1.6083,-1.6083,-1.6083,-1.6083,-1.6083,-1.6083,-1.6083,-1.6083,-1.6083,-1.6083,-1.6083,-1.6083,-1.6083,-1.6083,-1.6083,-1.6083,-1.6083,-1.6083,-1.6083,-1.6083,-1.6083,-1.6083,-1.6083,-1.6083,-1.6062,-1.6029,-1.5956,-1.5771,-1.558,-1.5472,-1.5343,-1.5228,-1.5194,-1.5181,-1.5181,-1.5147,-1.5247,-1.5462,-1.687,-1.6931,-1.6978,-1.6978,-1.6978,-1.6978,-1.6978,-1.6978,-1.6978,-1.6978,-1.6978,-1.6978,-1.6978,-1.6978,-1.6978,-1.6978,-1.6978,-1.6978,-1.6978,-1.7053,-1.706,-1.6985,-1.7053,-1.706,-1.6985,-1.6978,-1.6978,-1.6978,-1.6978,-1.6978,-1.6978,-1.6978,-1.6978,-1.6978,-1.6978,-1.6897,-1.6702,-1.6777,-1.6775,-1.6588,-1.6707,-1.6693,-1.6588,-1.6714,-1.6748,-1.6696,-1.6696,-1.675,-1.687,-1.6863,-1.6702,-1.6594,-1.672,-1.6748,-1.6709,-1.6784,-1.6863,-1.6876,-1.6958,-1.6924,-1.6876,-1.6958,-1.6978,-1.6917,-1.6686,-1.6686,-1.672,-1.6594,-1.6686,-1.6741,-1.6741,-1.6741,-1.6741,-1.6741,-1.6558,-1.6408,-1.6408,-1.6218,-1.6083,-1.6083,-1.6083,-1.6083,-1.6083,-1.6083,-1.6083,-1.6083,-1.6083,-1.6083,-1.6083,-1.6083,-1.6083,-1.6083,-1.6083,-1.6083,-1.6083,-1.6083,-1.6083,-1.6083,-1.6083,-1.6083,-1.6083,-1.6083,-1.6092,-1.6017,-1.5935,-1.573,-1.552,-1.5445,-1.5323,-1.5181,-1.5181,-1.5181,-1.5174,-1.5106,-1.5079,-1.5232,-1.6696,-1.6849,-1.6951,-1.6978,-1.6978,-1.6978,-1.6978,-1.6978,-1.6978,-1.6978,-1.6978,-1.6978,-1.6978,-1.6978,-1.6978,-1.6978,-1.6978,-1.6978,-1.6978,-1.6978,-1.6978,-1.6978,-1.6978,-1.6978,-1.6978,-1.6978,-1.6978,-1.6978,-1.6978,-1.6978,-1.6978,-1.6978,-1.6978,-1.6978,-1.6978,-1.691,-1.6743,-1.6924,-1.6904,-1.675,-1.6931,-1.6904,-1.675,-1.6931,-1.6904,-1.6736,-1.6736,-1.6736,-1.6757,-1.6937,-1.6897,-1.6757,-1.6937,-1.6876,-1.6723,-1.6904,-1.6944,-1.6944,-1.6944,-1.6958,-1.6978,-1.6978,-1.6978,-1.6944,-1.677,-1.689,-1.6944,-1.6815,-1.689,-1.6978,-1.6978,-1.6978,-1.6971,-1.6944,-1.6707,-1.651,-1.649,-1.6252,-1.6083,-1.6083,-1.6083,-1.6083,-1.6083,-1.6083,-1.6083,-1.6083,-1.6083,-1.6083,-1.6083,-1.6083,-1.6083,-1.6083,-1.6083,-1.6083,-1.6083,-1.6083,-1.6083,-1.6083,-1.6083,-1.6083,-1.6083,-1.6083,-1.6064,-1.5942,-1.5888,-1.5676,-1.5445,-1.5391,-1.5296,-1.5181,-1.5181,-1.5181,-1.5167,-1.5098,-1.5011,-1.5118,-1.6669,-1.6716,-1.6822,-1.6958,-1.6978,-1.6978,-1.6978,-1.6978,-1.6978,-1.6978,-1.6978,-1.6978,-1.6978,-1.6978,-1.6978,-1.6978,-1.6978,-1.6978,-1.6978,-1.6978,-1.6978,-1.6978,-1.6978,-1.6978,-1.6978,-1.6978,-1.6978,-1.6978,-1.6978,-1.6978,-1.6978,-1.6978,-1.6978,-1.6978,-1.6978,-1.6971,-1.6951,-1.6971,-1.6971,-1.6951,-1.6971,-1.6971,-1.6951,-1.6971,-1.6971,-1.6951,-1.6951,-1.6951,-1.6951,-1.6971,-1.6965,-1.6951,-1.6971,-1.6876,-1.6702,-1.6723,-1.673,-1.673,-1.673,-1.6876,-1.6978,-1.6978,-1.6978,-1.6978,-1.6951,-1.6965,-1.6978,-1.6951,-1.6965,-1.6978,-1.6978,-1.6978,-1.6937,-1.675,-1.6639,-1.6476,-1.6354,-1.6191,-1.6083,-1.6083,-1.6083,-1.6083,-1.6083,-1.6083,-1.6083,-1.6083,-1.6083,-1.6083,-1.6083,-1.6083,-1.6083,-1.6083,-1.6083,-1.6083,-1.6083,-1.6083,-1.6083,-1.6083,-1.6083,-1.6083,-1.6083,-1.6083,-1.6069,-1.6035,-1.5778,-1.5593,-1.5539,-1.5323,-1.5201,-1.5181,-1.5181,-1.5181,-1.5181,-1.516,-1.5153,-1.5247,-1.6439,-1.6588,-1.6716,-1.6842,-1.6924,-1.6978,-1.6978,-1.6978,-1.6978,-1.6978,-1.6978,-1.6978,-1.6978,-1.6978,-1.6978,-1.6978,-1.6978,-1.6978,-1.6978,-1.6978,-1.6978,-1.6978,-1.6978,-1.6978,-1.6978,-1.6978,-1.6978,-1.6978,-1.6978,-1.6978,-1.6978,-1.6978,-1.6978,-1.6978,-1.6978,-1.6978,-1.6978,-1.6978,-1.6978,-1.6978,-1.6978,-1.6978,-1.6978,-1.6978,-1.6978,-1.6971,-1.6883,-1.6748,-1.6632,-1.6795,-1.6849,-1.687,-1.6951,-1.6937,-1.6863,-1.6723,-1.6757,-1.6863,-1.6723,-1.6863,-1.6978,-1.6978,-1.6978,-1.6978,-1.6978,-1.6978,-1.6978,-1.6978,-1.6978,-1.6978,-1.6978,-1.6978,-1.6931,-1.6723,-1.6567,-1.6469,-1.6327,-1.6178,-1.6083,-1.6083,-1.6083,-1.6083,-1.6083,-1.6083,-1.6083,-1.6083,-1.6083,-1.6083,-1.6083,-1.6083,-1.6083,-1.6083,-1.6083,-1.6083,-1.6083,-1.6083,-1.6083,-1.6083,-1.6083,-1.6083,-1.6083,-1.6083,-1.6083,-1.6069,-1.5852,-1.5716,-1.5573,-1.5398,-1.5262,-1.5181,-1.5181,-1.5181,-1.5181,-1.5181,-1.5181,-1.5228]},{"header":{"parameterUnit":"m.s-1","parameterCategory":1,"la1":30.6,"la2":28.766,"lo1":-90.7593,"lo2":-88.6598,"dy":0.0162,"dx":0.0183,"nx":116,"ny":114,"refTime":"2024-03-18T18:00:00:Z","depth":0,"parameterNumber":3,"parameterNumberName":"V-component_of_WINDS"},"data":[0.0,0.0,0.0,0.0,0.0,0.0,0.0,0.0,0.0,0.0,0.0,0.0,0.0,0.0,0.0,0.0,0.0,0.0,0.0,0.0,0.0,0.0,0.0,0.0,0.0,0.0,0.0,0.0,0.0,0.0,0.0,0.0,0.0,0.0,0.0,0.0,0.0,0.0,0.0,0.0,0.0,0.0,0.0,0.0,0.0,0.0,0.0,0.0,0.0,0.0,0.0,0.0,0.0,0.0,0.0,0.0,0.0,0.0,0.0,0.0,0.0,0.0,0.0,0.0,0.0,0.0,0.0,0.0,0.0,0.0,0.0,0.0,0.0,0.0,0.0,0.0,0.0,0.0,0.0,0.0,0.0,0.0,0.0,0.0,0.0,0.0,0.0,0.0,0.0,0.0,0.0,0.0,0.0,0.0,0.0,0.0,0.0,0.0,0.0,0.0,0.0,0.0,0.0,0.0,0.0,0.0,0.0,0.0,0.0,0.0,0.0,0.0,0.0,0.0,0.0,0.0,0.0,0.0,0.0,0.0,0.0,0.0,0.0,0.0,0.0,0.0,0.0,0.0,0.0,0.0,0.0,0.0,0.0,0.0,0.0,0.0,0.0,0.0,0.0,0.0,0.0,0.0,0.0,0.0,0.0,0.0,0.0,0.0,0.0,0.0,0.0,0.0,0.0,0.0,0.0,0.0,0.0,0.0,0.0,0.0,0.0,0.0,0.0,0.0,0.0,0.0,0.0,0.0,0.0,0.0,0.0,0.0,0.0,0.0,0.0,0.0,0.0,0.0,0.0,0.0,0.0,0.0,0.0,0.0,0.0,0.0,0.0,0.0,0.0,0.0,0.0,0.0,0.0,0.0,0.0,0.0,0.0,0.0,0.0,0.0,0.0,0.0,0.0,0.0,0.0,0.0,0.0,0.0,0.0,0.0,0.0,0.0,0.0,0.0,0.0,0.0,0.0,0.0,0.0,0.0,0.0,0.0,0.0,0.0,0.0,0.0,0.0,0.0,0.0,0.0,0.0,0.0,0.0,0.0,0.0,0.0,0.0,0.0,0.0,0.0,0.0,0.0,0.0,0.0,0.0,0.0,0.0,0.0,0.0,0.0,0.0,0.0,0.0,0.0,0.0,0.0,0.0,0.0,0.0,0.0,0.0,0.0,0.0,0.0,0.0,0.0,0.0,0.0,0.0,0.0,0.0,0.0,0.0,0.0,0.0,0.0,0.0,0.0,0.0,0.0,0.0,0.0,0.0,0.0,0.0,0.0,0.0,0.0,0.0,0.0,0.0,0.0,0.0,0.0,0.0,0.0,0.0,0.0,0.0,0.0,0.0,0.0,0.0,0.0,0.0,0.0,0.0,0.0,0.0,0.0,0.0,0.0,0.0,0.0,0.0,0.0,0.0,0.0,0.0,0.0,0.0,0.0,0.0,0.0,0.0,0.0,0.0,0.0,0.0,0.0,0.0,0.0,0.0,0.0,0.0,0.0,0.0,0.0,0.0,0.0,0.0,0.0,0.0,0.0,0.0,0.0,0.0,0.0,0.0,0.0,0.0,0.0,0.0,0.0,0.0,0.0,0.0,0.0,0.0,0.0,0.0,0.0,0.0,0.0,0.0,0.0,0.0,0.0,0.0,0.0,0.0,0.0,0.0,0.0,0.0,0.0,0.0,0.0,0.0,0.0,0.0,0.0,0.0,0.0,0.0,0.0,0.0,0.0,0.0,0.0,0.0,0.0,0.0,0.0,0.0,0.0,0.0,0.0,0.0,0.0,0.0,0.0,0.0,0.0,0.0,0.0,0.0,0.0,0.0,0.0,0.0,0.0,0.0,0.0,0.0,0.0,0.0,0.0,0.0,0.0,0.0,0.0,0.0,0.0,0.0,0.0,0.0,0.0,0.0,0.0,0.0,0.0,0.0,0.0,0.0,0.0,0.0,0.0,0.0,0.0,0.0,0.0,0.0,0.0,0.0,0.0,0.0,0.0,0.0,0.0,0.0,0.0,0.0,0.0,0.0,0.0,0.0,0.0,0.0,0.0,0.0,0.0,0.0,0.0,0.0,0.0,0.0,0.0,0.0,0.0,0.0,0.0,0.0,0.0,0.0,0.0,0.0,0.0,0.0,0.0,0.0,0.0,0.0,0.0,0.0,0.0,0.0,0.0,0.0,0.0,0.0,0.0,0.0,0.0,0.0,0.0,0.0,0.0,0.0,0.0,0.0,0.0,0.0,0.0,0.0,0.0,0.0,0.0,0.0,0.0,0.0,0.0,0.0,0.0,0.0,0.0,0.0,0.0,0.0,0.0,0.0,0.0,0.0,0.0,0.0,0.0,0.0,0.0,0.0,0.0,0.0,0.0,0.0,0.0,0.0,0.0,0.0,0.0,0.0,0.0,0.0,0.0,0.0,0.0,0.0,0.0,0.0,0.0,0.0,0.0,0.0,0.0,0.0,0.0,0.0,0.0,0.0,0.0,0.0,0.0,0.0,0.0,0.0,0.0,0.0,0.0,0.0,0.0,0.0,0.0,0.0,0.0,0.0,0.0,0.0,0.0,0.0,0.0,0.0,0.0,0.0,0.0,0.0,0.0,0.0,0.0,0.0,0.0,0.0,0.0,0.0,0.0,0.0,0.0,0.0,0.0,0.0,0.0,0.0,0.0,0.0,0.0,0.0,0.0,0.0,0.0,0.0,0.0,0.0,0.0,0.0,0.0,0.0,0.0,0.0,0.0,0.0,0.0,0.0,0.0,0.0,0.0,0.0,0.0,0.0,0.0,0.0,0.0,0.0,0.0,0.0,0.0,0.0,0.0,0.0,0.0,0.0,0.0,0.0,0.0,0.0,0.0,0.0,0.0,0.0,0.0,0.0,0.0,0.0,0.0,0.0,0.0,0.0,0.0,0.0,0.0,0.0,0.0,0.0,0.0,0.0,0.0,0.0,0.0,0.0,0.0,0.0,0.0,0.0,0.0,0.0,0.0,0.0,0.0,0.0,0.0,0.0,0.0,0.0,0.0,0.0,0.0,0.0,0.0,0.0,0.0,0.0,0.0,0.0,0.0,0.0,0.0,0.0,0.0,0.0,0.0,0.0,0.0,0.0,0.0,0.0,0.0,0.0,0.0,0.0,0.0,0.0,0.0,0.0,0.0,0.0,0.0,0.0,0.0,0.0,0.0,0.0,0.0,0.0,0.0,0.0,0.0,0.0,0.0,0.0,0.0,0.0,0.0,0.0,0.0,0.0,0.0,0.0,0.0,0.0,0.0,0.0,0.0,0.0,0.0,0.0,0.0,0.0,0.0,0.0,0.0,0.0,0.0,0.0,0.0,0.0,0.0,0.0,0.0,0.0,0.0,0.0,0.0,0.0,0.0,0.0,0.0,0.0,0.0,0.0,0.0,0.0,0.0,0.0,0.0,0.0,0.0,0.0,0.0,0.0,0.0,0.0,0.0,0.0,0.0,0.0,0.0,0.0,0.0,0.0,0.0,0.0,0.0,0.0,0.0,0.0,0.0,0.0,0.0,0.0,0.0,0.0,0.0,0.0,0.0,0.0,0.0,0.0,0.0,0.0,0.0,0.0,0.0,0.0,0.0,0.0,0.0,0.0,0.0,0.0,0.0,0.0,0.0,0.0,0.0,0.0,0.0,0.0,0.0,0.0,0.0,0.0,0.0,0.0,0.0,0.0,0.0,0.0,0.0,0.0,0.0,0.0,0.0,0.0,0.0,0.0,0.0,0.0,0.0,0.0,0.0,0.0,0.0,0.0,0.0,0.0,0.0,0.0,0.0,0.0,0.0,0.0,0.0,0.0,0.0,0.0,0.0,0.0,0.0,0.0,0.0,0.0,0.0,0.0,0.0,0.0,0.0,0.0,0.0,0.0,0.0,0.0,0.0,0.0,0.0,0.0,0.0,0.0,0.0,0.0,0.0,0.0,0.0,0.0,0.0,0.0,0.0,0.0,0.0,0.0,0.0,0.0,0.0,0.0,0.0,0.0,0.0,0.0,0.0,0.0,0.0,0.0,0.0,0.0,0.0,0.0,0.0,0.0,0.0,0.0,0.0,0.0,0.0,0.0,0.0,0.0,0.0,0.0,0.0,0.0,0.0,0.0,0.0,0.0,0.0,0.0,0.0,0.0,0.0,0.0,0.0,0.0,0.0,0.0,0.0,0.0,0.0,0.0,0.0,0.0,0.0,0.0,0.0,0.0,0.0,0.0,0.0,0.0,0.0,0.0,0.0,0.0,0.0,0.0,0.0,0.0,0.0,0.0,0.0,0.0,0.0,0.0,0.0,0.0,0.0,0.0,0.0,0.0,0.0,0.0,0.0,0.0,0.0,0.0,0.0,0.0,0.0,0.0,0.0,0.0,0.0,0.0,0.0,0.0,0.0,0.0,0.0,0.0,0.0,0.0,0.0,0.0,0.0,0.0,0.0,0.0,0.0,0.0,0.0,0.0,0.0,0.0,0.0,0.0,0.0,0.0,0.0,0.0,0.0,0.0,0.0,0.0,0.0,0.0,0.0,0.0,0.0,0.0,0.0,0.0,0.0,0.0,0.0,0.0,0.0,0.0,0.0,0.0,0.0,0.0,0.0,0.0,0.0,0.0,0.0,0.0,0.0,0.0,0.0,0.0,0.0,0.0,0.0,0.0,0.0,0.0,0.0,0.0,0.0,0.0,0.0,0.0,0.0,0.0,0.0,0.0,0.0,0.0,0.0,0.0,0.0,0.0,0.0,0.0,0.0,0.0,0.0,0.0,0.0,0.0,0.0,0.0,0.0,0.0,0.0,0.0,0.0,0.0,0.0,0.0,0.0,0.0,0.0,0.0,0.0,0.0,0.0,0.0,0.0,0.0,0.0,0.0,0.0,0.0,0.0,0.0,0.0,0.0,0.0,0.0,0.0,0.0,0.0,0.0,0.0,0.0,0.0,0.0,0.0,0.0,0.0,0.0,0.0,0.0,0.0,0.0,0.0,0.0,0.0,0.0,0.0,0.0,0.0,0.0,0.0,0.0,0.0,0.0,0.0,0.0,0.0,0.0,0.0,0.0,0.0,0.0,0.0,0.0,0.0,0.0,0.0,0.0,0.0,0.0,0.0,0.0,0.0,0.0,0.0,0.0,0.0,0.0,0.0,0.0,0.0,0.0,0.0,0.0,0.0,0.0,0.0,0.0,0.0,0.0,0.0,0.0,0.0,0.0,0.0,0.0,0.0,0.0,0.0,0.0,0.0,0.0,0.0,0.0,0.0,0.0,0.0,0.0,0.0,0.0,0.0,0.0,0.0,0.0,0.0,0.0,0.0,0.0,0.0,0.0,0.0,0.0,0.0,0.0,0.0,0.0,0.0,0.0,0.0,0.0,0.0,0.0,0.0,0.0,0.0,0.0,0.0,0.0,0.0,0.0,0.0,0.0,0.0,0.0,0.0,0.0,0.0,0.0,0.0,0.0,0.0,0.0,0.0,0.0,0.0,0.0,0.0,0.0,0.0,0.0,0.0,0.0,0.0,0.0,0.0,0.0,0.0,0.0,0.0,0.0,0.0,0.0,0.0,0.0,0.0,0.0,0.0,0.0,0.0,0.0,0.0,0.0,0.0,0.0,0.0,0.0,0.0,0.0,0.0,0.0,0.0,0.0,0.0,0.0,0.0,0.0,0.0,0.0,0.0,0.0,0.0,0.0,0.0,0.0,0.0,0.0,0.0,0.0,0.0,0.0,0.0,0.0,0.0,0.0,0.0,0.0,0.0,0.0,0.0,0.0,0.0,0.0,0.0,0.0,0.0,0.0,0.0,0.0,0.0,0.0,0.0,0.0,0.0,0.0,0.0,0.0,0.0,0.0,0.0,0.0,0.0,0.0,0.0,0.0,0.0,0.0,0.0,0.0,0.0,0.0,0.0,0.0,0.0,0.0,0.0,0.0,0.0,0.0,0.0,0.0,0.0,0.0,0.0,0.0,0.0,0.0,0.0,0.0,0.0,0.0,0.0,0.0,0.0,0.0,0.0,0.0,0.0,0.0,0.0,0.0,0.0,0.0,0.0,0.0,0.0,0.0,0.0,0.0,0.0,0.0,0.0,0.0,0.0,0.0,0.0,0.0,0.0,0.0,0.0,0.0,0.0,5.0934,4.9702,0.0,0.0,0.0,0.0,0.0,0.0,0.0,0.0,0.0,0.0,0.0,0.0,0.0,0.0,0.0,0.0,0.0,0.0,0.0,0.0,0.0,0.0,0.0,0.0,0.0,0.0,5.1888,5.204,5.2469,5.2337,0.0,0.0,0.0,0.0,5.3103,5.2349,5.2737,5.4326,5.3868,5.4228,5.5364,5.5246,5.3266,4.9789,0.0,0.0,0.0,0.0,0.0,0.0,0.0,0.0,0.0,0.0,0.0,0.0,0.0,0.0,0.0,0.0,0.0,0.0,0.0,0.0,0.0,0.0,0.0,0.0,0.0,0.0,0.0,0.0,0.0,0.0,0.0,0.0,0.0,0.0,0.0,0.0,0.0,0.0,0.0,0.0,0.0,0.0,0.0,0.0,0.0,0.0,0.0,0.0,0.0,0.0,0.0,0.0,0.0,0.0,0.0,0.0,0.0,0.0,0.0,0.0,0.0,0.0,0.0,0.0,0.0,0.0,0.0,0.0,0.0,0.0,5.4809,5.3067,0.0,0.0,0.0,0.0,0.0,0.0,0.0,0.0,0.0,0.0,0.0,0.0,0.0,0.0,0.0,0.0,0.0,0.0,0.0,0.0,0.0,0.0,0.0,5.2674,5.2601,5.3544,5.3361,5.3251,5.3398,5.3176,5.3013,5.3013,5.3013,5.3013,5.3013,5.3282,5.4535,5.6811,5.6822,5.796,6.0077,6.0884,5.8307,5.2967,5.2212,0.0,0.0,0.0,0.0,0.0,0.0,0.0,0.0,0.0,0.0,0.0,0.0,0.0,0.0,0.0,0.0,0.0,0.0,0.0,0.0,0.0,0.0,0.0,0.0,0.0,0.0,0.0,0.0,0.0,0.0,0.0,0.0,0.0,0.0,0.0,0.0,0.0,0.0,0.0,0.0,0.0,0.0,0.0,0.0,0.0,0.0,0.0,0.0,0.0,0.0,0.0,0.0,0.0,0.0,0.0,0.0,0.0,0.0,0.0,0.0,0.0,0.0,0.0,6.4312,6.4679,6.4271,6.3902,6.3716,6.3484,6.0212,5.814,5.694,5.551,0.0,0.0,0.0,0.0,0.0,0.0,0.0,0.0,0.0,0.0,0.0,0.0,0.0,0.0,0.0,0.0,0.0,0.0,0.0,0.0,0.0,5.3508,5.3665,5.5144,5.3995,5.3508,5.4216,5.357,5.3156,5.3156,5.3156,5.3156,5.3156,5.3875,5.5097,5.6811,6.0187,6.2401,6.3478,6.4273,6.4174,6.3159,5.8927,5.7019,5.6847,0.0,0.0,0.0,0.0,0.0,0.0,0.0,0.0,0.0,0.0,0.0,0.0,0.0,0.0,0.0,0.0,0.0,0.0,0.0,0.0,0.0,0.0,0.0,0.0,0.0,0.0,0.0,0.0,0.0,0.0,0.0,0.0,0.0,0.0,0.0,0.0,0.0,0.0,0.0,0.0,0.0,5.7777,5.7158,0.0,0.0,0.0,0.0,0.0,0.0,0.0,0.0,0.0,0.0,0.0,0.0,0.0,6.3009,6.3205,6.6112,6.7146,6.6393,6.9471,7.0112,6.8603,6.92,6.9505,6.9454,6.8945,0.0,6.037,5.9271,0.0,0.0,0.0,0.0,0.0,0.0,0.0,0.0,0.0,0.0,0.0,0.0,0.0,0.0,0.0,0.0,0.0,0.0,0.0,0.0,0.0,5.6223,5.7214,5.8852,5.9171,5.8694,5.7214,5.6774,5.5746,5.3959,5.3434,5.3398,5.3849,5.5097,5.7655,6.1582,6.5618,6.7784,6.8164,6.8972,6.9105,6.8591,6.6426,6.371,6.0591,5.8731,0.0,0.0,0.0,0.0,0.0,0.0,0.0,0.0,0.0,0.0,0.0,0.0,0.0,0.0,0.0,0.0,0.0,0.0,0.0,0.0,0.0,0.0,0.0,0.0,0.0,0.0,0.0,0.0,0.0,0.0,0.0,0.0,0.0,0.0,0.0,0.0,0.0,0.0,0.0,5.6836,5.803,5.7118,5.7813,5.7352,0.0,0.0,0.0,0.0,0.0,0.0,0.0,0.0,0.0,6.5417,6.7917,6.9459,6.9992,7.2776,7.4114,7.4055,7.5995,7.648,7.5628,7.5503,7.5195,7.4706,7.4211,7.1905,6.8211,6.5073,6.1873,5.88,0.0,0.0,0.0,0.0,5.4821,5.4362,0.0,0.0,0.0,0.0,0.0,0.0,0.0,0.0,0.0,0.0,0.0,0.0,5.7508,5.8976,6.0627,6.2658,6.3625,6.3135,6.0921,5.96,5.7802,5.5427,5.3948,5.3654,5.4693,5.7703,6.1765,6.683,7.0866,7.2958,7.3179,7.4001,7.4037,7.3472,7.3472,7.0426,6.5141,6.3319,6.0823,0.0,0.0,0.0,0.0,0.0,0.0,0.0,0.0,0.0,0.0,0.0,0.0,0.0,0.0,0.0,0.0,0.0,0.0,0.0,0.0,0.0,0.0,0.0,0.0,0.0,0.0,0.0,0.0,0.0,0.0,0.0,0.0,0.0,0.0,0.0,0.0,0.0,0.0,5.8097,5.9148,5.8002,6.0201,6.0469,0.0,0.0,0.0,0.0,0.0,0.0,6.6144,6.8519,7.0368,7.1486,7.4454,7.6368,7.7069,7.9103,8.0344,8.0715,8.1183,8.13,8.1133,8.0277,7.9533,7.8864,7.7933,7.6706,7.4986,7.0157,6.6257,6.3216,6.1503,5.9361,5.7418,5.8857,5.8471,5.765,0.0,0.0,0.0,0.0,0.0,0.0,0.0,0.0,0.0,0.0,0.0,5.6723,5.9869,6.097,6.2768,6.5962,6.4947,6.4347,6.4958,6.0639,5.7997,5.7813,5.484,5.3922,5.5511,6.2401,6.765,7.1013,7.505,7.7436,7.8259,7.9082,7.9412,7.9376,7.9376,7.6607,7.1725,6.7086,6.4995,6.4261,0.0,0.0,0.0,0.0,0.0,0.0,0.0,0.0,0.0,0.0,0.0,0.0,0.0,0.0,0.0,0.0,0.0,0.0,0.0,0.0,0.0,0.0,0.0,0.0,0.0,0.0,0.0,0.0,0.0,0.0,0.0,0.0,0.0,0.0,0.0,0.0,0.0,0.0,0.0,6.1557,6.6076,0.0,0.0,0.0,0.0,6.5661,6.7258,6.963,7.2819,7.5345,7.7495,7.9176,8.1619,8.2941,8.2977,8.3875,8.4231,8.4044,8.3518,8.3151,8.2963,8.2142,8.1639,8.136,8.0424,7.9436,7.8103,7.3249,6.9394,6.6402,6.4794,6.2693,6.0665,6.1656,6.1455,6.09,0.0,0.0,0.0,0.0,0.0,0.0,0.0,0.0,5.2711,5.3508,5.6113,5.8939,6.1655,6.5925,6.9486,7.1725,7.2826,7.2422,7.011,6.5411,6.2475,6.1961,5.7813,5.7997,6.3258,6.7981,7.2202,7.6019,7.8463,8.0131,8.0901,8.1211,8.1358,8.1321,8.0791,7.9874,7.8442,7.4111,6.9853,6.5815,6.2989,5.9465,0.0,0.0,0.0,0.0,0.0,0.0,0.0,0.0,0.0,0.0,0.0,0.0,0.0,0.0,0.0,0.0,0.0,0.0,0.0,0.0,0.0,0.0,0.0,0.0,0.0,0.0,0.0,0.0,0.0,0.0,0.0,0.0,0.0,0.0,0.0,0.0,0.0,6.7724,7.0948,0.0,6.8866,7.0708,7.2439,7.3266,7.5809,7.8039,7.9757,8.1681,8.3034,8.3634,8.549,8.6481,8.6481,8.7271,8.764,8.7587,8.7346,8.696,8.6358,8.5431,8.4616,8.3803,8.1843,8.0706,8.0006,7.671,7.3776,7.1189,6.9611,6.7836,6.6257,6.6591,6.588,6.4865,0.0,0.0,0.0,0.0,0.0,0.0,0.0,0.0,5.3004,5.462,5.7618,6.1068,6.4848,6.9853,7.378,7.5983,7.7378,7.69,7.3927,6.8678,6.5338,6.453,6.1153,6.2144,6.8361,7.2202,7.6114,8.0241,8.1562,8.2774,8.3801,8.3544,8.3544,8.3801,8.3251,8.303,8.281,8.0131,7.5249,6.9229,6.7857,6.4657,6.0478,0.0,0.0,0.0,0.0,0.0,0.0,0.0,0.0,0.0,0.0,0.0,0.0,0.0,0.0,0.0,0.0,0.0,0.0,0.0,0.0,0.0,0.0,0.0,0.0,0.0,0.0,0.0,0.0,0.0,0.0,0.0,0.0,0.0,0.0,6.6893,7.0624,7.1931,7.5711,7.7341,7.5175,7.7378,7.9213,7.9711,8.2296,8.4168,8.4959,8.6554,8.7435,8.7435,8.872,8.9417,8.9417,8.9931,9.0207,9.0207,8.9913,8.951,8.8977,8.8046,8.7063,8.6008,8.397,8.2538,8.1435,7.9244,7.707,7.5054,7.3358,7.1748,7.0351,7.0097,6.9155,6.7981,0.0,0.0,0.0,0.0,0.0,0.0,0.0,5.3177,5.4315,5.7556,5.9465,6.2952,6.9412,7.2349,7.519,7.8405,7.7913,7.7032,7.6203,7.0146,6.6219,6.5362,6.4751,6.6305,7.033,7.505,7.9491,8.3564,8.4352,8.5527,8.7051,8.6261,8.6334,8.7051,8.7051,8.6187,8.4756,8.4719,8.1048,7.5014,7.2481,7.0307,6.7983,0.0,0.0,0.0,0.0,0.0,0.0,0.0,0.0,0.0,0.0,0.0,0.0,0.0,0.0,0.0,0.0,0.0,0.0,0.0,0.0,0.0,0.0,0.0,0.0,0.0,0.0,0.0,0.0,0.0,0.0,0.0,0.0,0.0,6.4506,7.055,7.4808,7.4147,8.0388,8.3544,8.044,8.2994,8.4866,8.4866,8.6317,8.7582,8.8353,8.9858,9.0739,9.0739,9.1436,9.184,9.184,9.1803,9.1803,9.1803,9.1033,9.0629,9.0629,8.9767,8.8853,8.7868,8.6902,8.5008,8.2502,8.0674,7.9113,7.7688,7.5818,7.4158,7.269,7.1893,7.1112,7.0113,0.0,0.0,0.0,0.0,0.0,0.0,0.0,5.2711,5.3482,5.6712,6.0603,6.4861,6.9596,7.4896,7.8699,8.0204,8.0115,7.9124,7.7105,7.149,6.7614,6.6219,6.9889,7.356,7.7063,8.0167,8.3418,8.6885,8.7105,8.7729,8.8739,8.8519,8.8519,8.8702,8.8133,8.7949,8.8042,8.7472,8.549,8.237,7.7582,7.3588,7.0173,0.0,0.0,0.0,0.0,0.0,0.0,0.0,0.0,0.0,0.0,0.0,0.0,0.0,0.0,0.0,0.0,0.0,0.0,0.0,0.0,0.0,0.0,0.0,0.0,0.0,0.0,0.0,0.0,0.0,0.0,0.0,6.6719,7.066,7.1005,7.5337,7.9433,8.2166,8.5783,8.7968,8.7655,8.9528,9.0776,9.0776,9.1693,9.2391,9.2611,9.3051,9.3272,9.3272,9.2941,9.2758,9.2758,9.2134,9.1803,9.1803,9.1583,9.1473,9.1436,9.0024,8.9146,8.8654,8.6643,8.4896,8.3301,8.1049,7.9818,7.9025,7.6203,7.4928,7.4551,7.3752,7.2632,7.1211,0.0,0.0,0.0,0.0,0.0,0.0,0.0,5.2821,5.3885,5.7802,6.1704,6.6012,7.1078,7.5873,7.9213,8.0388,7.9874,7.839,7.5931,7.1798,6.9449,6.9522,7.3964,7.7965,8.1232,8.3675,8.6481,8.9711,8.905,8.9674,9.1436,9.0391,9.028,9.0904,9.0078,8.9784,8.9877,8.9417,8.8463,8.6995,8.3344,7.959,7.5851,7.25,7.0481,6.8976,6.5789,6.5016,6.5225,6.3297,0.0,0.0,0.0,0.0,0.0,0.0,0.0,0.0,0.0,0.0,0.0,0.0,0.0,0.0,0.0,0.0,0.0,0.0,0.0,0.0,0.0,0.0,0.0,0.0,7.1688,7.5909,7.8405,8.0807,8.3451,8.6444,8.8977,9.0776,9.1583,9.3125,9.3969,9.3639,9.4336,9.4666,9.4299,9.463,9.4666,9.4299,9.4153,9.3786,9.3125,9.2611,9.217,9.1803,9.1803,9.1803,9.1767,9.0849,9.0153,8.9605,8.7793,8.606,8.4351,8.2204,8.0809,7.9816,0.0,0.0,0.0,0.0,7.3505,7.2131,0.0,0.0,0.0,0.0,0.0,0.0,0.0,5.3214,5.4939,5.9758,6.2548,6.6526,7.2877,7.5711,7.7839,7.9522,7.8222,7.6335,7.4111,7.2055,7.1945,7.4309,7.7598,8.0828,8.3858,8.6207,8.8904,9.195,9.0501,9.1363,9.4226,9.206,9.1803,9.3198,9.2427,9.1693,9.1033,9.1033,9.0501,8.962,8.8904,8.6484,8.2853,7.8452,7.6595,7.575,7.1301,6.8939,6.767,6.6025,0.0,0.0,0.0,0.0,0.0,0.0,0.0,0.0,0.0,0.0,0.0,0.0,0.0,0.0,0.0,0.0,0.0,0.0,0.0,0.0,0.0,0.0,0.0,0.0,7.6827,8.0718,8.527,8.6261,8.6995,8.8426,9.0794,9.2611,9.3418,9.4906,9.553,9.4887,9.5511,9.5584,9.4887,9.5511,0.0,0.0,0.0,9.4906,9.3382,9.3198,9.2721,9.195,9.184,9.1803,9.1803,9.162,9.1143,9.0391,8.9348,8.7519,8.5215,8.3543,8.1778,7.9938,7.7642,7.7176,7.7556,7.5368,7.4041,7.3146,0.0,0.0,0.0,0.0,0.0,0.0,0.0,5.3214,5.4939,5.9758,6.2548,6.6305,7.2092,7.4882,7.7011,7.8699,7.7876,7.6812,7.5726,7.5821,7.6702,7.8531,8.2349,8.5306,8.7215,8.9014,9.0886,9.2868,9.2537,9.3051,9.4299,9.3822,9.3749,9.4042,9.3896,9.3712,9.3565,9.3565,9.2721,9.1326,9.1179,8.8771,8.4939,8.2088,8.041,7.9166,7.5875,7.5631,7.6513,7.4455,7.2679,7.1092,6.9375,0.0,0.0,0.0,0.0,0.0,0.0,0.0,0.0,0.0,0.0,0.0,0.0,0.0,0.0,0.0,0.0,0.0,0.0,0.0,0.0,7.4133,7.905,8.3491,8.6354,8.9014,9.0739,9.1069,9.3308,9.5144,9.5914,9.6869,9.764,9.8154,9.8337,9.8337,9.819,9.8337,9.8043,9.7236,9.6722,9.6025,9.5051,9.3749,9.3015,9.2831,9.2134,0.0,9.1767,9.0482,8.9767,8.9546,8.8043,8.6306,8.4447,8.3442,8.1323,7.8622,7.8005,7.7748,7.7609,7.6151,7.5478,7.5222,0.0,0.0,0.0,0.0,0.0,0.0,0.0,5.3544,5.5097,5.8731,6.1667,6.5007,6.9045,7.1284,7.2679,7.312,7.2753,7.3193,7.4771,7.6827,7.9396,8.268,8.5894,8.8353,8.9968,9.1216,9.2648,9.4299,9.3896,9.4299,9.5474,9.4666,9.452,9.4887,9.4483,9.4299,9.4263,9.3859,9.3235,9.2427,9.1987,9.0115,8.7399,8.538,8.3505,8.1754,8.0278,7.9915,7.9872,7.7999,7.5983,7.3971,7.219,6.9235,6.583,0.0,0.0,0.0,0.0,0.0,0.0,0.0,0.0,0.0,0.0,0.0,0.0,0.0,0.0,6.7136,6.9119,0.0,7.5637,7.969,8.3104,8.6023,8.8445,9.1253,9.2905,9.2501,9.4263,9.5822,9.6612,9.7787,9.8668,9.9052,9.9475,9.9512,9.9125,9.9475,9.9145,9.7953,9.7897,9.7126,9.5528,9.4299,9.3492,9.3088,9.2207,9.1803,9.1767,9.0555,8.9987,8.9913,8.8316,8.6613,8.4877,8.2777,8.0934,7.9418,7.848,7.7899,7.742,7.6386,7.5962,7.5733,0.0,0.0,0.0,0.0,0.0,0.0,0.0,5.3875,5.528,5.7666,6.0517,6.3196,6.5521,6.71,6.776,6.7297,6.7958,7.011,7.4147,7.7781,8.1782,8.6297,8.8666,9.0537,9.2024,9.2905,9.4042,9.5493,9.4997,9.5437,9.6685,9.5364,9.5107,9.5675,9.507,9.4777,9.4703,9.3896,9.3492,9.3272,9.2391,9.0996,8.9253,8.7968,8.5877,8.3601,8.3454,8.228,8.0608,7.9433,7.7635,7.5529,7.3758,7.1959,6.9665,6.5275,6.5041,0.0,0.0,0.0,0.0,0.0,0.0,0.0,0.0,6.2658,6.398,6.6609,6.9119,7.1762,7.5014,7.7326,8.0262,8.5013,8.6738,8.8262,9.0519,9.2831,9.4116,9.3639,9.485,9.6061,9.6869,9.8264,9.9181,9.9328,10.0099,10.0283,9.9622,9.9989,9.9622,9.8154,9.8631,9.786,9.5749,9.4923,9.4116,9.3308,9.2464,9.195,9.1767,9.0959,9.0519,9.0244,8.8316,8.6775,8.5306,8.1928,8.0544,8.0361,7.8734,7.7788,7.7215,7.6555,7.6259,7.5931,0.0,0.0,0.0,0.0,0.0,0.0,0.0,0.0,5.528,5.7666,5.9575,6.1325,6.3013,6.4053,6.4897,6.5508,6.8848,7.2591,7.6628,8.1289,8.5453,8.8849,9.0629,9.1987,9.2941,9.3749,9.4593,9.5492,9.6135,9.6502,9.6685,9.6502,9.6465,9.6575,9.6465,9.6428,9.6392,9.5584,9.4813,9.4079,9.3272,9.1546,8.9363,8.9216,8.7198,8.4389,8.3638,8.1929,8.0036,8.0534,8.0057,7.9082,7.8137,7.7151,7.5564,7.1488,0.0,6.5118,6.3686,6.245,6.2034,6.3894,6.338,6.4114,0.0,7.055,7.0036,7.3179,7.5799,7.7635,7.8112,8.1269,8.4242,8.558,8.7692,8.973,9.1436,9.3198,9.452,9.5161,9.6025,9.6869,9.7676,9.8557,9.9402,10.0099,10.0907,10.1274,10.12,10.0613,9.9879,9.8998,9.8374,9.7566,9.6575,9.5768,9.496,9.4153,9.3345,9.2537,9.1767,9.0959,9.0207,8.9363,8.6334,8.4903,8.4499,8.1252,7.9895,7.9748,7.8065,7.7384,7.7289,7.7215,7.7086,7.6868,0.0,0.0,0.0,0.0,0.0,0.0,0.0,0.0,0.0,5.6429,5.7997,5.9428,6.0591,6.0187,5.9979,6.0334,6.4921,6.9692,7.4206,8.0828,8.604,8.9253,9.0959,9.2207,9.3088,9.3896,9.4703,9.5492,9.6318,9.6685,9.6685,9.6685,9.6685,9.6685,9.6685,9.6428,9.5951,9.5144,9.4336,9.3492,9.217,9.0482,8.861,8.7655,8.5306,8.248,8.2096,8.0131,0.0,0.0,7.6937,7.6292,7.6423,7.5234,7.3399,7.1233,6.9412,0.0,6.71,6.5705,6.4714,6.5742,6.6866,6.8554,7.16,7.2606,7.3546,7.5821,7.8662,8.0828,8.1305,8.3911,8.6591,8.8316,8.9858,9.1436,9.3015,9.4263,9.496,9.4813,9.5914,9.7016,9.7843,9.819,9.8924,10.0209,10.0613,10.098,10.1514,10.122,10.0393,9.9145,9.8778,9.8007,9.6722,9.5437,9.463,9.4263,9.2978,9.2134,9.1767,9.0464,8.9216,8.7858,8.56,8.4609,8.4389,8.1636,8.0204,7.9669,7.8516,7.7766,7.7289,7.7289,7.7243,7.7086,0.0,0.0,0.0,0.0,0.0,0.0,0.0,0.0,0.0,0.0,5.6717,5.7886,5.8462,5.7104,5.6235,5.6455,6.1471,6.6646,7.1505,7.9213,8.5233,8.8923,9.0629,9.1987,9.3088,9.3675,9.4373,9.518,9.5988,9.6392,9.6392,9.6392,9.6392,9.6355,9.6135,9.5694,9.5144,9.4299,9.3492,9.2611,9.0941,8.916,8.7362,8.5747,8.2737,7.936,7.958,7.7561,0.0,0.0,7.2532,7.2106,7.2459,7.1674,7.0499,6.9926,6.9596,6.9192,6.8201,6.754,6.732,6.7981,7.0403,7.2812,7.3487,7.516,7.7032,7.8647,8.1048,8.3104,8.3911,8.6023,8.8225,8.9987,9.1363,9.2721,9.4079,9.4813,9.496,9.4373,9.5144,9.6025,9.6832,9.7512,9.8374,9.9548,9.9842,10.0319,10.109,10.0686,10.0099,9.9145,9.8668,9.7897,9.6722,9.5327,9.452,9.4263,9.2831,9.2024,9.173,9.0134,8.8776,8.7565,8.549,8.4609,8.4425,8.2003,8.0534,7.9706,7.8919,7.806,7.7289,7.7289,7.7289,7.7179,0.0,0.0,0.0,0.0,0.0,0.0,0.0,0.0,0.0,0.0,0.0,0.0,0.0,5.5427,5.4803,5.5585,6.0089,6.4958,6.9853,7.7047,8.3251,8.8023,8.9784,9.14,9.3051,9.3125,9.3529,9.4336,9.5144,9.5528,9.5528,9.5528,9.5528,9.5492,9.4703,9.4336,9.4263,9.3492,9.2648,9.1693,9.0097,8.8023,8.571,8.4095,7.9968,7.5197,7.5983,0.0,0.0,0.0,6.7921,6.7737,6.699,6.7797,0.0,6.8921,6.8385,6.7444,6.5852,6.7086,6.9398,7.1725,7.4147,7.657,7.9008,8.0204,8.1269,8.2867,8.3895,8.4756,8.5563,8.7692,8.9363,8.9436,9.1455,9.3345,9.4189,9.4299,9.4336,9.4299,9.3639,9.3529,9.4336,9.6521,9.7897,9.797,9.8704,9.9512,10.0283,9.8851,9.8337,9.9071,9.7603,9.6759,9.6685,9.5878,9.507,9.4299,9.3455,9.2611,9.173,9.0134,8.9363,8.9143,8.6004,8.4609,8.4425,8.2003,8.0534,7.9706,7.8919,7.806,7.7289,7.7289,7.7289,7.7179,0.0,0.0,0.0,0.0,0.0,0.0,0.0,0.0,0.0,0.0,0.0,0.0,0.0,0.0,0.0,0.0,5.8242,6.2499,6.7393,7.4001,7.969,8.4022,8.7785,9.006,9.0611,9.2281,9.3235,9.3492,9.4299,9.4703,9.4703,9.4703,9.4703,9.4703,9.441,9.4006,9.3455,9.2611,9.1143,8.9271,8.7655,8.5563,8.3177,8.1012,7.7341,7.2995,0.0,0.0,0.0,0.0,6.3209,6.3699,6.3967,6.4053,6.4053,6.4053,6.5411,6.7136,6.8201,7.0257,7.2789,7.5799,7.7965,7.9727,8.1085,8.2003,8.2757,8.3271,8.3601,8.3895,8.4168,8.5747,8.7362,8.8426,9.1143,9.3382,9.4189,9.5217,9.5107,9.296,9.3896,9.4153,9.2758,9.4373,9.6171,9.7787,9.8154,9.8631,9.9475,9.8998,9.8594,9.83,9.7787,9.6979,9.5895,9.5107,9.4299,9.3492,9.2648,9.151,9.017,8.9657,8.8812,8.7675,8.5527,8.4609,8.4425,8.2003,8.0534,7.9706,7.8919,7.806,7.7289,7.7289,7.7289,7.7252,0.0,0.0,0.0,0.0,0.0,0.0,0.0,0.0,0.0,0.0,0.0,0.0,0.0,0.0,0.0,0.0,0.0,5.993,6.3649,6.9412,7.4478,7.8552,8.2003,8.4188,8.5069,8.606,8.7178,8.8353,8.9417,9.0408,9.1289,9.184,9.195,9.1693,9.1693,9.1544,9.1167,9.0111,8.8216,8.5767,8.3937,8.1232,7.8075,7.5946,7.2606,0.0,0.0,0.0,0.0,5.9453,5.9648,6.0346,6.0591,6.108,6.1716,6.234,6.4787,6.8017,7.0991,7.3377,7.5763,7.9066,8.0901,8.215,8.3251,8.3875,8.4168,8.3895,8.3821,8.3638,8.3104,8.4058,8.5453,8.7068,8.9858,9.2281,9.3675,9.4777,9.4666,9.2574,9.3418,9.3675,9.2391,9.3235,9.463,9.6465,9.6869,9.7383,9.819,9.8264,9.8154,9.7916,9.7603,9.6832,9.5492,9.4703,9.3749,9.2648,9.206,9.1253,9.0244,8.9657,8.8849,8.7748,8.5857,8.4866,8.4462,8.2627,8.1048,7.9743,7.9229,7.8332,7.7289,7.7289,7.7289,7.7289,0.0,0.0,0.0,0.0,0.0,0.0,0.0,0.0,0.0,0.0,0.0,0.0,0.0,0.0,0.0,0.0,0.0,0.0,5.8999,6.3552,6.7944,7.1908,7.3046,7.4661,7.6959,7.5637,7.6423,7.9559,8.1085,8.2994,8.5286,8.6848,8.7178,8.6427,8.65,8.6799,8.7253,8.5885,8.3751,8.1139,7.9072,7.5359,7.094,6.9362,0.0,0.0,0.0,0.0,0.0,5.6785,5.7336,5.796,5.7288,5.9281,6.212,6.3846,6.6659,7.0073,7.3949,7.6335,7.8427,8.1636,8.303,8.3968,8.5563,8.5837,8.549,8.4682,8.4389,8.3728,0.0,8.2553,8.3691,8.527,8.7766,9.0317,9.2758,9.3198,9.3235,9.3125,9.2427,9.2281,9.3015,9.3125,9.3492,9.4226,9.507,9.5859,9.6649,9.6685,9.7052,9.7787,9.7089,9.6318,9.5492,9.4666,9.3418,9.1803,9.1803,9.1767,9.162,9.0097,8.9363,8.9143,8.6775,8.5306,8.4535,8.3601,8.1856,7.9779,7.9706,7.8699,7.7289,7.7289,7.7289,7.7289,0.0,0.0,0.0,0.0,0.0,0.0,0.0,0.0,0.0,0.0,0.0,0.0,0.0,0.0,0.0,0.0,0.0,0.0,5.7624,6.0413,6.3246,0.0,0.0,0.0,0.0,0.0,0.0,7.6166,7.6555,7.7069,7.7708,7.8699,7.9066,7.8919,7.9491,7.9842,7.9925,7.8997,7.7154,7.4763,0.0,7.1358,6.8495,0.0,0.0,0.0,0.0,0.0,0.0,5.6308,5.7226,5.9159,6.0774,6.2683,6.4787,6.7026,7.0389,7.3839,7.6078,7.9638,8.3251,8.527,8.5913,8.6354,8.7362,8.6187,8.4682,8.3858,8.1289,7.8683,7.7084,7.8442,8.0351,8.1966,8.6775,9.0959,9.2831,9.4666,9.5107,9.3308,9.3969,9.4189,9.3198,9.3639,9.4079,9.4263,9.507,9.5859,9.6649,9.6685,9.6795,9.7016,9.6795,9.6318,9.5492,9.4116,9.2868,9.1803,9.1803,9.1179,8.9987,8.9583,8.8739,8.7491,8.571,8.4792,8.4389,8.1782,8.0367,7.9669,7.8442,7.7693,7.7289,7.7289,7.7289,7.7289,0.0,0.0,0.0,0.0,0.0,0.0,0.0,0.0,0.0,0.0,0.0,0.0,0.0,0.0,0.0,0.0,0.0,0.0,0.0,5.7233,5.8906,0.0,0.0,0.0,0.0,0.0,0.0,0.0,0.0,0.0,0.0,7.2018,7.2239,7.1908,7.2716,7.3204,7.3384,0.0,0.0,0.0,0.0,0.0,0.0,0.0,0.0,0.0,0.0,0.0,0.0,0.0,5.9648,6.1215,6.3637,6.5802,6.7944,7.072,7.3891,7.7047,7.9344,8.2757,8.5894,8.6757,8.7288,8.7362,8.6775,8.5563,8.3654,8.0335,7.8133,7.5968,7.3303,7.5102,7.7745,8.0094,8.527,8.9968,9.2721,9.4556,9.529,9.4263,9.4941,9.5161,9.4244,9.4556,9.496,9.5327,9.5437,9.5675,9.6171,9.6502,9.6685,9.6685,9.6355,9.5621,9.4464,9.3161,9.2281,9.1803,9.1803,9.1326,9.0445,8.973,8.8923,8.7968,8.6354,8.527,8.4462,8.2663,8.1064,7.9706,7.8772,7.7949,7.7289,7.7289,7.7289,7.7289,0.0,0.0,0.0,0.0,0.0,0.0,0.0,0.0,0.0,0.0,0.0,0.0,0.0,0.0,0.0,0.0,0.0,0.0,0.0,0.0,0.0,0.0,0.0,0.0,0.0,0.0,0.0,0.0,0.0,0.0,0.0,0.0,0.0,0.0,0.0,0.0,0.0,0.0,0.0,0.0,0.0,0.0,0.0,0.0,0.0,0.0,0.0,0.0,0.0,0.0,6.3306,6.3783,6.6586,6.9045,7.1541,7.4757,7.7378,7.9874,8.2904,8.5473,8.7344,8.7455,8.7839,8.7619,8.5416,8.4242,8.1966,7.6114,7.4955,7.3891,7.0293,7.2349,7.5689,7.9082,8.3765,8.8445,9.2684,9.3932,9.4777,9.5584,9.5639,9.5639,9.5639,9.5639,9.5951,9.6649,9.6061,9.5639,9.5639,9.6318,9.6685,9.6685,9.6025,9.4887,9.3272,9.2501,9.2024,9.1803,9.1803,9.1693,9.1436,9.0024,8.929,8.8996,8.7491,8.6004,8.4572,8.4389,8.2517,7.9779,7.9669,7.8699,7.7289,7.7289,7.7289,7.7289,0.0,0.0,0.0,0.0,0.0,0.0,0.0,0.0,0.0,0.0,5.6211,5.5377,0.0,0.0,0.0,0.0,0.0,0.0,0.0,0.0,0.0,0.0,0.0,0.0,0.0,0.0,0.0,0.0,0.0,0.0,0.0,0.0,0.0,0.0,0.0,0.0,0.0,0.0,0.0,0.0,0.0,0.0,0.0,0.0,0.0,0.0,0.0,0.0,0.0,0.0,6.5852,6.6623,7.1064,7.3634,7.5689,7.8993,8.1179,8.2977,8.4866,8.7142,8.9143,8.9803,8.9087,8.7912,8.6848,8.2427,0.0,0.0,7.1835,6.8728,6.7393,7.0293,7.4221,7.8148,8.3434,8.8683,9.3418,9.4777,9.5584,0.0,9.6502,9.6502,9.6502,9.6502,9.6539,9.6685,9.6575,9.6502,9.6502,9.6612,9.6685,9.6685,9.6575,9.5731,9.4116,9.3932,9.3161,9.1803,9.1803,9.1106,8.9803,8.9546,8.8666,8.7344,8.6407,8.5453,8.4499,8.3141,8.1489,7.9743,7.9066,7.8185,7.7289,7.7289,7.7289,7.7289,0.0,0.0,0.0,0.0,0.0,0.0,0.0,5.6702,5.7313,5.8994,5.888,5.8116,5.6855,5.5938,0.0,0.0,0.0,0.0,0.0,0.0,0.0,0.0,0.0,0.0,0.0,5.4791,5.5033,5.5227,0.0,0.0,0.0,5.495,0.0,0.0,0.0,0.0,0.0,0.0,0.0,0.0,0.0,0.0,0.0,0.0,0.0,0.0,0.0,0.0,0.0,0.0,6.5999,6.8678,7.3927,7.6717,7.8589,8.1399,8.3398,8.5013,8.6591,8.85,9.0097,9.0501,8.9087,8.7031,8.4976,0.0,0.0,7.1908,6.8972,6.6696,6.5498,6.8531,7.2459,7.6093,8.1085,8.6187,9.1069,9.2794,9.4189,9.5878,9.6465,9.6685,9.6685,9.6685,9.6685,9.6685,9.6685,9.6685,9.6685,9.6685,9.6502,9.6098,9.5658,9.4887,9.3675,9.3235,9.2611,9.1803,9.1803,9.1179,8.9987,8.9583,8.8739,8.7545,8.6334,8.5343,8.4499,8.3324,8.1636,7.9779,7.9376,7.8442,7.7289,7.7289,7.7289,7.7289,0.0,0.0,0.0,0.0,0.0,0.0,0.0,5.8039,5.888,6.095,6.1593,6.1058,5.8918,5.7199,5.5969,0.0,0.0,0.0,0.0,0.0,0.0,0.0,0.0,0.0,0.0,0.0,0.0,5.4764,5.4131,0.0,0.0,0.0,0.0,0.0,5.3986,0.0,0.0,0.0,0.0,0.0,0.0,0.0,0.0,0.0,0.0,0.0,0.0,0.0,0.0,0.0,6.5068,6.8788,7.4096,7.7488,8.0036,8.2443,8.4278,8.5967,8.7949,8.9528,9.0629,9.0812,8.8793,8.5967,8.2884,7.8516,0.0,6.8728,6.6623,6.5448,6.453,6.7063,7.0624,0.0,7.8552,8.3067,8.8629,9.0629,9.2537,0.0,9.6208,0.0,9.6685,9.6685,9.6685,9.6685,9.6685,9.6685,9.6685,9.6539,9.6245,9.5749,9.4813,9.4006,9.3345,9.2501,9.1987,9.1803,9.1803,9.1289,9.0317,8.9693,8.8849,8.7876,8.6591,8.549,8.4535,8.3711,8.1966,7.9779,7.9596,7.8626,7.7289,7.7289,7.7289,7.7289,0.0,0.0,0.0,0.0,0.0,0.0,0.0,5.8529,6.0179,6.3434,6.3236,6.2388,6.1363,5.9752,5.7841,0.0,0.0,0.0,0.0,0.0,0.0,0.0,0.0,0.0,0.0,0.0,0.0,5.4349,5.4274,0.0,0.0,0.0,0.0,0.0,0.0,5.4192,5.4944,0.0,0.0,0.0,0.0,0.0,0.0,0.0,0.0,0.0,0.0,0.0,0.0,0.0,0.0,6.5277,6.9449,7.4404,7.9176,8.1599,0.0,0.0,8.8445,8.9913,9.0776,9.151,8.8793,8.527,8.2774,0.0,7.0977,6.8251,6.5264,6.3563,6.4921,6.6109,6.8825,7.4992,0.0,8.0482,8.8299,9.017,9.1895,9.5125,0.0,0.0,9.6685,9.6685,9.6685,9.6685,9.6685,9.6685,9.6685,9.6025,9.5895,9.6575,9.5107,9.4263,9.4189,9.3382,9.2574,9.1803,9.1803,9.0996,8.951,8.9436,8.8556,8.7088,8.6941,8.604,8.4535,8.3711,8.1966,7.9743,7.8993,7.8148,7.7289,7.7289,7.7289,7.7289,0.0,0.0,0.0,0.0,0.0,0.0,5.8039,5.8491,5.995,6.4344,6.4611,6.4267,6.3923,6.2388,5.9752,0.0,0.0,0.0,0.0,0.0,0.0,0.0,0.0,0.0,0.0,0.0,5.4837,5.4599,5.4599,0.0,0.0,0.0,0.0,0.0,0.0,5.4958,5.5341,0.0,0.0,0.0,0.0,0.0,0.0,0.0,0.0,0.0,0.0,0.0,5.818,5.9465,0.0,0.0,6.464,6.8568,0.0,0.0,8.1782,8.5086,8.7344,8.9583,9.14,9.173,8.8059,8.3838,8.1929,0.0,6.9288,6.7393,6.4751,6.3306,6.4995,6.5545,6.7417,7.2408,0.0,0.0,8.2039,8.4022,8.6537,9.1271,9.2978,9.452,9.6502,9.6685,9.6685,9.6685,9.6685,9.6685,9.6685,9.5932,9.5639,9.5969,9.441,9.3565,9.3565,9.2721,9.2134,9.1803,9.1803,9.0959,8.94,8.94,8.8519,8.6941,8.6004,8.5196,8.4499,8.3214,8.1525,7.9779,7.9449,7.8479,7.7289,7.7289,7.7289,7.7289,0.0,0.0,0.0,0.0,0.0,5.4333,5.7841,5.8536,6.0102,6.4114,6.4879,6.5031,6.5031,6.3083,6.0363,5.681,0.0,0.0,0.0,0.0,0.0,0.0,0.0,0.0,0.0,0.0,5.526,5.4976,5.5204,5.5094,0.0,0.0,5.4778,5.4484,0.0,0.0,0.0,0.0,0.0,0.0,0.0,0.0,0.0,0.0,0.0,0.0,0.0,0.0,0.0,0.0,0.0,0.0,0.0,0.0,0.0,0.0,7.9161,8.3324,8.5673,8.8647,9.1143,9.14,8.7399,8.2977,0.0,0.0,6.8531,6.7136,6.4897,6.3686,6.5362,6.5472,6.6536,0.0,0.0,7.2738,7.7892,7.9984,8.2794,8.7748,8.9748,9.1913,9.496,9.6135,9.6685,9.6685,9.6685,9.6612,9.6355,9.5584,9.5235,9.5492,9.3712,9.2831,9.3088,9.2244,9.1803,9.1803,9.1803,9.0959,8.94,8.94,8.8372,8.6591,8.5453,8.4682,8.4132,8.2774,8.1379,8.0147,7.989,7.9066,7.8023,7.8023,7.7876,7.7693,0.0,0.0,0.0,0.0,0.0,0.0,5.6365,5.8772,6.0988,6.2693,6.3694,6.4198,6.4198,6.1172,5.9102,5.9064,0.0,0.0,0.0,0.0,0.0,0.0,0.0,0.0,0.0,0.0,5.5396,5.5396,5.6205,5.616,5.5428,5.6199,5.5937,5.4791,0.0,0.0,0.0,0.0,0.0,0.0,0.0,0.0,0.0,0.0,0.0,0.0,0.0,0.0,0.0,0.0,0.0,0.0,0.0,6.1545,6.415,0.0,7.5469,7.9543,8.3544,8.6978,8.962,9.0391,8.6978,8.2977,0.0,0.0,6.8678,6.7847,6.5755,6.458,6.6182,6.5852,6.6366,6.9596,7.011,0.0,7.7781,7.9984,8.2186,8.5453,8.7252,8.9197,9.162,9.4777,9.6685,9.6685,9.6685,9.6355,9.5528,9.474,9.4666,9.5455,9.3088,9.2244,9.3088,9.2244,9.1803,9.1803,9.1803,9.0959,8.94,8.94,8.8078,8.58,8.5783,8.4866,8.3344,8.2553,8.1709,8.0901,8.011,7.9779,7.9779,7.9779,7.9265,7.8589,0.0,0.0,0.0,0.0,0.0,0.0,0.0,5.6816,5.8001,6.0835,6.0905,6.1402,6.3121,6.0783,5.9102,5.9102,0.0,0.0,0.0,0.0,0.0,0.0,0.0,0.0,0.0,0.0,5.567,5.6205,5.6479,5.6785,5.7084,5.6747,5.6395,5.5995,5.5455,5.5379,0.0,0.0,0.0,0.0,0.0,0.0,0.0,0.0,0.0,0.0,0.0,0.0,0.0,0.0,0.0,0.0,0.0,0.0,0.0,6.4273,6.9889,7.5652,7.7488,8.0739,8.3581,8.3287,8.1232,7.883,7.7179,7.3156,6.9192,6.7283,6.5815,6.5228,6.6292,6.5375,6.6072,7.0954,7.0367,0.0,7.6166,7.8772,8.1379,8.4609,8.9858,9.3492,9.4263,9.5768,9.6685,9.6685,9.6685,9.6355,9.5528,9.474,9.4153,9.3896,9.2501,9.1913,9.2207,9.195,9.1803,9.1803,9.1253,9.0445,8.9363,8.8812,8.7876,8.6591,8.604,8.549,8.4939,8.3581,8.2553,8.1746,8.0938,7.9947,7.8993,7.8993,7.8442,7.7693,0.0,0.0,0.0,0.0,0.0,0.0,0.0,5.5785,5.6587,5.8696,5.8498,5.9147,6.1669,5.9408,5.8071,5.9026,0.0,0.0,0.0,0.0,0.0,0.0,0.0,0.0,0.0,5.5396,5.6091,5.7542,5.7855,5.8466,5.93,5.9071,5.8307,5.7091,5.6587,5.5969,0.0,0.0,0.0,0.0,0.0,0.0,6.0356,0.0,0.0,0.0,0.0,0.0,0.0,0.0,0.0,0.0,0.0,0.0,0.0,0.0,6.4934,6.9779,7.2738,7.6518,7.9653,7.9779,7.8295,7.6592,7.5564,0.0,6.8862,6.765,6.6512,6.5925,6.6402,6.5668,6.6145,6.9669,6.9486,7.0257,7.4184,7.7414,8.0865,8.5013,9.0592,9.4226,9.4538,9.5621,9.6392,9.6685,9.6135,9.5584,9.507,9.4299,9.3455,9.2648,9.1803,9.1363,9.1363,9.1363,9.1179,9.0886,9.0702,9.0041,8.8923,8.8426,8.7582,8.6518,8.6004,8.5654,0.0,8.3931,8.3087,8.259,8.1782,8.0828,7.991,7.9617,7.8956,7.8206,0.0,0.0,0.0,0.0,0.0,0.0,0.0,0.0,5.6517,5.6517,5.6517,5.7434,5.9804,5.7275,5.6313,5.8644,0.0,0.0,0.0,0.0,0.0,0.0,0.0,0.0,0.0,5.5473,5.6657,5.9026,5.995,6.0835,6.1707,6.2502,6.1165,5.8077,5.8001,5.7046,0.0,0.0,0.0,0.0,6.0064,6.0415,0.0,0.0,0.0,0.0,0.0,0.0,0.0,0.0,0.0,0.0,0.0,0.0,0.0,0.0,0.0,0.0,0.0,7.3472,7.6812,7.8369,7.7121,7.5506,7.5432,0.0,0.0,6.8531,6.7467,6.6476,6.6623,6.6512,6.6549,6.6953,6.8164,6.9912,7.2422,7.6387,8.1085,8.6684,9.0078,9.2281,9.3015,9.463,9.5841,9.6465,9.518,9.4336,9.4226,9.3529,9.2721,9.184,9.0959,9.0555,9.0592,9.0665,9.0244,8.94,9.017,8.9711,8.8206,8.8133,8.7252,8.58,8.58,8.5343,8.4535,8.3711,8.3381,8.3308,8.2517,8.215,8.2003,8.1269,8.0498,7.9706,0.0,0.0,0.0,0.0,0.0,0.0,0.0,0.0,0.0,0.0,5.567,5.5893,5.6511,5.5861,5.5626,0.0,0.0,0.0,0.0,0.0,0.0,0.0,0.0,0.0,0.0,5.6014,5.6931,5.8192,5.9689,6.1141,6.2579,6.2808,6.1784,5.9765,5.9109,5.7886,0.0,0.0,0.0,0.0,6.0064,6.0415,0.0,0.0,0.0,0.0,5.9818,6.0736,0.0,0.0,0.0,0.0,0.0,0.0,0.0,0.0,5.9575,6.1153,6.3282,0.0,6.8224,6.8605,6.9192,6.9499,0.0,6.8214,0.0,0.0,0.0,0.0,6.8017,6.6843,6.699,7.1321,7.1284,7.1784,7.4845,7.9837,8.5049,9.0078,9.2464,9.3529,9.3125,9.5107,9.5988,9.4923,9.507,9.4703,9.3455,9.3198,9.2721,9.184,9.0427,8.9987,9.0592,9.1216,9.0812,8.94,8.9583,8.9143,8.8169,8.7582,8.6738,8.58,8.58,8.5343,8.4535,8.3711,8.3381,8.3308,8.2517,8.1819,8.1269,8.1085,8.0498,7.9779,0.0,0.0,0.0,0.0,0.0,0.0,0.0,0.0,0.0,0.0,0.0,0.0,0.0,0.0,0.0,0.0,0.0,0.0,0.0,0.0,0.0,0.0,0.0,0.0,5.5396,5.5823,5.7046,5.9039,5.9957,6.1638,6.4038,6.3656,6.2402,6.0339,5.8689,5.7657,0.0,0.0,0.0,0.0,6.0224,0.0,0.0,0.0,0.0,0.0,5.9937,6.0741,0.0,6.1898,6.2726,6.3488,0.0,0.0,0.0,0.0,5.8877,6.004,6.0823,6.3686,6.6476,6.6866,6.7614,6.8128,6.7687,0.0,0.0,0.0,0.0,0.0,6.7504,6.7026,6.765,7.1431,7.1945,7.3619,7.872,8.3398,8.7766,9.1913,9.3529,9.4116,9.3675,9.452,9.485,9.4336,9.4006,9.3602,9.3125,9.2391,9.173,9.1253,9.006,8.9803,9.0592,9.0298,8.9711,8.8849,8.8849,8.8426,8.7619,8.7198,8.6554,8.58,8.58,8.5527,8.5086,8.4278,8.3948,8.3875,8.3067,8.226,8.1525,8.1158,8.0718,8.0277,0.0,0.0,0.0,0.0,0.0,0.0,0.0,0.0,0.0,0.0,0.0,0.0,0.0,0.0,0.0,0.0,0.0,0.0,0.0,0.0,0.0,0.0,0.0,5.5473,5.5587,5.5587,5.7046,6.0033,6.0644,6.2517,6.5413,6.523,6.3663,6.0874,5.8466,5.7626,0.0,0.0,0.0,0.0,6.0415,0.0,0.0,0.0,0.0,0.0,0.0,0.0,0.0,6.2387,6.3197,6.3685,6.2337,0.0,0.0,0.0,0.0,0.0,6.0517,6.4237,6.7921,6.7944,6.8238,6.8458,6.8238,0.0,0.0,0.0,0.0,0.0,6.7136,6.776,6.8765,7.0844,7.2679,7.6151,8.2977,8.6407,8.9417,9.2721,9.3712,9.4116,9.4116,9.3602,9.3455,9.3896,9.2721,9.2207,9.2684,9.1363,9.0555,9.0427,8.962,8.9583,9.0391,8.9197,8.839,8.8023,8.828,8.7912,8.6978,8.6978,8.6481,8.56,8.56,8.549,8.5213,8.4499,8.4242,8.4168,8.3471,8.281,8.2113,8.1415,8.1195,8.1085,0.0,0.0,0.0,0.0,0.0,0.0,0.0,0.0,0.0,0.0,0.0,0.0,0.0,0.0,0.0,0.0,0.0,0.0,0.0,0.0,0.0,0.0,5.5396,5.5708,5.6403,5.6441,5.7014,5.8268,6.1867,6.4236,6.5452,6.8165,6.7362,6.3549,6.1676,6.0141,5.8949,0.0,0.0,6.0415,6.0415,0.0,0.0,0.0,0.0,0.0,0.0,0.0,0.0,6.1367,6.2107,6.2731,6.0805,0.0,0.0,0.0,0.0,0.0,6.2022,6.5508,6.7894,6.4554,6.5338,6.6512,6.5167,0.0,0.0,0.0,0.0,0.0,7.0807,7.055,7.1138,7.5491,7.817,8.1269,8.5803,8.7472,8.9417,9.2721,9.3198,9.3272,9.3272,9.3786,9.3565,9.2281,9.2648,9.2354,9.1069,9.0739,9.028,8.962,8.8776,8.8793,8.9583,8.9987,8.9234,8.7198,8.8556,8.8445,8.6978,8.6978,8.6187,8.4792,8.4792,8.4022,8.2737,8.2627,8.2553,8.2553,8.2443,8.2296,8.2186,8.2039,8.2003,8.2003,0.0,0.0,0.0,0.0,0.0,0.0,0.0,0.0,0.0,0.0,0.0,0.0,0.0,0.0,0.0,0.0,0.0,0.0,0.0,0.0,0.0,5.7345,5.6549,5.6205,5.6594,5.7504,5.9033,6.1294,6.4153,6.6445,6.8088,6.7362,6.5528,6.2701,6.1019,5.9828,5.9179,6.0033,6.0415,6.0415,0.0,0.0,0.0,0.0,0.0,0.0,0.0,0.0,0.0,0.0,6.2388,6.2601,6.1252,0.0,0.0,0.0,0.0,0.0,6.1288,6.4494,6.7136,6.5264,6.7283,6.9559,6.8825,0.0,0.0,0.0,0.0,0.0,7.1945,7.2973,7.4918,7.9821,8.2647,8.5032,8.7325,8.872,9.0225,9.217,9.2391,9.2391,9.2391,9.2721,9.2611,9.184,9.217,9.1877,9.0665,9.017,8.9583,8.8793,8.7986,8.7711,8.8078,8.9326,8.9179,8.7655,8.7968,8.7711,8.6978,8.6978,8.6114,8.4609,8.4609,8.3948,8.2847,8.2847,8.2847,8.2847,8.2847,8.259,8.2186,8.2186,8.2186,8.2186,0.0,0.0,0.0,0.0,0.0,0.0,0.0,0.0,0.0,0.0,0.0,0.0,0.0,0.0,0.0,0.0,0.0,0.0,0.0,0.0,5.6549,5.8414,5.7855,5.7778,5.8352,5.9224,6.1249,6.4466,6.6751,6.9043,7.1213,6.74,6.4535,6.2433,6.0745,5.9752,5.9453,6.0109,6.0415,6.0415,0.0,0.0,0.0,0.0,0.0,0.0,0.0,0.0,0.0,0.0,0.0,0.0,0.0,0.0,0.0,5.9762,6.0085,6.1031,6.1447,6.4127,6.688,6.7247,6.9522,7.1872,7.2606,7.1688,7.0881,0.0,0.0,7.1725,7.334,7.5909,7.9103,8.3051,8.6023,8.8042,8.8683,9.0005,9.1179,9.2024,9.1913,9.1877,9.206,9.1913,9.1803,9.1803,9.162,9.1179,9.0354,8.9546,8.8739,8.7949,8.7308,8.6978,8.6978,8.8225,8.8519,8.7912,8.7675,8.7344,8.6978,8.6978,8.6207,8.4866,8.4866,8.4315,8.3381,8.3381,8.3271,8.3124,8.3124,8.2737,8.2186,8.2186,8.2186,8.215,0.0,0.0,0.0,0.0,0.0,0.0,0.0,0.0,0.0,0.0,0.0,0.0,0.0,0.0,0.0,0.0,0.0,0.0,0.0,0.0,5.6594,5.6785,5.8925,6.1218,6.3587,6.2204,6.2701,6.5299,6.9357,7.2215,7.3849,7.1213,6.8241,6.507,6.3381,6.1745,6.03,6.0377,6.0415,6.0415,6.0415,0.0,0.0,0.0,0.0,0.0,0.0,0.0,0.0,0.0,0.0,0.0,0.0,0.0,6.2287,6.29,6.2874,6.2976,6.4517,6.6256,6.7958,6.9449,6.9486,6.9926,7.2936,7.2936,7.3193,7.6188,0.0,7.505,7.6665,8.0188,8.3234,8.4352,8.7802,9.0372,9.0408,9.1179,9.2024,9.2905,9.2281,9.2134,9.2941,9.2281,9.1803,9.1803,9.1106,9.0317,8.9546,8.8702,8.7912,8.7088,8.7014,8.6978,8.6978,8.7088,8.7124,8.7088,8.8556,8.8445,8.6978,8.6978,8.6518,8.571,8.571,8.4829,8.3381,8.3381,8.2957,8.2296,8.2296,8.226,8.2186,8.2186,8.2186,8.2076,0.0,0.0,0.0,0.0,0.0,0.0,0.0,0.0,0.0,0.0,0.0,0.0,0.0,0.0,0.0,0.0,0.0,0.0,0.0,0.0,5.6778,5.8887,5.9376,6.1287,6.4886,6.5299,6.7561,7.1688,7.4316,7.4889,7.3399,6.9769,6.6865,6.4542,6.2326,6.1249,6.1096,6.0606,6.0683,6.1096,6.0606,6.0415,0.0,0.0,0.0,0.0,0.0,0.0,0.0,0.0,6.1865,6.2446,6.1865,6.2634,6.3527,6.2301,6.2357,6.2939,6.3563,6.5668,6.7958,6.9082,7.0257,7.2129,7.5873,7.69,7.7818,8.0518,8.0592,8.0225,8.0351,8.2023,8.3968,8.5803,8.8647,9.0776,9.1289,9.162,9.1913,9.2244,9.1987,9.1913,9.2244,9.1987,9.1803,9.1803,9.151,9.0996,9.017,8.9363,8.8812,8.8482,8.7528,8.7234,8.7729,8.7766,8.7509,8.7014,8.7601,8.7601,8.6978,8.6978,8.6554,8.58,8.58,8.4903,8.3381,8.3381,8.292,8.2186,8.2186,8.2186,8.2186,8.2186,8.2186,8.215,0.0,0.0,0.0,0.0,0.0,0.0,0.0,0.0,0.0,0.0,0.0,0.0,0.0,0.0,0.0,0.0,0.0,0.0,5.5396,5.5632,5.6816,5.9116,5.9644,6.1509,6.4955,6.7439,7.0381,7.3904,7.6112,7.5768,7.2902,6.9234,6.6713,6.5268,6.2746,6.2058,6.2739,6.1631,6.1363,6.1516,6.0721,6.0415,0.0,0.0,0.0,0.0,0.0,0.0,0.0,0.0,6.1789,6.2507,6.2379,6.3314,6.433,6.3595,6.3822,6.4299,6.4205,6.5908,6.7958,6.9009,7.0697,7.345,7.8552,7.9947,8.1012,8.3931,8.3711,8.292,8.2627,8.3014,8.4188,8.6611,8.905,9.0886,9.1693,9.1803,9.1803,9.1803,9.1803,9.1693,9.1436,9.1657,9.1693,9.1436,9.1436,9.1179,9.0629,8.984,8.929,8.9033,8.7932,8.7509,8.7839,8.7839,8.7545,8.6978,8.6978,8.6978,8.6978,8.6978,8.6701,8.6187,8.6187,8.527,8.3785,8.3785,8.3177,8.2186,8.2186,8.2186,8.2186,8.2186,8.2186,8.215,0.0,0.0,0.0,0.0,0.0,0.0,0.0,0.0,0.0,0.0,0.0,0.0,0.0,0.0,0.0,0.0,0.0,0.0,5.5396,5.6129,5.6594,5.6594,5.9797,6.2395,6.4122,6.8203,7.0372,7.0411,7.3819,7.4592,7.2902,7.0342,6.8699,6.7752,6.5306,6.4657,6.5299,6.361,6.2426,6.1554,6.0759,6.0415,6.0415,0.0,0.0,0.0,0.0,0.0,0.0,0.0,6.1784,6.1294,6.63,0.0,0.0,6.76,6.8107,6.76,6.716,6.738,6.8104,6.9706,7.0734,7.3252,8.0534,8.1599,8.2186,8.6207,8.4499,8.248,8.3271,8.3418,8.4188,8.6611,8.8996,9.0886,9.1693,9.1803,9.1803,9.1803,9.1803,9.1473,9.0702,9.1326,9.1473,9.0665,9.0629,9.0629,9.0629,8.984,8.9033,8.8243,8.8206,8.7839,8.7014,8.6978,8.6978,8.6978,8.6978,8.6978,8.6978,8.6978,8.6978,8.6978,8.6978,8.6077,8.4609,8.4572,8.3654,8.2186,8.2186,8.2186,8.2186,8.2186,8.2186,8.2039,0.0,0.0,0.0,0.0,0.0,0.0,0.0,0.0,0.0,0.0,0.0,0.0,0.0,0.0,0.0,0.0,0.0,0.0,5.5396,5.5626,5.6282,5.7466,5.8988,6.037,6.1485,6.4504,6.805,7.2215,7.3246,7.2261,6.9395,6.805,6.698,6.6139,6.6025,6.5757,6.5299,6.361,6.3083,6.3358,6.251,6.2166,6.2242,0.0,0.0,0.0,0.0,0.0,0.0,0.0,0.0,0.0,6.3923,0.0,0.0,6.6076,6.6539,6.6938,6.5007,6.6481,6.8788,6.9853,7.3303,7.7598,8.2039,8.2867,0.0,0.0,8.7435,8.549,8.5159,8.5086,8.5527,8.6794,8.8556,9.0207,9.162,9.1326,9.0959,9.0959,9.0959,9.0849,9.0629,9.1326,9.1693,9.1473,9.1436,9.1436,9.1436,9.0702,9.0134,8.9895,8.8793,8.8096,8.7839,8.7288,8.6978,8.6978,8.6978,8.6978,8.6978,8.6978,8.6978,8.6978,8.6407,8.5563,8.4499,8.3361,8.2627,8.215,8.1562,8.1379,8.1379,8.1379,8.1012,8.055,0.0,0.0,0.0,0.0,0.0,0.0,0.0,0.0,0.0,0.0,5.5396,5.5396,0.0,0.0,0.0,0.0,0.0,0.0,0.0,0.0,5.5976,5.7313,5.8192,5.9644,6.1867,6.4389,6.7102,6.996,7.0648,6.9769,6.7439,6.7935,6.8279,6.847,6.9655,6.954,6.8317,6.659,6.5605,6.5115,6.4229,6.4305,6.4917,0.0,0.0,0.0,0.0,0.0,0.0,0.0,0.0,0.0,6.3312,0.0,6.6518,6.6488,6.702,6.765,6.7566,6.8912,7.0844,7.2936,7.6056,7.9764,8.4278,8.5803,8.7161,9.0408,8.916,8.7509,8.7692,8.6921,8.6628,8.7785,8.8776,8.973,9.0702,9.0702,9.0592,9.0592,9.0886,9.0959,9.0629,9.1326,9.1657,9.1363,9.1326,9.1473,9.1767,9.1033,9.0427,9.0134,8.9179,8.839,8.7729,8.7234,8.6848,8.6518,8.6518,8.6371,8.6077,8.6721,8.6848,8.6481,8.5343,8.4572,8.4022,8.2737,8.2186,8.215,8.1672,8.1269,8.1012,8.1012,8.0498,7.989,0.0,0.0,5.5396,5.5396,0.0,0.0,0.0,0.0,0.0,0.0,5.5396,5.5403,0.0,0.0,0.0,0.0,0.0,0.0,0.0,0.0,5.6014,5.6899,5.7931,6.03,6.4236,6.6376,6.6713,6.5184,6.6797,6.7179,6.6522,6.8997,7.1145,7.2941,7.4554,7.4401,7.275,7.0877,6.8768,6.6628,6.591,6.6598,6.7943,6.7209,0.0,0.0,0.0,0.0,0.0,0.0,0.0,0.0,6.4007,6.4005,6.436,6.7839,6.8616,6.9099,7.2436,7.3049,7.367,7.7598,7.9029,8.1012,8.6958,8.9564,9.0922,9.1657,9.0041,8.894,9.0335,8.883,8.7785,8.9179,8.94,8.9436,8.951,9.006,9.0519,9.0592,9.1253,9.14,9.0665,9.1326,9.1473,9.0665,9.0665,9.0996,9.1657,9.0996,9.0207,8.9436,8.9326,8.8556,8.7014,8.6904,8.6554,8.5894,8.5837,8.5416,8.4756,8.6151,8.6334,8.549,8.4058,8.3344,8.3234,8.2517,8.215,8.2076,8.2076,8.1599,8.0901,8.0975,8.0498,7.9816,0.0,0.0,5.5396,5.5396,0.0,0.0,0.0,0.0,0.0,0.0,0.0,0.0,0.0,0.0,0.0,0.0,0.0,0.0,0.0,0.0,5.8039,5.9536,6.1676,6.3587,6.5108,6.4382,6.3801,6.3419,6.4458,6.4924,6.481,6.7293,6.9701,7.2032,0.0,7.2949,7.1764,6.8776,6.7201,6.6743,6.7171,6.7981,6.889,6.8738,6.7859,0.0,0.0,0.0,0.0,0.0,0.0,0.0,6.4688,6.5054,6.5161,6.5964,6.7467,6.8882,6.8997,7.1648,7.505,7.7892,8.2406,8.6664,8.8666,9.0408,9.1583,9.1767,9.14,9.0922,9.0665,9.0188,8.973,8.9436,8.94,8.962,9.0244,8.995,8.9877,9.0519,9.0739,9.0812,9.0629,9.1326,9.1473,9.0665,9.1179,9.1326,9.0886,9.0702,9.0207,8.9436,8.8793,8.7986,8.7014,8.6371,8.6297,8.6738,8.6114,8.571,8.5527,8.5233,8.4682,8.3895,8.3564,8.3014,8.2443,8.226,8.1819,8.1269,8.1269,8.0755,8.0147,8.0755,8.0498,7.989,0.0,0.0,0.0,0.0,0.0,0.0,0.0,0.0,0.0,0.0,0.0,0.0,0.0,0.0,0.0,0.0,5.7318,0.0,0.0,0.0,0.0,6.0346,6.3205,6.4611,6.4229,6.4145,0.0,6.2273,6.2364,6.3014,6.4275,6.7179,7.0312,7.356,0.0,7.424,7.2185,6.9999,6.8623,6.7973,6.8776,7.0113,7.1527,7.0686,6.9616,6.8233,6.6567,0.0,0.0,0.0,0.0,0.0,0.0,0.0,6.5566,6.6369,6.7592,6.9118,7.1078,7.3989,7.743,8.159,8.6004,8.9564,9.0372,9.1216,9.1803,9.1803,9.1803,9.1657,9.1253,9.0849,9.0317,8.9546,8.9069,8.8959,8.9381,8.94,8.9693,9.0501,9.0959,9.1179,9.1179,9.1216,9.1069,9.0629,9.0629,9.0464,9.006,9.0024,8.9473,8.8299,8.7822,8.7068,8.5857,8.5453,8.5233,8.5253,8.4866,8.4462,8.4058,8.4058,8.3785,8.3381,8.2994,8.259,8.215,8.1782,8.1379,8.1012,8.1012,8.0498,7.989,8.0718,8.0498,7.9853,0.0,0.0,0.0,0.0,0.0,0.0,0.0,0.0,0.0,0.0,0.0,0.0,0.0,0.0,5.74,0.0,0.0,0.0,0.0,0.0,0.0,0.0,6.3847,6.484,6.3572,0.0,0.0,0.0,6.1065,6.2135,6.5115,6.7752,7.1306,7.5548,0.0,7.5386,7.2673,7.1229,6.9807,6.8623,6.9417,7.1213,0.0,0.0,0.0,6.9761,6.805,6.7056,6.6636,6.7599,0.0,0.0,0.0,0.0,6.5872,6.7102,6.7808,6.9105,7.3432,7.6591,8.0037,8.5588,8.8812,9.0776,9.1436,9.1693,9.1803,9.1803,9.1693,9.1583,9.1583,9.0959,9.0134,8.9326,8.8739,8.8426,8.8426,8.9106,8.9913,9.0702,9.14,9.1803,9.1803,9.1069,9.0555,9.0408,8.9767,8.929,8.8996,8.8996,8.8299,8.6848,8.6647,8.5967,8.4609,8.4462,8.4132,8.3601,8.3454,8.3067,8.2443,8.2957,8.3197,8.3161,8.248,8.2186,8.215,8.1342,8.0938,8.0791,8.0791,8.0388,7.989,8.0718,8.0681,8.0183,0.0,0.0,0.0,0.0,0.0,0.0,0.0,0.0,0.0,0.0,5.7382,5.7934,0.0,0.0,5.8642,5.9228,5.9372,0.0,0.0,0.0,0.0,0.0,6.481,6.5643,0.0,0.0,0.0,0.0,6.2242,6.3885,6.8508,6.8211,7.0733,7.5395,0.0,0.0,7.165,6.7821,6.6101,6.5987,6.6858,6.8279,0.0,0.0,0.0,0.0,6.633,6.5643,6.5796,6.737,6.7828,0.0,0.0,0.0,6.6407,6.5872,6.6459,6.7581,6.8934,7.512,8.2073,8.6029,8.8812,9.0629,9.0739,9.1289,9.1803,9.1803,9.1253,9.0776,9.0776,9.0097,8.929,8.85,8.8849,8.9253,8.9253,8.9913,9.0739,9.1546,9.173,9.1803,9.1803,9.1069,9.0317,8.962,8.9473,8.8776,8.7381,8.7308,8.6921,8.5967,8.527,8.4829,8.4609,8.3895,8.3858,8.4425,8.3711,8.3344,8.3197,8.2627,8.237,8.2333,8.226,8.2186,8.215,8.1342,8.0571,7.9963,7.9963,7.989,7.989,8.0718,8.1379,8.1782,0.0,0.0,0.0,0.0,0.0,0.0,0.0,0.0,0.0,0.0,0.0,5.8621,0.0,0.0,5.9033,5.9826,5.9821,5.9989,0.0,0.0,0.0,0.0,0.0,0.0,0.0,0.0,0.0,6.3465,6.1745,6.4504,7.1298,7.0427,7.249,7.68,0.0,0.0,0.0,0.0,0.0,0.0,0.0,0.0,0.0,0.0,0.0,0.0,0.0,0.0,6.5643,6.7332,6.7905,6.8058,6.8929,0.0,0.0,0.0,6.6464,6.79,7.2684,7.7963,8.3198,8.7713,8.9715,9.0739,9.1179,9.1546,9.1803,9.1803,9.1179,9.0592,9.0592,8.995,8.929,8.8923,8.8776,8.9033,8.995,9.0391,9.0922,9.1693,9.1803,9.1803,9.1803,9.0665,8.995,9.006,8.8812,8.7748,8.7014,8.6591,8.5747,8.4499,8.4115,8.3728,8.3251,8.292,8.292,8.3251,8.292,8.2737,8.2737,8.237,8.2186,8.2186,8.2186,8.2186,8.215,8.1342,8.0791,8.0424,8.0,8.0073,8.0534,8.0865,8.1525,8.2076,0.0,0.0,0.0,0.0,0.0,0.0,0.0,0.0,0.0,0.0,0.0,0.0,0.0,0.0,0.0,0.0,6.0192,6.0267,6.0527,0.0,0.0,0.0,0.0,0.0,0.0,0.0,6.3427,6.2579,6.1975,6.5643,7.3284,7.3284,7.5768,8.0115,7.7793,7.5242,0.0,0.0,0.0,0.0,0.0,0.0,0.0,0.0,0.0,0.0,0.0,0.0,6.6522,6.7561,6.7905,6.8058,6.8929,6.8593,0.0,0.0,0.0,6.7602,7.4601,7.8612,8.2015,8.7151,8.93,9.042,9.1289,9.1657,9.1803,9.1803,9.1326,9.0849,9.0629,8.995,8.94,8.94,8.9069,8.9234,9.0445,9.0776,9.1069,9.1436,9.1693,9.1546,9.0922,8.9987,8.9473,8.9657,8.7839,8.6628,8.6407,8.5637,8.4535,8.3124,8.3104,8.281,8.2186,8.2186,8.2186,8.2186,8.2186,8.2186,8.2186,8.2186,8.2076,8.1893,8.2113,8.2076,8.1856,8.1269,8.1012,8.0938,8.011,8.0277,8.0975,8.0755,8.1195,8.1746,0.0,0.0,0.0,0.0,0.0,0.0,0.0,0.0,0.0,0.0,0.0,0.0,0.0,6.1296,6.117,6.0861,6.0869,6.0712,6.0425,6.0384,0.0,0.0,0.0,0.0,0.0,6.2502,6.2548,6.1669,6.4,6.8241,7.4193,7.657,8.0764,8.6151,8.2073,7.8414,7.5089,0.0,0.0,0.0,0.0,0.0,0.0,0.0,0.0,0.0,0.0,6.9005,6.889,6.8134,6.7905,6.8058,6.8929,6.8593,6.7599,0.0,0.0,0.0,7.0005,7.367,7.7296,8.2107,8.6205,8.9379,9.0423,9.1253,9.1803,9.1803,9.1767,9.151,9.0739,8.995,8.94,8.94,8.9987,9.0519,9.0592,9.1253,9.1473,9.0739,9.1326,9.0886,8.861,8.8996,8.8776,8.7308,8.6371,8.5527,8.4756,8.3968,8.3141,8.2296,8.226,8.2223,8.2186,8.2186,8.2186,8.2186,8.2186,8.2186,8.2186,8.2186,8.1782,8.1122,8.1856,8.1782,8.1048,8.1012,8.1012,8.0938,8.011,8.0277,8.0901,8.0147,8.0351,8.0828,0.0,0.0,0.0,0.0,0.0,0.0,0.0,0.0,0.0,0.0,0.0,0.0,0.0,6.1093,6.1012,6.0897,6.0784,6.0608,6.0398,6.0415,0.0,0.0,0.0,0.0,0.0,6.3274,6.3312,6.2426,6.335,6.7095,7.3476,7.5462,7.9245,8.425,8.1652,7.9818,7.8366,7.3361,0.0,0.0,0.0,0.0,0.0,0.0,0.0,7.5806,7.275,7.0572,6.9234,6.9425,6.847,0.0,0.0,0.0,0.0,0.0,6.5536,6.714,6.9844,7.2339,7.5372,8.0316,8.3308,8.5534,8.7542,8.9146,9.0391,9.0922,9.0629,9.0317,9.0537,8.995,8.9583,9.0097,8.9564,8.9417,9.0427,9.0408,9.0134,8.984,8.9638,8.916,8.828,8.7545,8.7068,8.6978,8.5306,8.4352,8.4609,8.3361,8.248,8.2186,8.2186,8.2186,8.2186,8.2186,8.2186,8.2186,8.2186,8.2186,8.2186,8.2186,8.1489,8.0277,8.1636,8.1746,8.1012,8.1012,8.1305,8.1672,8.0865,8.0755,8.0901,8.011,8.0,8.0057,0.0,0.0,0.0,0.0,0.0,6.1416,0.0,0.0,0.0,0.0,0.0,0.0,0.0,0.0,6.0866,6.0806,6.0627,6.0494,6.0429,6.0644,6.1019,6.1593,0.0,0.0,0.0,6.4733,6.4771,6.335,6.4451,6.7591,7.2605,7.486,7.8605,8.3343,8.0773,8.0582,0.0,0.0,7.4516,7.2941,7.2367,7.3284,7.5119,7.573,7.6991,7.8137,7.593,7.3484,7.1298,7.1298,6.9999,0.0,0.0,0.0,0.0,0.0,0.0,0.0,6.8844,0.0,0.0,7.8723,8.0205,8.1615,8.5973,8.7288,8.8083,8.9839,8.9987,9.006,9.0849,9.0097,8.9583,9.0097,8.9307,8.8977,9.006,8.973,8.929,8.9033,8.8536,8.7876,8.7068,8.6261,8.5783,8.5766,8.4298,8.3638,8.4168,8.292,8.2186,8.2186,8.1929,8.1929,8.2186,8.1929,8.1929,8.2186,8.2186,8.2039,8.1782,8.1782,8.0901,7.9449,8.0534,8.0828,8.0645,8.1195,8.1709,8.215,8.1599,8.1232,8.0938,8.0388,7.9853,7.9339,0.0,6.1416,6.1416,6.1416,6.1416,6.1412,6.137,0.0,0.0,0.0,0.0,0.0,0.0,0.0,0.0,6.0774,6.0615,6.0492,6.0453,6.1172,6.1593,6.1631,0.0,0.0,0.0,6.6644,6.6682,6.4236,6.7523,6.9968,7.165,7.5004,7.9283,8.3945,7.9933,8.085,8.5244,8.341,8.1776,8.0162,7.6809,7.5968,7.7182,8.0468,8.0735,7.9369,7.9331,7.7726,7.5318,7.3667,7.2529,0.0,0.0,0.0,0.0,0.0,0.0,0.0,0.0,0.0,0.0,7.6842,7.6863,7.7745,8.57,8.5578,8.4817,8.8475,8.9839,9.0647,9.1546,9.0427,8.94,8.9363,8.9326,8.9326,8.9363,8.9326,8.9033,8.8206,8.8133,8.7178,8.4792,8.527,8.5086,8.3491,8.3344,8.3344,8.3344,8.259,8.215,8.2113,8.1379,8.1342,8.2113,8.1379,8.1379,8.215,8.215,8.1746,8.1012,8.1012,8.0131,7.8626,7.8662,7.9103,7.9926,8.1505,8.215,8.215,8.2186,8.1709,8.1012,8.1012,7.9984,7.8626,6.1444,6.1415,6.1416,6.1416,6.1416,6.1348,6.1224,0.0,0.0,0.0,0.0,0.0,0.0,0.0,6.3514,6.4025,6.3509,6.2593,6.1363,6.1478,6.1898,6.2502,6.4382,6.5605,6.5987,6.7255,6.6988,6.507,6.6636,6.7935,6.9013,0.0,0.0,7.9818,8.1041,8.1729,8.1538,7.615,7.6112,7.9292,7.5318,7.5997,7.9474,7.9866,8.0468,8.1041,8.0391,7.8939,7.7144,7.6036,7.4698,7.3017,0.0,0.0,0.0,0.0,0.0,0.0,6.6881,0.0,0.0,0.0,0.0,0.0,7.7428,7.8391,7.9769,8.4599,8.5218,8.5996,8.9434,8.9693,8.9216,8.8647,8.8042,8.7858,8.8463,8.8005,8.7362,8.6554,8.6444,8.5747,8.3895,8.3931,8.3654,8.2627,8.2517,8.2517,8.2517,8.1782,8.1085,8.0477,8.0257,8.0257,8.0477,8.0828,8.1122,8.1342,8.1342,8.1232,8.1012,8.1012,8.0424,7.9522,8.0094,8.0131,7.9816,8.0293,8.0791,8.1379,8.1966,8.1709,8.1012,8.1012,8.0351,7.9486,6.1982,6.2263,6.245,6.2354,6.2959,6.3223,0.0,0.0,0.0,0.0,0.0,0.0,0.0,0.0,0.0,6.5948,6.5184,6.3962,6.2235,6.2471,6.2739,6.2884,6.5528,6.7209,6.7744,6.9578,6.954,6.7477,6.8356,6.8661,6.8516,0.0,0.0,0.0,7.7717,7.8528,7.8481,7.1718,7.2902,7.9178,7.7764,7.8949,8.1662,8.2617,8.2923,8.2837,8.2646,8.1499,8.0009,7.9513,7.7984,0.0,0.0,0.0,0.0,0.0,0.0,0.0,0.0,0.0,0.0,0.0,0.0,0.0,7.5754,7.5944,7.6684,8.2272,8.3366,8.4451,8.8062,8.827,8.8096,8.8592,8.7748,8.7178,8.7619,8.7031,8.6334,8.5874,8.5196,8.4425,8.3491,8.3104,8.27,8.2223,8.1893,8.1562,8.1211,8.1085,8.0645,7.9816,7.9486,7.9449,7.9816,7.991,8.0167,8.0498,8.0828,8.0828,8.0498,8.0865,8.0388,7.9339,7.98,7.9727,7.9339,7.9669,8.0277,8.1048,8.1525,8.1415,8.1048,8.1379,8.0755,7.9853,0.0,6.3514,6.4012,6.4091,6.5243,6.5956,0.0,0.0,0.0,0.0,0.0,0.0,0.0,0.0,0.0,0.0,0.0,6.5108,6.3419,6.377,6.374,6.3075,6.6904,6.9082,6.9196,7.2406,7.2856,7.0411,7.1183,7.0847,6.9502,0.0,0.0,0.0,7.2635,7.3476,7.5615,7.0037,7.2062,7.9178,8.1203,8.2579,8.3725,8.6591,8.6314,8.4518,8.5129,8.4413,8.3162,8.3286,8.1566,7.8764,0.0,0.0,0.0,0.0,7.0876,0.0,0.0,0.0,0.0,0.0,7.2909,0.0,7.7217,7.6014,7.5053,8.0392,8.2406,8.3997,8.6629,8.6338,8.6351,8.8194,8.772,8.71,8.7142,8.6444,8.5857,8.569,8.4389,8.3454,8.3271,8.27,8.226,8.2076,8.1415,8.0608,7.9706,8.0424,8.0461,7.9559,7.8809,7.8809,7.9522,7.8919,7.8956,7.9669,8.0388,8.0351,7.9706,8.0424,7.9984,7.8736,7.8736,7.8772,7.8919,7.9559,8.0204,8.0901,8.1048,8.1085,8.1122,8.1893,8.1285,8.0183,6.4531,6.4183,6.4412,6.6288,6.6245,6.6539,0.0,0.0,0.0,0.0,0.0,0.0,0.0,0.0,0.0,0.0,0.0,0.0,0.0,6.4191,6.3388,6.3931,6.6644,6.8478,6.9196,7.1833,7.2291,7.0411,7.0563,7.0839,7.1229,0.0,0.0,0.0,7.3858,7.2941,7.171,7.317,7.5127,7.7144,7.6265,8.0009,8.597,8.5282,8.5129,8.5206,8.4709,8.4337,8.4222,8.4959,8.2998,7.9966,0.0,0.0,0.0,7.1712,0.0,0.0,0.0,0.0,0.0,0.0,7.5227,0.0,7.2257,7.3008,7.4554,7.5213,7.6522,7.8629,8.2007,8.4084,8.4708,8.3134,8.5544,8.7731,8.7945,8.7288,8.6297,8.4976,8.4572,8.3875,8.2553,8.2884,8.2627,8.1342,8.1085,8.0388,7.8919,7.9596,7.9323,7.7839,7.7656,7.7619,7.7803,7.8332,7.8662,7.8846,7.8993,7.8993,7.8846,7.8993,7.925,7.9559,7.9559,7.991,8.0498,8.0,7.989,8.0183,8.1452,8.1562,8.1122,8.1893,8.2003,8.1746,6.4954,6.5587,6.6492,6.7543,0.0,0.0,0.0,0.0,0.0,0.0,0.0,0.0,0.0,0.0,0.0,0.0,0.0,0.0,0.0,0.0,6.4611,6.4236,6.6988,6.912,7.0427,7.252,7.317,7.2283,7.1909,7.1489,7.1068,0.0,0.0,0.0,0.0,0.0,7.2283,7.1871,7.317,7.573,7.8663,8.2913,8.746,8.746,8.7422,8.7231,8.6008,8.5609,8.5446,8.3799,8.352,8.3184,7.9433,7.887,7.8911,0.0,7.6102,7.7578,0.0,0.0,0.0,7.757,7.7155,0.0,0.0,7.3943,7.3975,7.6083,7.5589,7.5982,7.9917,8.041,8.048,8.1245,8.3284,8.5261,8.6519,8.6541,8.5967,8.4756,8.3875,8.3104,8.226,8.2553,8.2296,8.1085,8.0645,7.9874,7.8662,7.8993,7.8626,7.7362,7.7289,7.7289,7.7289,7.7729,7.7949,7.7949,7.8405,7.8589,7.8626,7.9433,7.958,7.9213,7.9633,8.0036,8.0351,7.9963,8.0036,8.0461,8.1305,8.1379,8.1122,8.1893,8.2186,8.2186,6.5379,6.6862,6.8269,6.8412,7.1059,0.0,0.0,0.0,0.0,0.0,0.0,0.0,0.0,0.0,0.0,0.0,0.0,0.0,0.0,0.0,6.6407,6.5192,6.7439,6.9655,7.165,7.3017,7.3705,7.3705,7.3055,7.2024,7.0686,7.1527,7.2673,7.3896,0.0,0.0,0.0,7.0342,7.1527,7.6227,8.2493,8.5588,8.6629,8.8797,8.9093,8.8186,8.7174,8.7005,8.6671,8.2992,8.4043,8.5976,8.0789,8.162,0.0,0.0,0.0,0.0,0.0,0.0,7.9715,8.1593,7.9708,7.7577,0.0,0.0,0.0,7.7253,7.5706,7.476,7.7846,7.6645,7.615,7.9101,8.063,8.1947,8.3501,8.4559,8.4931,8.4158,8.2835,8.1966,8.1966,8.1525,8.1122,8.0791,7.9727,7.8862,7.8369,7.8516,7.8222,7.7326,7.7289,7.7289,7.7289,7.7289,7.7289,7.7326,7.7986,7.8369,7.8405,7.969,7.969,7.8626,7.9449,7.989,8.0036,8.022,8.0534,8.1012,8.1158,8.1158,8.1122,8.1893,8.2186,8.2186,6.6748,6.7081,6.7622,6.9033,0.0,0.0,0.0,0.0,0.0,7.7478,0.0,0.0,0.0,0.0,0.0,0.0,0.0,0.0,7.5539,7.0656,0.0,0.0,6.7553,6.847,7.165,7.1879,7.1994,7.1994,7.1879,7.1764,0.0,0.0,7.2941,7.3132,7.2826,7.2864,7.3093,7.2635,7.573,8.1079,8.2646,8.2082,8.0706,8.4594,8.5588,8.5072,8.6412,8.7379,8.7743,8.58,8.5567,8.5598,0.0,8.251,8.3154,8.0283,0.0,0.0,0.0,0.0,8.544,8.2093,8.4209,8.4824,7.6192,0.0,7.7569,7.2832,0.0,7.4266,7.3267,0.0,0.0,7.3322,7.7018,7.9627,7.8459,8.1085,8.2912,8.2293,8.1548,8.1158,8.1158,7.9161,7.8427,7.9816,7.7818,7.679,7.7399,7.8185,7.8222,7.7326,7.7289,7.7289,7.7289,7.7289,7.7289,7.7289,7.7399,7.7436,7.7436,7.7656,7.8023,7.8626,7.9449,8.0204,8.0938,8.1636,8.1562,8.1085,8.1782,8.1636,8.1122,8.1893,8.2186,8.2186,6.6087,6.6936,6.7733,6.8403,0.0,0.0,0.0,0.0,0.0,7.9474,0.0,0.0,8.0506,7.9789,7.9904,0.0,7.8261,7.6159,7.6006,7.2299,0.0,0.0,6.9502,7.019,7.3093,7.2185,7.1956,7.2452,7.145,0.0,0.0,0.0,7.2291,7.3705,7.4201,7.5548,7.7296,7.6303,7.7029,7.8863,7.9207,7.8452,7.7879,8.5015,8.6887,8.5855,8.6593,8.715,8.714,8.4448,8.4654,8.5719,8.4127,0.0,0.0,8.2998,0.0,0.0,0.0,0.0,8.4755,8.2986,8.3785,8.3593,7.8354,7.7007,7.6546,7.5515,0.0,0.0,0.0,0.0,0.0,0.0,7.565,7.7665,7.7381,7.8418,7.9717,8.1129,7.9743,7.8729,7.884,7.7472,7.7304,7.8972,7.635,7.5469,7.7215,7.7656,7.7472,7.6628,7.7069,7.7069,7.6592,7.7069,7.7289,7.7289,7.7289,7.7289,7.7326,7.7803,7.7986,7.7913,7.9213,8.0,8.0351,8.1158,8.1562,8.1746,8.2076,8.1709,8.1122,8.1893,8.2186,8.2186,6.5733,0.0,0.0,6.7959,7.0413,0.0,7.6121,7.8939,8.0697,8.0506,8.085,8.1232,8.1499,8.1012,8.1471,8.341,8.127,7.9474,7.8634,7.5586,7.3675,0.0,0.0,0.0,7.4507,7.2444,7.1642,7.2291,7.0801,0.0,0.0,0.0,0.0,7.4231,7.5348,7.7573,8.043,7.9474,7.936,7.978,7.9283,7.9054,7.9598,8.5358,8.7241,8.684,8.7118,8.7294,8.7079,8.4329,8.4745,8.6202,8.5159,8.5104,8.5318,0.0,0.0,0.0,8.2554,8.3708,8.4863,8.3016,8.2439,8.1554,7.87,7.7046,7.6476,7.7869,7.7022,0.0,0.0,0.0,0.0,0.0,0.0,7.7275,7.7278,7.6786,7.7181,7.9229,7.8139,7.7347,7.7744,7.6404,7.63,7.8174,7.5058,7.4111,7.6518,7.6848,7.6702,7.613,7.6885,7.7032,7.6423,7.6995,7.7289,7.7289,7.7289,7.7289,7.7326,7.7949,7.7876,7.7399,7.9066,7.9816,7.989,8.0901,8.1672,8.2186,8.1966,8.1636,8.1415,8.2015,8.2251,8.2251,6.6528,6.74,0.0,6.8179,7.1472,7.5271,7.8643,7.8596,7.871,8.0277,7.9866,8.0592,8.383,8.4174,8.6123,9.1013,8.9179,8.7384,8.6495,8.1805,7.8681,7.7831,0.0,7.2834,0.0,7.2176,7.0449,7.0487,6.9655,6.9616,0.0,0.0,0.0,0.0,7.5921,7.8099,8.0544,8.1347,8.4021,8.7585,8.5893,8.6199,8.7355,8.4337,8.4739,8.6997,8.7849,8.8289,8.8283,8.7271,8.714,8.7038,8.5262,8.5911,8.6824,8.4371,0.0,0.0,8.5662,8.7201,8.8124,8.1546,8.1131,8.0785,7.5007,7.6777,7.9208,7.7676,8.1785,8.467,0.0,0.0,0.0,0.0,0.0,0.0,0.0,7.657,7.5994,7.5889,7.6998,7.8094,7.8877,7.5977,7.5065,7.7458,7.3743,7.2445,7.483,7.5726,7.613,7.6093,7.6885,7.7289,7.7252,7.7289,7.7289,7.7289,7.7289,7.7289,7.7289,7.7326,7.7326,7.7399,7.9066,7.9816,7.9926,8.1505,8.2186,8.2113,8.1342,8.1489,8.2182,8.2327,8.2391,8.2391,6.828,6.962,6.9972,6.8288,7.0031,7.3017,7.6991,7.9245,8.1117,8.2798,8.3257,8.448,8.7307,8.7613,8.8721,9.1548,9.002,8.8759,8.8492,8.3754,8.1805,8.3744,7.871,7.7067,0.0,0.0,0.0,0.0,0.0,0.0,0.0,0.0,0.0,0.0,0.0,8.1461,8.3868,8.4737,8.5578,8.6237,8.4634,8.5303,8.7192,8.6581,8.6613,8.7159,8.8538,8.8826,8.8445,8.8111,8.7725,8.7325,8.7351,8.6958,8.6325,8.55,8.6671,8.8017,8.6863,8.9017,9.0133,8.3862,8.317,8.2324,7.5777,7.7161,7.9323,7.763,8.1554,0.0,0.0,0.0,0.0,0.0,0.0,0.0,0.0,7.3638,7.2617,7.3647,7.503,7.5652,7.5093,7.4406,7.4086,7.4329,7.2457,7.2114,7.4001,7.4882,7.5307,7.5307,7.6078,7.6533,7.6533,7.7032,7.7289,7.7289,7.7289,7.7289,7.7289,7.7289,7.7289,7.7399,7.9066,7.9816,7.9926,8.1542,8.2186,8.215,8.1893,8.2111,8.245,8.1834,8.1886,8.2284,7.0544,7.1367,7.1457,7.0447,7.1836,7.4002,7.6761,8.0315,8.3181,8.4556,8.597,8.7908,9.0774,9.1079,9.1778,9.3459,9.2618,9.1243,8.9409,8.6581,8.5234,8.5883,8.2827,8.1614,0.0,0.0,0.0,0.0,0.0,7.5501,0.0,0.0,0.0,0.0,0.0,8.2569,8.4747,8.68,8.7717,8.7623,8.6049,8.6011,8.6937,8.7866,8.7734,8.7217,8.8634,8.891,8.8661,8.9276,8.8892,8.8333,8.8923,8.832,8.7325,8.7115,8.8055,8.9017,8.8094,9.0133,9.121,8.5824,8.5132,8.417,7.7931,7.9392,8.1554,7.9908,8.3362,0.0,0.0,0.0,0.0,0.0,0.0,0.0,0.0,7.2678,7.21,7.2724,7.3846,7.4599,7.4664,7.4505,7.4094,7.33,7.1963,7.1674,7.2804,7.3634,7.4316,7.4867,7.538,7.5946,7.6518,7.6738,7.7032,7.7289,7.7619,7.7766,7.7766,7.7766,7.7913,7.8259,7.9323,7.9963,8.0314,8.1636,8.2186,8.2166,8.1921,8.2155,8.2528,8.1949,8.2018,8.238,7.3062,7.2639,7.2646,7.4365,7.6493,7.7946,7.7975,8.1576,8.4632,8.5588,8.7946,9.0812,9.4136,9.4556,9.5205,9.6821,9.6974,9.4911,9.0058,9.0353,8.8988,8.5015,8.6199,8.6189,8.4632,0.0,0.0,0.0,0.0,0.0,0.0,0.0,0.0,0.0,8.0257,8.1547,8.3381,8.7498,9.0173,9.1493,9.0115,8.8547,8.7064,8.805,8.7934,8.7359,8.8303,8.8708,8.9064,9.0671,9.0663,8.997,8.9893,8.9932,8.9816,8.894,9.0488,9.1941,8.9487,9.068,9.1595,8.7363,8.6901,8.6209,8.1123,8.3247,8.5786,8.4024,8.7094,0.0,0.0,0.0,0.0,0.0,0.0,0.0,0.0,0.0,7.4121,7.3004,7.3529,7.485,7.7239,0.0,7.4773,7.4053,7.2121,0.0,0.0,7.1982,7.3156,7.4793,7.483,7.5637,7.7289,7.6481,7.6481,7.7326,7.8185,7.8589,7.8589,7.8626,7.9066,7.9816,7.9853,8.0277,8.1048,8.1856,8.2186,8.2129,8.1518,8.1745,8.2455,8.2633,8.2696,8.2696,7.3366,7.5142,7.6763,7.7097,7.7108,7.7258,7.7908,8.1576,8.5282,8.7957,9.1041,9.4059,9.681,9.7154,9.7307,9.7765,9.7803,9.723,9.5931,9.3715,9.2542,9.2695,9.0096,8.8759,8.8978,8.7144,0.0,8.4862,0.0,0.0,8.3027,0.0,0.0,0.0,0.0,8.3448,8.516,8.7452,8.8685,8.9225,9.0176,8.9535,8.8059,8.8463,8.8827,8.9234,9.0058,9.0438,9.0633,9.1056,9.1056,9.074,9.0086,9.0355,9.0594,8.9141,9.0488,9.221,9.0902,9.2402,9.348,8.9816,8.9086,8.8085,8.3632,8.5901,8.8085,8.517,8.8902,9.171,8.8363,8.8286,0.0,0.0,0.0,0.0,0.0,0.0,7.244,7.4044,7.3547,7.3459,7.4416,7.4266,7.3314,7.1291,7.0744,7.0773,7.143,7.0973,7.1725,7.3927,7.4001,7.5065,7.7289,7.6481,7.6481,7.7326,7.8185,7.8589,7.8626,7.9213,7.9596,7.9816,8.0424,8.0828,8.1048,8.1856,8.2186,8.2203,8.2107,8.2381,8.2782,8.2727,8.2773,8.2828,7.564,7.8242,8.0169,7.9306,8.0237,8.1041,8.0773,8.3066,8.6046,8.9447,9.2798,9.5549,9.7383,9.9228,9.9992,9.9255,9.9179,9.8414,9.6581,9.574,9.5064,9.4529,9.2924,9.2143,9.231,9.0895,0.0,8.8486,0.0,0.0,8.4892,0.0,0.0,0.0,0.0,8.3013,8.3808,8.7657,8.9102,8.8892,9.034,8.9946,0.0,8.9042,8.9483,8.9938,9.0784,9.0888,9.0701,9.1056,9.121,9.1133,9.0624,9.0816,9.1018,9.0056,9.1095,9.2402,9.1902,9.3056,9.3989,9.2056,9.1556,9.0748,8.7632,8.8748,8.9932,8.8047,8.971,9.0979,8.921,8.7555,8.464,0.0,0.0,0.0,0.0,0.0,0.0,7.4007,7.419,7.3934,7.3268,7.3614,7.2962,7.0791,7.0517,7.05,7.0525,7.0657,7.1493,7.3221,7.3567,7.4845,7.7289,7.6481,7.6481,7.7326,7.8552,7.9119,7.9155,7.9947,8.0514,8.0844,8.0975,8.1195,8.1562,8.2003,8.2186,8.2219,8.246,8.2721,8.3009,8.2941,8.2889,8.2919,7.8391,8.0899,8.2528,8.0829,8.4022,8.6506,8.5464,8.6181,8.7967,9.1156,9.4501,9.6882,9.7623,10.1009,10.2614,10.11,10.1021,9.9377,9.5659,9.7352,9.7019,9.3769,9.4916,9.5276,9.453,9.4311,9.2998,0.0,0.0,0.0,0.0,0.0,0.0,0.0,0.0,0.0,0.0,8.7915,9.01,8.9477,9.0685,9.0183,8.8788,8.9713,9.0086,9.0163,9.0932,9.0701,9.0201,9.0941,9.121,9.121,9.121,9.121,9.121,9.121,9.1748,9.2326,9.2326,9.2903,9.3518,9.3403,9.3518,9.3249,9.1595,9.1364,9.1441,9.1095,9.0056,8.968,9.121,8.6901,8.1639,0.0,0.0,0.0,0.0,0.0,0.0,0.0,7.5553,0.0,7.3297,7.3492,7.2946,7.1009,7.0374,6.984,6.9366,7.0438,7.1595,7.282,7.3515,7.5043,7.7436,7.6665,7.6702,7.7656,7.9103,7.9853,8.0,8.0791,8.1525,8.215,8.1452,8.1562,8.2186,8.2186,8.2219,8.2284,8.2571,8.2896,8.3195,8.3083,8.2995,8.2964,7.8406,8.0443,8.1908,8.0941,8.4246,8.7859,9.027,9.2546,9.4686,9.6527,9.9817,10.1981,10.2118,10.28,10.3091,10.2794,10.2903,10.2396,10.0791,10.0585,9.9298,9.6605,9.6079,9.5476,9.4681,9.3301,9.1662,0.0,0.0,0.0,0.0,0.0,0.0,0.0,0.0,0.0,8.4158,8.7369,8.871,8.887,9.1172,9.1112,8.9761,9.0624,9.0979,9.097,9.1171,9.1095,9.1018,9.1171,9.121,9.121,9.121,9.121,9.121,9.121,9.1325,9.1441,9.1441,9.2056,9.2556,9.1825,9.2672,9.3249,9.1595,9.2287,9.2672,9.0547,9.1056,9.0671,8.694,8.3054,8.0162,7.9285,7.7361,7.6515,7.8015,0.0,0.0,0.0,0.0,7.7731,7.4236,7.3058,7.1357,6.8608,6.7359,6.754,6.937,6.8971,7.023,7.3556,7.4462,7.6007,7.8369,7.7509,7.7839,7.9376,7.9669,8.0147,8.0828,8.1636,8.2076,8.2186,8.2039,8.2076,8.2186,8.2186,8.2364,8.2602,8.2665,8.2896,8.3121,8.2452,8.2623,8.3151,8.28,8.3491,8.4282,8.5211,8.8471,9.193,9.4929,9.8316,9.9992,9.8523,10.0087,10.14,10.1383,10.3419,10.43,10.3401,10.3388,10.2895,10.1614,10.1198,10.031,9.8584,9.7702,9.6889,9.6134,9.4877,9.2929,9.0273,0.0,0.0,7.9539,0.0,0.0,0.0,0.0,7.9636,0.0,8.6354,8.7831,8.8032,9.0698,9.1281,9.0624,9.1047,9.121,9.121,9.121,9.121,9.121,9.121,9.0902,9.0586,9.1056,9.0902,9.0624,9.1056,9.121,9.121,9.121,9.1518,9.171,9.1287,9.1825,9.2172,9.1364,9.2172,9.271,9.1518,9.1902,9.121,8.6978,8.3401,8.0977,8.0554,7.8707,7.7707,7.8938,0.0,7.7445,0.0,0.0,0.0,0.0,7.2707,7.1194,6.8677,6.7494,6.7494,6.8915,6.8876,7.0251,7.3263,7.4185,7.5919,7.8692,7.8272,7.8676,7.9905,8.0252,8.0645,8.1048,8.1819,8.2186,8.2186,8.2186,8.2186,8.2203,8.2284,8.246,8.2696,8.2788,8.2971,8.3121,8.2303,8.2526,8.3158,8.7234,8.7145,8.7589,8.9774,9.3063,9.6197,9.8444,10.2491,10.401,10.0582,10.0697,10.1004,10.0781,10.3898,10.5405,10.3607,10.3689,10.3097,10.1388,10.1217,10.0614,9.9539,9.8733,9.8006,9.7433,9.6588,9.4542,0.0,0.0,8.4813,7.9835,0.0,0.0,0.0,7.6399,7.9177,8.1727,8.553,8.7398,8.799,9.029,9.121,9.121,9.121,9.121,9.121,9.121,9.121,9.121,9.121,9.074,9.0316,9.097,9.074,9.0316,9.1018,9.121,9.121,9.121,9.121,9.121,9.121,9.121,9.121,9.121,9.1748,9.2172,9.1979,9.1825,9.0748,8.7671,8.5055,8.2862,8.1362,8.0092,7.9369,7.9561,0.0,7.8869,0.0,0.0,0.0,7.3756,7.3059,7.1913,6.9804,6.8195,6.765,6.8443,6.8902,7.0312,7.2862,7.3785,7.5636,7.8565,7.8749,7.9382,8.0493,8.0882,8.1117,8.1269,8.1893,8.2186,8.2186,8.2186,8.2186,8.2203,8.2327,8.2502,8.2711,8.2843,8.3009,8.3083,8.208,8.2301,8.2937,8.8339,8.9495,9.0752,9.1863,9.555,9.8692,9.9623,10.3488,10.6004,10.5405,10.5509,10.53,10.4385,10.5383,10.5481,10.3684,10.4415,10.418,10.2386,10.1584,10.0606,9.8952,9.8067,9.7567,9.75,9.6692,9.4925,0.0,0.0,8.5129,8.0696,0.0,0.0,7.5745,7.84,8.0969,8.347,8.5401,8.7547,8.9731,9.0778,9.121,9.121,9.121,9.121,9.121,9.121,9.121,9.121,9.121,9.1171,9.1095,9.1171,9.1133,9.1095,9.1171,9.121,9.121,9.121,9.121,9.121,9.121,9.121,9.121,9.121,9.1248,9.1095,9.0316,8.9556,8.8487,8.6555,8.6594,8.5632,8.1747,8.1554,8.2208,8.3024,0.0,8.1093,8.1747,0.0,0.0,7.5391,7.4695,7.3622,7.1516,6.7793,6.6464,6.8406,6.8148,6.957,7.3037,7.3973,7.5532,7.7865,7.8618,8.0041,8.2186,8.1524,8.1502,8.2076,8.215,8.2186,8.2186,8.2186,8.2186,8.2203,8.2327,8.2502,8.2711,8.2843,8.3009,8.3009,8.1397,8.1587,8.2429,9.381,9.3159,9.363,9.7106,9.826,9.9721,10.2585,10.45,10.5797,10.6203,10.6312,10.6015,10.5089,10.5312,10.4785,10.3119,10.3393,10.3115,10.1796,10.149,10.0789,9.9644,9.9259,9.8557,9.7519,9.7711,9.5769,0.0,0.0,0.0,8.0192,7.7885,7.7061,7.7592,7.9669,8.1708,8.3793,8.6517,8.8248,8.9286,9.0671,9.121,9.121,9.121,9.121,9.121,9.121,9.121,9.121,9.121,9.0855,9.0509,9.1056,9.0825,9.0432,9.0432,9.0778,9.1095,9.0547,9.0778,9.121,9.121,9.121,9.1056,9.0547,9.0816,9.0941,9.0086,8.9248,8.8641,8.8432,8.6594,8.5055,8.4901,8.3862,8.3362,8.4247,0.0,0.0,8.1016,0.0,7.7008,7.376,7.2837,7.1887,7.0551,6.9859,6.9641,6.9905,6.9513,7.0249,7.236,7.3327,7.5269,7.8373,7.9152,8.0693,8.298,8.2289,8.2033,8.2186,8.2186,8.2186,8.2186,8.2186,8.2251,8.2311,8.2523,8.2659,8.2828,8.2994,8.2839,8.2384,8.1469,8.1425,8.177,9.7279,9.6184,9.6453,10.0885,10.0701,10.0989,10.4597,10.4905,10.5097,10.5905,10.579,10.5405,10.4789,10.4992,10.4289,10.2404,10.252,10.2212,10.1394,10.1096,10.0712,10.0106,9.9837,9.9144,9.7904,9.8211,9.6557,9.271,9.0517,8.7132,8.27,8.0554,7.9823,8.0446,8.19,8.3516,8.5255,8.794,8.9056,8.9171,9.0325,9.0671,9.0479,9.0748,9.0816,9.0855,9.1133,9.121,9.121,9.121,9.0778,9.0393,9.1018,9.0778,9.0278,9.0278,9.0701,9.1056,9.0432,9.074,9.121,9.121,9.121,9.1047,9.0432,9.0547,9.0624,9.0047,8.9633,8.944,8.9517,8.7094,8.5294,8.5824,8.4824,8.3939,8.3785,8.3547,0.0,8.0085,7.7438,7.4868,7.2444,7.1761,7.1323,7.101,7.2653,7.2881,7.118,7.0939,7.1231,7.1949,7.3156,7.5388,7.8675,7.9554,8.1239,8.3691,8.3053,8.2917,8.3124,8.3078,8.3063,8.3026,8.2798,8.2778,8.2868,8.2972,8.3047,8.3127,8.3324,8.3046,8.2482,8.1845,8.188,8.2059,9.7154,9.8058,9.9402,10.2115,10.2597,10.3097,10.4789,10.4405,10.4212,10.4982,10.4405,10.3905,10.3905,10.4597,10.4097,10.151,10.2097,10.2212,10.1394,10.0606,10.0106,10.0106,9.9298,9.8788,9.8788,9.7942,9.7096,9.6249,0.0,9.0701,8.9701,8.6355,8.4816,8.4854,8.567,8.7017,8.8679,8.9517,8.9893,8.9893,8.9893,8.944,8.8833,8.9624,8.9932,9.0047,9.0902,9.121,9.121,9.121,9.121,9.121,9.121,9.121,9.1171,9.1171,9.121,9.121,9.121,9.121,9.121,9.121,9.121,9.121,9.121,9.0509,8.9893,8.9893,9.0586,9.0671,8.9026,8.8679,8.7256,8.3054,8.3785,8.4008,8.1516,8.04,0.0,7.9815,7.5322,7.2252,7.2213,7.2547,7.311,7.3873,7.5862,7.5459,7.1794,7.1958,7.2202,7.2184,7.3825,7.5921,7.8468,7.9634,8.1607,8.4398,8.3887,8.4218,8.5246,8.5115,8.5049,8.5025,8.4278,8.3991,8.3978,8.3779,8.3696,8.3709,8.3843,8.3896,8.3736,8.2621,8.2986,8.3734,10.0702,10.0683,10.1096,10.3087,10.2981,10.2981,10.4097,10.3597,10.3289,10.4212,10.3482,10.2981,10.2981,10.3212,10.2789,10.1394,10.1597,10.1587,10.1279,10.1096,10.0712,10.0106,9.9259,9.8519,9.7942,9.7634,9.6826,9.5403,9.3172,9.0441,8.7278,8.6201,8.6363,8.7478,8.7748,8.8825,9.0364,9.0047,9.0239,9.074,9.0124,9.0086,9.0364,9.0009,9.0278,9.074,9.0432,9.0701,9.121,9.121,9.121,9.121,9.121,9.121,9.1095,9.047,9.074,9.1056,9.047,9.074,9.121,9.121,9.121,9.121,9.121,9.097,9.0624,9.0009,8.9671,8.9133,8.8017,8.7325,8.6478,8.5093,8.4901,8.4401,8.2986,0.0,8.0054,7.8284,7.563,7.3476,7.2329,7.2555,7.2907,7.3157,7.4303,7.4616,7.3769,7.4086,7.3925,7.3115,7.5274,7.7823,8.064,8.1603,8.3003,8.4899,8.4989,8.5462,8.6229,8.6191,8.5864,8.5285,8.506,8.4707,8.429,8.4204,8.4254,8.4378,8.4414,8.4098,8.3476,8.2883,8.2567,8.2349,10.0981,10.0981,10.1289,10.2712,10.252,10.2404,10.3289,10.2712,10.2404,10.3289,10.2712,10.2097,10.2097,10.2097,10.1904,10.1279,10.1279,10.1279,10.1279,10.1279,10.1096,10.0596,9.9442,9.8557,9.8019,9.7365,9.6365,9.4989,9.3642,9.1402,8.8517,8.8517,8.8902,8.9633,8.9633,9.0056,9.0701,9.047,9.0325,9.0248,9.0009,9.0056,9.0248,8.997,9.0239,9.0663,9.047,9.074,9.121,9.121,9.121,9.121,9.121,9.121,9.1095,9.0547,9.0787,9.1095,9.0547,9.0778,9.121,9.121,9.121,9.1133,9.0778,9.0979,9.0941,9.0086,8.9748,8.9363,8.8517,8.7632,8.6748,8.5786,8.4939,8.3901,8.2362,8.0439,7.8592,0.0,7.5014,7.336,7.229,7.3292,7.3887,7.3535,7.4885,7.5522,7.5196,7.5722,7.5684,7.4936,7.7705,8.0237,8.2385,8.3037,8.4213,8.5992,8.6837,8.7454,8.7855,8.7809,8.7471,8.6928,8.6327,8.585,8.5409,8.4975,8.4849,8.4953,8.4953,8.4421,8.3637,8.3295,8.283,8.23,9.8788,9.9635,10.0404,10.1212,10.1279,10.1597,10.2404,10.1779,10.1597,10.2404,10.1779,10.1279,10.1279,10.1279,10.1279,10.1279,10.1279,10.1279,10.1279,10.1279,10.1289,10.1202,9.9712,9.8827,9.8711,9.7173,9.5942,9.4989,9.4181,9.3364,9.2479,9.2479,9.2018,9.121,9.121,9.074,9.0047,9.0778,9.0248,8.8949,8.9624,8.9479,8.8949,8.9633,8.9932,9.0086,9.0825,9.1171,9.121,9.121,9.121,9.121,9.121,9.121,9.121,9.121,9.121,9.121,9.121,9.121,9.121,9.121,9.121,9.097,9.0163,9.0624,9.0941,9.0086,9.0547,9.0825,8.9893,8.9094,8.7786,8.5286,8.417,8.2716,8.0246,7.7784,7.6207,7.6092,7.4053,7.2636,7.2559,7.4707,7.5745,7.493,7.7,7.7654,7.6169,7.6949,7.7427,7.7462,8.0669,8.2832,8.3755,8.4133,8.5406,8.7594,8.9084,8.9855,8.9894,8.9754,8.9678,8.9525,8.7996,8.7264,8.7131,8.5954,8.5446,8.5446,8.5446,8.4911,8.4108,8.3747,8.3563,8.3293,10.051,10.0904,10.1096,10.1289,10.1279,10.1394,10.1597,10.1394,10.1394,10.1597,10.1394,10.1279,10.1279,10.1279,10.1279,10.1279,10.1279,10.1279,10.1279,10.1279,10.1019,10.0404,9.999,9.9173,9.7827,9.7403,9.648,9.4989,9.4797,9.395,9.2479,9.2479,9.2018,9.121,9.121,9.1095,9.0855,9.0393,9.0355,9.0556,9.0086,9.0163,9.0556,9.0086,9.0316,9.0825,9.0355,9.0624,9.121,9.121,9.121,9.121,9.121,9.121,9.121,9.121,9.121,9.121,9.121,9.121,9.121,9.121,9.121,9.1171,9.0941,9.1056,9.0941,9.0086,9.0047,8.9739,8.8286,8.7825,8.7094,8.5201,8.417,8.2947,8.1054,7.9708,7.8438,7.7138,7.6984,7.6753,7.6137,7.6638,7.6899,7.6707,7.6346,7.6391,7.6969,7.8717,7.9563,7.9231,8.1862,8.4016,8.5478,8.624,8.7508,8.9316,8.9684,9.0213,9.0867,9.084,9.0447,8.9755,8.8782,8.7991,8.7291,8.6338,8.5928,8.5928,8.5928,8.5429,8.4631,8.3876,8.3178,8.2554,9.9981,10.0481,10.0904,10.1202,10.1279,10.1279,10.1279,10.1279,10.1279,10.1279,10.1279,10.1279,10.1279,10.1279,10.1279,10.1279,10.1279,10.1087,10.0789,10.0789,10.0404,9.9529,9.9096,9.8481,9.7519,9.7134,9.6519,9.5595,9.5595,9.4903,9.3642,9.3249,9.2595,9.1787,9.1364,9.097,9.0586,9.0509,9.0547,9.0586,9.0509,9.0778,9.1171,9.0663,9.0778,9.1133,9.0663,9.0778,9.121,9.121,9.121,9.121,9.121,9.121,9.121,9.121,9.121,9.121,9.121,9.121,9.121,9.121,9.121,9.121,9.121,9.121,9.1056,9.0586,9.047,9.0086,8.8786,8.7902,8.6863,8.517,8.3516,8.187,8.0139,7.9208,7.8323,7.7407,7.8023,7.8484,7.8438,7.8784,7.8861,7.8477,7.8175,7.8113,7.8431,8.1017,8.2037,8.0969,8.3401,8.5363,8.6671,8.794,8.9009,8.9893,9.0316,9.074,9.121,9.121,9.0941,9.0432,8.921,8.8449,8.7902,8.6632,8.6094,8.6094,8.6094,8.5363,8.4247,8.3755,8.2832,8.1747,9.8788,9.9606,10.0414,10.1212,10.1212,10.1212,10.1279,10.1212,10.1212,10.1279,10.1279,10.1279,10.1279,10.1279,10.1279,10.1279,10.1279,10.0981,10.0183,10.0106,9.9721,9.8827,9.8096,9.7634,9.7519,9.6711,9.6288,9.6288,9.6288,9.5865,9.4989,9.4258,9.3403,9.2479,9.1748,9.0893,9.0124,9.0902,9.0787,9.0163,9.0902,9.121,9.121,9.121,9.121,9.121,9.121,9.121,9.121,9.121,9.121,9.121,9.121,9.121,9.121,9.121,9.121,9.121,9.121,9.121,9.121,9.121,9.121,9.121,9.121,9.121,9.121,9.121,9.121,9.0932,9.0047,8.8632,8.6978,8.5016,8.2785,8.0592,7.86,7.7946,7.7669,7.7669,7.8484,7.9408,8.0285,8.0939,8.1016,8.0439,8.0939,8.1016,8.04,8.3239,8.4286,8.2901,8.5247,8.6901,8.7786,8.9201,8.997,9.0124,9.0855,9.121,9.121,9.121,9.121,9.1095,8.9556,8.8795,8.8564,8.6978,8.6209,8.6094,8.6094,8.517,8.3793,8.364,8.2639,8.1246,9.9567,9.999,10.0414,10.1212,10.0712,10.0481,10.1212,10.0712,10.0481,10.1202,10.1279,10.1279,10.1279,10.1279,10.1279,10.1279,10.1279,10.0981,10.0183,10.0106,9.9721,9.8827,9.8673,9.825,9.7519,9.6711,9.6288,9.6288,9.6288,9.5865,9.4989,9.4874,9.3989,9.2479,9.2364,9.1825,9.1018,9.1133,9.1133,9.1018,9.1171,9.121,9.121,9.121,9.121,9.121,9.121,9.121,9.121,9.121,9.121,9.121,9.121,9.121,9.121,9.121,9.121,9.121,9.121,9.121,9.121,9.121,9.121,9.121,9.121,9.121,9.121,9.121,9.121,9.0932,9.0047,8.9133,8.7487,8.4332,8.2862,8.1016,7.7907,7.8592,7.94,7.94,8.0785,8.2054,8.2947,8.2477,8.2362,8.2986,8.2439,8.2362,8.2986,8.4209,8.5085,8.5517,8.7325,8.8671,8.9509,8.9778,9.0278,9.1018,9.1133,9.121,9.121,9.121,9.121,9.1133,9.0163,8.9325,8.8641,8.7594,8.6748,8.6094,8.6094,8.5517,8.4593,8.387,8.2986,8.2016,9.9144,9.9798,10.0414,10.1212,10.1019,10.0904,10.1202,10.1019,10.0712,10.0712,10.0712,10.0712,10.0712,10.0712,10.0789,10.1289,10.1279,10.0789,9.949,9.9413,9.8827,9.7519,9.7442,9.7288,9.6865,9.648,9.6288,9.6288,9.6288,9.6095,9.5672,9.522,9.4604,9.3835,9.3364,9.2672,9.1902,9.1902,9.1633,9.121,9.121,9.121,9.121,9.121,9.121,9.121,9.121,9.121,9.121,9.121,9.121,9.121,9.121,9.121,9.121,9.121,9.121,9.121,9.121,9.121,9.121,9.121,9.121,9.121,9.121,9.121,9.121,9.121,9.121,9.0932,9.0047,8.8863,8.7487,8.5909,8.3401,8.1246,8.0139,8.0285,8.0516,8.0516,8.2785,8.4324,8.4286,8.4747,8.5016,8.4939,8.417,8.4055,8.4901,8.5786,8.6401,8.6786,8.8479,8.9509,8.9893,9.0355,9.0778,9.121,9.121,9.121,9.121,9.121,9.121,9.1171,9.0278,8.944,8.8641,8.7748,8.6901,8.6094,8.6094,8.5624,8.4777,8.3909,8.303,8.2144,9.8327,9.9221,10.0106,10.0904,10.1019,10.1096,10.1289,10.1087,10.0789,10.0183,10.0298,10.0298,10.0106,10.0106,10.0289,10.1019,10.0789,10.0212,9.8865,9.8596,9.7827,9.6365,9.6288,9.6288,9.6288,9.6288,9.6288,9.6288,9.6288,9.6288,9.6288,9.5412,9.4989,9.4951,9.3903,9.3095,9.2479,9.2287,9.1825,9.121,9.121,9.121,9.121,9.121,9.121,9.121,9.121,9.121,9.121,9.121,9.121,9.121,9.121,9.121,9.121,9.121,9.121,9.121,9.121,9.121,9.121,9.121,9.121,9.121,9.121,9.121,9.121,9.121,9.121,9.1018,9.0316,8.8979,8.7748,8.694,8.4093,8.1939,8.1747,8.1708,8.1747,8.1977,8.4593,8.6247,8.5824,8.694,8.7401,8.6748,8.6132,8.6055,8.6671,8.7325,8.7786,8.7979,8.9239,9.0009,9.0201,9.0855,9.121,9.121,9.121,9.121,9.121,9.121,9.121,9.1171,9.047,8.9748,8.8902,8.8055,8.7171,8.6363,8.617,8.5692,8.506,8.42,8.3297,8.2322,9.7442,9.8288,9.9173,9.999,10.0183,10.0404,10.1212,10.0712,10.0183,10.0106,10.0712,10.0904,10.0183,10.0106,10.0106,10.0183,9.9442,9.8942,9.8788,9.8057,9.7211,9.6326,9.6288,9.6288,9.6288,9.6288,9.6288,9.6288,9.6288,9.6288,9.6288,9.5412,9.4989,9.4912,9.3287,9.2556,9.2441,9.1633,9.1248,9.121,9.121,9.121,9.121,9.121,9.121,9.121,9.121,9.121,9.121,9.121,9.121,9.121,9.121,9.121,9.121,9.121,9.121,9.121,9.121,9.121,9.121,9.121,9.121,9.121,9.121,9.121,9.121,9.121,9.121,9.1171,9.1133,9.0355,8.8701,8.5585,8.4816,8.3508,8.0431,8.1977,8.3708,8.4508,8.6209,8.7594,8.8333,8.8526,8.8564,8.8526,8.8449,8.8449,8.8526,8.8564,8.894,8.9701,8.9855,9.0278,9.1095,9.1171,9.121,9.121,9.121,9.121,9.121,9.121,9.121,9.121,9.1133,9.0624,8.9739,8.894,8.8094,8.7209,8.644,8.6043,8.583,8.506,8.414,8.3111,9.7326,9.7788,9.825,9.9144,9.976,10.0221,10.0481,10.0712,10.0481,9.9452,9.9558,9.9442,9.8596,9.8481,9.8711,9.9259,9.949,9.9144,9.8057,9.8173,9.7711,9.6365,9.6288,9.6288,9.6288,9.6288,9.6288,9.6288,9.6288,9.6288,9.6288,9.5942,9.5518,9.4989,9.4335,9.348,9.2479,9.2133,9.171,9.121,9.121,9.121,9.121,9.121,9.121,9.121,9.121,9.121,9.121,9.121,9.121,9.121,9.121,9.121,9.121,9.121,9.121,9.121,9.121,9.121,9.121,9.121,9.121,9.121,9.121,9.121,9.121,9.121,9.121,9.121,9.121,9.047,8.9663,8.8932,8.7478,8.6209,8.544,8.567,8.6094,8.6401,8.794,8.8863,8.8718,8.9633,9.0017,8.9479,8.944,8.944,8.944,8.944,8.9825,9.0663,9.071,9.0855,9.121,9.121,9.121,9.121,9.121,9.121,9.121,9.121,9.121,9.121,9.121,9.071,8.9855,8.9017,8.8179,8.7325,8.644,8.6073,8.589,8.5079,8.4429,8.377,9.7019,9.7326,9.7673,9.8288,9.9096,9.9683,9.9683,10.0212,10.0019,9.8596,9.8634,9.8481,9.7596,9.7519,9.775,9.8327,9.8711,9.8519,9.7557,9.8057,9.7788,9.6365,9.6288,9.6288,9.6288,9.6288,9.6288,9.6288,9.6288,9.6288,9.6288,9.6019,9.5557,9.4989,9.445,9.3566,9.2479,9.221,9.1748,9.121,9.121,9.121,9.121,9.121,9.121,9.121,9.121,9.121,9.121,9.121,9.121,9.121,9.121,9.121,9.121,9.121,9.121,9.121,9.121,9.121,9.121,9.121,9.121,9.121,9.121,9.121,9.121,9.121,9.121,9.121,9.121,9.071,9.0316,9.0402,8.9171,8.8209,8.8295,8.8209,8.8209,8.8209,8.9432,9.0094,8.9556,9.0517,9.0941,9.0355,9.0316,9.0316,9.0316,9.0316,9.0586,9.1171,9.121,9.121,9.121,9.121,9.121,9.121,9.121,9.121,9.121,9.121,9.121,9.121,9.121,9.0855,9.0201,8.9133,8.8372,8.7671,8.6555,8.6073,8.5928,8.5339,8.4825,8.425,9.6288,9.6942,9.748,9.748,9.8211,9.8788,9.8788,9.8788,9.8481,9.7596,9.825,9.8442,9.7596,9.748,9.748,9.748,9.6788,9.6634,9.7442,9.7519,9.7134,9.6326,9.6288,9.6288,9.6288,9.6288,9.6288,9.6288,9.6288,9.6288,9.6288,9.5403,9.5027,9.4912,9.3249,9.2518,9.2441,9.1595,9.121,9.121,9.121,9.121,9.121,9.121,9.121,9.121,9.121,9.121,9.121,9.121,9.121,9.121,9.121,9.121,9.121,9.121,9.121,9.121,9.121,9.121,9.121,9.121,9.121,9.121,9.121,9.121,9.121,9.121,9.121,9.121,9.121,9.121,9.0671,8.8987,8.9402,8.9316,8.7671,8.8863,8.9893,8.9893,9.0663,9.121,9.121,9.121,9.121,9.121,9.121,9.121,9.121,9.121,9.121,9.121,9.121,9.121,9.121,9.121,9.121,9.121,9.121,9.121,9.121,9.121,9.121,9.121,9.121,9.121,9.1056,8.9402,8.8718,8.8526,8.6786,8.6073,8.6014,8.606,8.5377,8.4413,9.6288,9.648,9.6673,9.6673,9.7326,9.7904,9.7904,9.8404,9.8481,9.7596,9.7711,9.7557,9.6749,9.6673,9.6673,9.6673,9.6942,9.725,9.748,9.7519,9.7134,9.6326,9.6288,9.6288,9.6288,9.6288,9.6288,9.6288,9.6288,9.6288,9.6288,9.6019,9.5595,9.4989,9.4489,9.3595,9.2479,9.221,9.1748,9.121,9.121,9.121,9.121,9.121,9.1595,9.2095,9.2095,9.2479,9.2864,9.2287,9.2095,9.2018,9.1402,9.1633,9.2095,9.2095,9.2095,9.2249,9.2787,9.2556,9.1979,9.1364,9.121,9.121,9.121,9.121,9.121,9.121,9.121,9.121,9.121,9.121,9.1056,9.0556,9.0671,9.0624,9.0133,9.0517,9.0816,9.0816,9.1047,9.121,9.121,9.121,9.121,9.121,9.121,9.121,9.121,9.121,9.121,9.121,9.121,9.121,9.121,9.121,9.121,9.121,9.121,9.121,9.121,9.121,9.121,9.121,9.121,9.0855,9.0201,8.9133,8.8333,8.7671,8.6555,8.6073,8.6005,8.6031,8.5752,8.531,9.6288,9.6288,9.6288,9.6288,9.6711,9.7019,9.7019,9.748,9.7634,9.7096,9.7019,9.6826,9.6365,9.6288,9.6288,9.6288,9.6749,9.7019,9.7019,9.7019,9.6826,9.6326,9.6288,9.6288,9.6288,9.6288,9.6288,9.6288,9.6288,9.6288,9.6288,9.6288,9.5826,9.4989,9.4989,9.4066,9.2518,9.2826,9.2479,9.1748,9.2056,9.2018,9.1748,9.2056,9.2326,9.2556,9.2864,9.3287,9.3633,9.3133,9.2749,9.2441,9.2249,9.2326,9.2556,9.2864,9.2979,9.3095,9.3557,9.3326,9.2864,9.2326,9.2172,9.2095,9.1787,9.1979,9.2095,9.1787,9.1979,9.2172,9.2172,9.2172,9.2172,9.2172,9.1902,9.171,9.171,9.1441,9.121,9.121,9.121,9.121,9.121,9.121,9.121,9.121,9.121,9.121,9.121,9.121,9.121,9.121,9.121,9.121,9.121,9.121,9.121,9.121,9.121,9.121,9.121,9.121,9.1018,9.0701,9.0701,9.021,8.9363,8.8517,8.7872,8.7325,8.644,8.6099,8.6018,8.5672,8.5689,8.5755,9.6288,9.6288,9.6288,9.6288,9.6288,9.6288,9.6288,9.6288,9.6288,9.6288,9.6288,9.6288,9.6288,9.6288,9.6288,9.6288,9.6288,9.6288,9.6288,9.6365,9.6365,9.6288,9.6365,9.6365,9.6288,9.6288,9.6288,9.6288,9.6288,9.6288,9.6288,9.6288,9.5865,9.5104,9.5104,9.422,9.2749,9.3518,9.3364,9.2672,9.3403,9.3249,9.2672,9.3403,9.3287,9.2826,9.3557,9.3864,9.3903,9.3835,9.3287,9.2749,9.348,9.3249,9.2864,9.3595,9.3826,9.3826,9.3903,9.3864,9.3826,9.3903,9.3941,9.371,9.2826,9.3172,9.348,9.2749,9.3172,9.371,9.371,9.371,9.371,9.371,9.3018,9.2479,9.2479,9.1748,9.121,9.121,9.121,9.121,9.121,9.121,9.121,9.121,9.121,9.121,9.121,9.121,9.121,9.121,9.121,9.121,9.121,9.121,9.121,9.121,9.121,9.121,9.121,9.121,9.0787,9.0009,8.9932,8.944,8.8641,8.7748,8.7363,8.7209,8.6401,8.6094,8.6017,8.5286,8.5428,8.5898,9.6288,9.6288,9.6288,9.6288,9.6288,9.6288,9.6288,9.6288,9.6288,9.6288,9.6288,9.6288,9.6288,9.6288,9.6288,9.6288,9.6288,9.6288,9.6288,9.6903,9.698,9.6326,9.6903,9.6942,9.6326,9.6288,9.6288,9.6288,9.6288,9.6288,9.6288,9.6288,9.6211,9.6019,9.6019,9.5441,9.4489,9.4643,9.422,9.3441,9.3633,9.3595,9.3441,9.3633,9.4027,9.4489,9.4643,9.5172,9.5634,9.4951,9.4143,9.348,9.3633,9.4066,9.4489,9.4681,9.472,9.4874,9.5557,9.5249,9.4874,9.5557,9.5749,9.5326,9.3787,9.3557,9.3633,9.348,9.3595,9.371,9.371,9.371,9.371,9.371,9.3018,9.2479,9.2479,9.1748,9.121,9.121,9.121,9.121,9.121,9.121,9.121,9.121,9.121,9.121,9.121,9.121,9.121,9.121,9.121,9.121,9.121,9.121,9.121,9.121,9.121,9.121,9.121,9.121,9.1095,9.0902,9.0201,8.944,8.8641,8.7748,8.7017,8.6363,8.617,8.6094,8.6094,8.5901,8.5923,8.6043,9.5672,9.6019,9.6288,9.6288,9.6288,9.6288,9.6288,9.6288,9.6288,9.6288,9.6288,9.6288,9.6288,9.6288,9.6288,9.6288,9.6288,9.6288,9.6288,9.6711,9.6749,9.6326,9.6711,9.6749,9.6326,9.6288,9.6288,9.6288,9.6288,9.6288,9.6288,9.6288,9.6288,9.6288,9.6288,9.5826,9.5027,9.5451,9.5134,9.4373,9.4749,9.4672,9.4373,9.4788,9.498,9.4989,9.4989,9.5297,9.5672,9.5634,9.5027,9.4412,9.4826,9.498,9.5066,9.5489,9.5634,9.5711,9.6172,9.598,9.5711,9.6172,9.6288,9.5942,9.4634,9.4634,9.4826,9.4412,9.4634,9.4941,9.4941,9.4941,9.4941,9.4941,9.3903,9.3056,9.3056,9.1979,9.121,9.121,9.121,9.121,9.121,9.121,9.121,9.121,9.121,9.121,9.121,9.121,9.121,9.121,9.121,9.121,9.121,9.121,9.121,9.121,9.121,9.121,9.121,9.121,9.097,9.0547,9.0086,8.921,8.8017,8.7594,8.6901,8.6094,8.6094,8.6094,8.6055,8.567,8.5517,8.5569,9.4989,9.5557,9.6134,9.6288,9.6288,9.6288,9.6288,9.6288,9.6288,9.6288,9.6288,9.6288,9.6288,9.6288,9.6288,9.6288,9.6288,9.6288,9.6288,9.6288,9.6288,9.6288,9.6288,9.6288,9.6288,9.6288,9.6288,9.6288,9.6288,9.6288,9.6288,9.6288,9.6288,9.6288,9.6288,9.5903,9.5258,9.598,9.5865,9.5297,9.6019,9.5865,9.5297,9.6019,9.5865,9.522,9.522,9.522,9.5335,9.6057,9.5826,9.5335,9.6057,9.5711,9.5143,9.5865,9.6095,9.6095,9.6095,9.6172,9.6288,9.6288,9.6288,9.6095,9.5412,9.5788,9.6095,9.5365,9.5788,9.6288,9.6288,9.6288,9.6249,9.6095,9.4749,9.3633,9.3518,9.2172,9.121,9.121,9.121,9.121,9.121,9.121,9.121,9.121,9.121,9.121,9.121,9.121,9.121,9.121,9.121,9.121,9.121,9.121,9.121,9.121,9.121,9.121,9.121,9.121,9.0816,9.0124,8.9816,8.8902,8.7594,8.7286,8.6748,8.6094,8.6094,8.6094,8.6017,8.5354,8.5132,8.5192,9.4835,9.5104,9.5403,9.6172,9.6288,9.6288,9.6288,9.6288,9.6288,9.6288,9.6288,9.6288,9.6288,9.6288,9.6288,9.6288,9.6288,9.6288,9.6288,9.6288,9.6288,9.6288,9.6288,9.6288,9.6288,9.6288,9.6288,9.6288,9.6288,9.6288,9.6288,9.6288,9.6288,9.6288,9.6288,9.6249,9.6134,9.6249,9.6249,9.6134,9.6249,9.6249,9.6134,9.6249,9.6249,9.6134,9.6134,9.6134,9.6134,9.6249,9.6211,9.6134,9.6249,9.5711,9.5027,9.5143,9.5181,9.5181,9.5181,9.5711,9.6288,9.6288,9.6288,9.6288,9.6134,9.6211,9.6288,9.6134,9.6211,9.6288,9.6288,9.6288,9.6057,9.5297,9.4364,9.3441,9.2749,9.1825,9.121,9.121,9.121,9.121,9.121,9.121,9.121,9.121,9.121,9.121,9.121,9.121,9.121,9.121,9.121,9.121,9.121,9.121,9.121,9.121,9.121,9.121,9.121,9.121,9.1133,9.0941,8.9479,8.8718,8.841,8.6901,8.6209,8.6094,8.6094,8.6094,8.6094,8.5978,8.594,8.5923,9.3527,9.4373,9.5104,9.5518,9.598,9.6288,9.6288,9.6288,9.6288,9.6288,9.6288,9.6288,9.6288,9.6288,9.6288,9.6288,9.6288,9.6288,9.6288,9.6288,9.6288,9.6288,9.6288,9.6288,9.6288,9.6288,9.6288,9.6288,9.6288,9.6288,9.6288,9.6288,9.6288,9.6288,9.6288,9.6288,9.6288,9.6288,9.6288,9.6288,9.6288,9.6288,9.6288,9.6288,9.6288,9.6249,9.5749,9.498,9.4326,9.5249,9.5557,9.5672,9.6134,9.6057,9.5634,9.5143,9.5335,9.5634,9.5143,9.5634,9.6288,9.6288,9.6288,9.6288,9.6288,9.6288,9.6288,9.6288,9.6288,9.6288,9.6288,9.6288,9.6019,9.5143,9.4258,9.3403,9.2595,9.1748,9.121,9.121,9.121,9.121,9.121,9.121,9.121,9.121,9.121,9.121,9.121,9.121,9.121,9.121,9.121,9.121,9.121,9.121,9.121,9.121,9.121,9.121,9.121,9.121,9.121,9.1133,8.9902,8.9133,8.8603,8.7325,8.6555,8.6094,8.6094,8.6094,8.6094,8.6094,8.6094,8.6085]}]]